<?xml version="1.0" encoding="UTF-8" standalone="no" ?>
<gpx xmlns="http://www.topografix.com/GPX/1/1" xmlns:xsi="http://www.w3.org/2001/XMLSchema-instance" xsi:schemaLocation="http://www.topografix.com/GPX/1/1 http://www.topografix.com/GPX/1/1/gpx.xsd" version="1.1" creator="VisuGPX - https://www.visugpx.com">
  <metadata>
    <name>Sortie</name>
    <desc><![CDATA[Sortie VTT pour découvrir les chemins]]></desc>
  </metadata>
  <trk>
    <name><![CDATA[ExploGPSTrack]]></name>
    <desc><![CDATA[Track description]]></desc>
    <trkseg>
      <trkpt lat="49.02489" lon="1.13687">
        <ele>72.5</ele>
        <time>2014-07-12T16:30:09Z</time>
      </trkpt>
      <trkpt lat="49.02492" lon="1.13694">
        <ele>71.5</ele>
        <time>2014-07-12T16:30:46Z</time>
      </trkpt>
      <trkpt lat="49.02499" lon="1.1369">
        <ele>71.5</ele>
        <time>2014-07-12T16:30:48Z</time>
      </trkpt>
      <trkpt lat="49.02505" lon="1.13685">
        <ele>71.5</ele>
        <time>2014-07-12T16:30:50Z</time>
      </trkpt>
      <trkpt lat="49.0251" lon="1.13677">
        <ele>71.5</ele>
        <time>2014-07-12T16:30:52Z</time>
      </trkpt>
      <trkpt lat="49.02516" lon="1.13671">
        <ele>71.5</ele>
        <time>2014-07-12T16:30:54Z</time>
      </trkpt>
      <trkpt lat="49.02523" lon="1.13666">
        <ele>71.5</ele>
        <time>2014-07-12T16:30:56Z</time>
      </trkpt>
      <trkpt lat="49.02529" lon="1.13659">
        <ele>70.5</ele>
        <time>2014-07-12T16:30:59Z</time>
      </trkpt>
      <trkpt lat="49.02534" lon="1.1365">
        <ele>69.5</ele>
        <time>2014-07-12T16:31:00Z</time>
      </trkpt>
      <trkpt lat="49.02539" lon="1.13641">
        <ele>69.5</ele>
        <time>2014-07-12T16:31:02Z</time>
      </trkpt>
      <trkpt lat="49.02546" lon="1.13633">
        <ele>70.5</ele>
        <time>2014-07-12T16:31:04Z</time>
      </trkpt>
      <trkpt lat="49.02553" lon="1.13627">
        <ele>72.5</ele>
        <time>2014-07-12T16:31:06Z</time>
      </trkpt>
      <trkpt lat="49.0256" lon="1.13622">
        <ele>73.5</ele>
        <time>2014-07-12T16:31:08Z</time>
      </trkpt>
      <trkpt lat="49.02568" lon="1.13617">
        <ele>74.5</ele>
        <time>2014-07-12T16:31:10Z</time>
      </trkpt>
      <trkpt lat="49.02573" lon="1.13614">
        <ele>75.5</ele>
        <time>2014-07-12T16:31:11Z</time>
      </trkpt>
      <trkpt lat="49.02581" lon="1.13609">
        <ele>75.5</ele>
        <time>2014-07-12T16:31:13Z</time>
      </trkpt>
      <trkpt lat="49.02585" lon="1.13606">
        <ele>75.5</ele>
        <time>2014-07-12T16:31:14Z</time>
      </trkpt>
      <trkpt lat="49.02593" lon="1.13602">
        <ele>74.5</ele>
        <time>2014-07-12T16:31:16Z</time>
      </trkpt>
      <trkpt lat="49.026" lon="1.136">
        <ele>76.5</ele>
        <time>2014-07-12T16:31:18Z</time>
      </trkpt>
      <trkpt lat="49.02608" lon="1.13598">
        <ele>78.5</ele>
        <time>2014-07-12T16:31:20Z</time>
      </trkpt>
      <trkpt lat="49.02613" lon="1.13594">
        <ele>77.5</ele>
        <time>2014-07-12T16:31:22Z</time>
      </trkpt>
      <trkpt lat="49.0261" lon="1.13583">
        <ele>77.5</ele>
        <time>2014-07-12T16:31:24Z</time>
      </trkpt>
      <trkpt lat="49.02605" lon="1.13573">
        <ele>76.5</ele>
        <time>2014-07-12T16:31:26Z</time>
      </trkpt>
      <trkpt lat="49.02603" lon="1.13567">
        <ele>76.5</ele>
        <time>2014-07-12T16:31:27Z</time>
      </trkpt>
      <trkpt lat="49.02599" lon="1.13556">
        <ele>75.5</ele>
        <time>2014-07-12T16:31:29Z</time>
      </trkpt>
      <trkpt lat="49.02596" lon="1.13545">
        <ele>75.5</ele>
        <time>2014-07-12T16:31:31Z</time>
      </trkpt>
      <trkpt lat="49.02593" lon="1.13528">
        <ele>75.5</ele>
        <time>2014-07-12T16:31:34Z</time>
      </trkpt>
      <trkpt lat="49.02591" lon="1.13516">
        <ele>75.5</ele>
        <time>2014-07-12T16:31:36Z</time>
      </trkpt>
      <trkpt lat="49.02589" lon="1.13502">
        <ele>74.5</ele>
        <time>2014-07-12T16:31:38Z</time>
      </trkpt>
      <trkpt lat="49.02587" lon="1.1349">
        <ele>73.5</ele>
        <time>2014-07-12T16:31:40Z</time>
      </trkpt>
      <trkpt lat="49.02585" lon="1.13479">
        <ele>73.5</ele>
        <time>2014-07-12T16:31:42Z</time>
      </trkpt>
      <trkpt lat="49.02581" lon="1.13468">
        <ele>73.5</ele>
        <time>2014-07-12T16:31:44Z</time>
      </trkpt>
      <trkpt lat="49.02579" lon="1.13456">
        <ele>73.5</ele>
        <time>2014-07-12T16:31:46Z</time>
      </trkpt>
      <trkpt lat="49.02578" lon="1.13444">
        <ele>74.5</ele>
        <time>2014-07-12T16:31:48Z</time>
      </trkpt>
      <trkpt lat="49.02576" lon="1.13433">
        <ele>74.5</ele>
        <time>2014-07-12T16:31:50Z</time>
      </trkpt>
      <trkpt lat="49.02575" lon="1.13421">
        <ele>75.5</ele>
        <time>2014-07-12T16:31:52Z</time>
      </trkpt>
      <trkpt lat="49.02573" lon="1.13402">
        <ele>76.5</ele>
        <time>2014-07-12T16:31:55Z</time>
      </trkpt>
      <trkpt lat="49.02571" lon="1.1339">
        <ele>76.5</ele>
        <time>2014-07-12T16:31:57Z</time>
      </trkpt>
      <trkpt lat="49.02568" lon="1.13378">
        <ele>76.5</ele>
        <time>2014-07-12T16:31:59Z</time>
      </trkpt>
      <trkpt lat="49.02566" lon="1.13367">
        <ele>76.5</ele>
        <time>2014-07-12T16:32:01Z</time>
      </trkpt>
      <trkpt lat="49.02564" lon="1.13355">
        <ele>76.5</ele>
        <time>2014-07-12T16:32:03Z</time>
      </trkpt>
      <trkpt lat="49.02562" lon="1.13343">
        <ele>76.5</ele>
        <time>2014-07-12T16:32:05Z</time>
      </trkpt>
      <trkpt lat="49.02561" lon="1.13331">
        <ele>75.5</ele>
        <time>2014-07-12T16:32:07Z</time>
      </trkpt>
      <trkpt lat="49.0256" lon="1.13319">
        <ele>75.5</ele>
        <time>2014-07-12T16:32:09Z</time>
      </trkpt>
      <trkpt lat="49.02558" lon="1.13306">
        <ele>76.5</ele>
        <time>2014-07-12T16:32:11Z</time>
      </trkpt>
      <trkpt lat="49.02557" lon="1.13298">
        <ele>76.5</ele>
        <time>2014-07-12T16:32:12Z</time>
      </trkpt>
      <trkpt lat="49.02555" lon="1.13285">
        <ele>76.5</ele>
        <time>2014-07-12T16:32:14Z</time>
      </trkpt>
      <trkpt lat="49.02554" lon="1.13278">
        <ele>76.5</ele>
        <time>2014-07-12T16:32:15Z</time>
      </trkpt>
      <trkpt lat="49.02552" lon="1.13265">
        <ele>77.5</ele>
        <time>2014-07-12T16:32:18Z</time>
      </trkpt>
      <trkpt lat="49.0255" lon="1.13251">
        <ele>77.5</ele>
        <time>2014-07-12T16:32:19Z</time>
      </trkpt>
      <trkpt lat="49.02549" lon="1.13244">
        <ele>76.5</ele>
        <time>2014-07-12T16:32:20Z</time>
      </trkpt>
      <trkpt lat="49.02547" lon="1.13231">
        <ele>77.5</ele>
        <time>2014-07-12T16:32:22Z</time>
      </trkpt>
      <trkpt lat="49.02546" lon="1.13224">
        <ele>76.5</ele>
        <time>2014-07-12T16:32:23Z</time>
      </trkpt>
      <trkpt lat="49.02545" lon="1.13211">
        <ele>75.5</ele>
        <time>2014-07-12T16:32:25Z</time>
      </trkpt>
      <trkpt lat="49.02543" lon="1.13204">
        <ele>76.5</ele>
        <time>2014-07-12T16:32:26Z</time>
      </trkpt>
      <trkpt lat="49.02542" lon="1.1319">
        <ele>75.5</ele>
        <time>2014-07-12T16:32:28Z</time>
      </trkpt>
      <trkpt lat="49.02541" lon="1.13183">
        <ele>75.5</ele>
        <time>2014-07-12T16:32:29Z</time>
      </trkpt>
      <trkpt lat="49.0254" lon="1.13176">
        <ele>75.5</ele>
        <time>2014-07-12T16:32:30Z</time>
      </trkpt>
      <trkpt lat="49.02539" lon="1.13167">
        <ele>75.5</ele>
        <time>2014-07-12T16:32:31Z</time>
      </trkpt>
      <trkpt lat="49.02537" lon="1.13155">
        <ele>75.5</ele>
        <time>2014-07-12T16:32:33Z</time>
      </trkpt>
      <trkpt lat="49.02535" lon="1.13148">
        <ele>75.5</ele>
        <time>2014-07-12T16:32:34Z</time>
      </trkpt>
      <trkpt lat="49.02533" lon="1.13135">
        <ele>75.5</ele>
        <time>2014-07-12T16:32:36Z</time>
      </trkpt>
      <trkpt lat="49.02531" lon="1.13129">
        <ele>75.5</ele>
        <time>2014-07-12T16:32:37Z</time>
      </trkpt>
      <trkpt lat="49.0253" lon="1.13122">
        <ele>75.5</ele>
        <time>2014-07-12T16:32:38Z</time>
      </trkpt>
      <trkpt lat="49.02529" lon="1.13115">
        <ele>75.5</ele>
        <time>2014-07-12T16:32:39Z</time>
      </trkpt>
      <trkpt lat="49.02526" lon="1.13104">
        <ele>75.5</ele>
        <time>2014-07-12T16:32:41Z</time>
      </trkpt>
      <trkpt lat="49.02524" lon="1.13091">
        <ele>75.5</ele>
        <time>2014-07-12T16:32:43Z</time>
      </trkpt>
      <trkpt lat="49.02523" lon="1.13084">
        <ele>74.5</ele>
        <time>2014-07-12T16:32:44Z</time>
      </trkpt>
      <trkpt lat="49.02521" lon="1.13072">
        <ele>72.5</ele>
        <time>2014-07-12T16:32:46Z</time>
      </trkpt>
      <trkpt lat="49.02519" lon="1.13061">
        <ele>71.5</ele>
        <time>2014-07-12T16:32:48Z</time>
      </trkpt>
      <trkpt lat="49.02516" lon="1.13048">
        <ele>71.5</ele>
        <time>2014-07-12T16:32:50Z</time>
      </trkpt>
      <trkpt lat="49.02513" lon="1.13035">
        <ele>71.5</ele>
        <time>2014-07-12T16:32:52Z</time>
      </trkpt>
      <trkpt lat="49.02511" lon="1.13023">
        <ele>70.5</ele>
        <time>2014-07-12T16:32:54Z</time>
      </trkpt>
      <trkpt lat="49.0251" lon="1.13016">
        <ele>70.5</ele>
        <time>2014-07-12T16:32:55Z</time>
      </trkpt>
      <trkpt lat="49.02509" lon="1.13008">
        <ele>71.5</ele>
        <time>2014-07-12T16:32:57Z</time>
      </trkpt>
      <trkpt lat="49.02506" lon="1.12996">
        <ele>71.5</ele>
        <time>2014-07-12T16:32:58Z</time>
      </trkpt>
      <trkpt lat="49.02504" lon="1.12983">
        <ele>71.5</ele>
        <time>2014-07-12T16:33:00Z</time>
      </trkpt>
      <trkpt lat="49.02503" lon="1.12971">
        <ele>72.5</ele>
        <time>2014-07-12T16:33:02Z</time>
      </trkpt>
      <trkpt lat="49.02501" lon="1.12958">
        <ele>71.5</ele>
        <time>2014-07-12T16:33:04Z</time>
      </trkpt>
      <trkpt lat="49.025" lon="1.12944">
        <ele>71.5</ele>
        <time>2014-07-12T16:33:06Z</time>
      </trkpt>
      <trkpt lat="49.02499" lon="1.12931">
        <ele>72.5</ele>
        <time>2014-07-12T16:33:08Z</time>
      </trkpt>
      <trkpt lat="49.02498" lon="1.12924">
        <ele>72.5</ele>
        <time>2014-07-12T16:33:09Z</time>
      </trkpt>
      <trkpt lat="49.02494" lon="1.12911">
        <ele>71.5</ele>
        <time>2014-07-12T16:33:11Z</time>
      </trkpt>
      <trkpt lat="49.02493" lon="1.12899">
        <ele>71.5</ele>
        <time>2014-07-12T16:33:13Z</time>
      </trkpt>
      <trkpt lat="49.02492" lon="1.12892">
        <ele>71.5</ele>
        <time>2014-07-12T16:33:14Z</time>
      </trkpt>
      <trkpt lat="49.02489" lon="1.12878">
        <ele>71.5</ele>
        <time>2014-07-12T16:33:16Z</time>
      </trkpt>
      <trkpt lat="49.02485" lon="1.12867">
        <ele>70.5</ele>
        <time>2014-07-12T16:33:18Z</time>
      </trkpt>
      <trkpt lat="49.02484" lon="1.1286">
        <ele>70.5</ele>
        <time>2014-07-12T16:33:19Z</time>
      </trkpt>
      <trkpt lat="49.02481" lon="1.12847">
        <ele>70.5</ele>
        <time>2014-07-12T16:33:21Z</time>
      </trkpt>
      <trkpt lat="49.0248" lon="1.12839">
        <ele>70.5</ele>
        <time>2014-07-12T16:33:22Z</time>
      </trkpt>
      <trkpt lat="49.02476" lon="1.12827">
        <ele>70.5</ele>
        <time>2014-07-12T16:33:24Z</time>
      </trkpt>
      <trkpt lat="49.02474" lon="1.1282">
        <ele>70.5</ele>
        <time>2014-07-12T16:33:26Z</time>
      </trkpt>
      <trkpt lat="49.02469" lon="1.12808">
        <ele>69.5</ele>
        <time>2014-07-12T16:33:27Z</time>
      </trkpt>
      <trkpt lat="49.02468" lon="1.12793">
        <ele>69.5</ele>
        <time>2014-07-12T16:33:29Z</time>
      </trkpt>
      <trkpt lat="49.02466" lon="1.12786">
        <ele>68.5</ele>
        <time>2014-07-12T16:33:30Z</time>
      </trkpt>
      <trkpt lat="49.02465" lon="1.12774">
        <ele>68.5</ele>
        <time>2014-07-12T16:33:32Z</time>
      </trkpt>
      <trkpt lat="49.02462" lon="1.12763">
        <ele>68.5</ele>
        <time>2014-07-12T16:33:34Z</time>
      </trkpt>
      <trkpt lat="49.02461" lon="1.12756">
        <ele>68.5</ele>
        <time>2014-07-12T16:33:35Z</time>
      </trkpt>
      <trkpt lat="49.02459" lon="1.12743">
        <ele>68.5</ele>
        <time>2014-07-12T16:33:37Z</time>
      </trkpt>
      <trkpt lat="49.02458" lon="1.12735">
        <ele>69.5</ele>
        <time>2014-07-12T16:33:38Z</time>
      </trkpt>
      <trkpt lat="49.02456" lon="1.12723">
        <ele>68.5</ele>
        <time>2014-07-12T16:33:40Z</time>
      </trkpt>
      <trkpt lat="49.02456" lon="1.1271">
        <ele>69.5</ele>
        <time>2014-07-12T16:33:42Z</time>
      </trkpt>
      <trkpt lat="49.02456" lon="1.12697">
        <ele>70.5</ele>
        <time>2014-07-12T16:33:44Z</time>
      </trkpt>
      <trkpt lat="49.02457" lon="1.12684">
        <ele>70.5</ele>
        <time>2014-07-12T16:33:46Z</time>
      </trkpt>
      <trkpt lat="49.02458" lon="1.12672">
        <ele>69.5</ele>
        <time>2014-07-12T16:33:48Z</time>
      </trkpt>
      <trkpt lat="49.02459" lon="1.1266">
        <ele>69.5</ele>
        <time>2014-07-12T16:33:50Z</time>
      </trkpt>
      <trkpt lat="49.02459" lon="1.12653">
        <ele>69.5</ele>
        <time>2014-07-12T16:33:51Z</time>
      </trkpt>
      <trkpt lat="49.02459" lon="1.1264">
        <ele>69.5</ele>
        <time>2014-07-12T16:33:53Z</time>
      </trkpt>
      <trkpt lat="49.02459" lon="1.12632">
        <ele>68.5</ele>
        <time>2014-07-12T16:33:54Z</time>
      </trkpt>
      <trkpt lat="49.02459" lon="1.12619">
        <ele>69.5</ele>
        <time>2014-07-12T16:33:56Z</time>
      </trkpt>
      <trkpt lat="49.02463" lon="1.12598">
        <ele>69.5</ele>
        <time>2014-07-12T16:33:59Z</time>
      </trkpt>
      <trkpt lat="49.02463" lon="1.12591">
        <ele>69.5</ele>
        <time>2014-07-12T16:34:00Z</time>
      </trkpt>
      <trkpt lat="49.02464" lon="1.12584">
        <ele>68.5</ele>
        <time>2014-07-12T16:34:01Z</time>
      </trkpt>
      <trkpt lat="49.02465" lon="1.12576">
        <ele>68.5</ele>
        <time>2014-07-12T16:34:02Z</time>
      </trkpt>
      <trkpt lat="49.02465" lon="1.12563">
        <ele>68.5</ele>
        <time>2014-07-12T16:34:04Z</time>
      </trkpt>
      <trkpt lat="49.02466" lon="1.12556">
        <ele>69.5</ele>
        <time>2014-07-12T16:34:05Z</time>
      </trkpt>
      <trkpt lat="49.02466" lon="1.12542">
        <ele>70.5</ele>
        <time>2014-07-12T16:34:07Z</time>
      </trkpt>
      <trkpt lat="49.02467" lon="1.12535">
        <ele>69.5</ele>
        <time>2014-07-12T16:34:08Z</time>
      </trkpt>
      <trkpt lat="49.02469" lon="1.12528">
        <ele>69.5</ele>
        <time>2014-07-12T16:34:09Z</time>
      </trkpt>
      <trkpt lat="49.0247" lon="1.12521">
        <ele>69.5</ele>
        <time>2014-07-12T16:34:10Z</time>
      </trkpt>
      <trkpt lat="49.02472" lon="1.12508">
        <ele>69.5</ele>
        <time>2014-07-12T16:34:12Z</time>
      </trkpt>
      <trkpt lat="49.02471" lon="1.125">
        <ele>69.5</ele>
        <time>2014-07-12T16:34:13Z</time>
      </trkpt>
      <trkpt lat="49.02473" lon="1.12493">
        <ele>69.5</ele>
        <time>2014-07-12T16:34:14Z</time>
      </trkpt>
      <trkpt lat="49.02476" lon="1.12487">
        <ele>69.5</ele>
        <time>2014-07-12T16:34:15Z</time>
      </trkpt>
      <trkpt lat="49.02481" lon="1.12477">
        <ele>71.5</ele>
        <time>2014-07-12T16:34:17Z</time>
      </trkpt>
      <trkpt lat="49.02486" lon="1.12471">
        <ele>72.5</ele>
        <time>2014-07-12T16:34:18Z</time>
      </trkpt>
      <trkpt lat="49.0249" lon="1.12466">
        <ele>74.5</ele>
        <time>2014-07-12T16:34:19Z</time>
      </trkpt>
      <trkpt lat="49.02494" lon="1.12462">
        <ele>74.5</ele>
        <time>2014-07-12T16:34:20Z</time>
      </trkpt>
      <trkpt lat="49.02497" lon="1.12458">
        <ele>75.5</ele>
        <time>2014-07-12T16:34:21Z</time>
      </trkpt>
      <trkpt lat="49.02501" lon="1.12454">
        <ele>75.5</ele>
        <time>2014-07-12T16:34:22Z</time>
      </trkpt>
      <trkpt lat="49.02505" lon="1.12449">
        <ele>75.5</ele>
        <time>2014-07-12T16:34:23Z</time>
      </trkpt>
      <trkpt lat="49.02508" lon="1.12444">
        <ele>75.5</ele>
        <time>2014-07-12T16:34:24Z</time>
      </trkpt>
      <trkpt lat="49.02512" lon="1.1244">
        <ele>75.5</ele>
        <time>2014-07-12T16:34:25Z</time>
      </trkpt>
      <trkpt lat="49.02517" lon="1.12437">
        <ele>75.5</ele>
        <time>2014-07-12T16:34:26Z</time>
      </trkpt>
      <trkpt lat="49.02524" lon="1.12428">
        <ele>75.5</ele>
        <time>2014-07-12T16:34:28Z</time>
      </trkpt>
      <trkpt lat="49.02528" lon="1.12424">
        <ele>75.5</ele>
        <time>2014-07-12T16:34:29Z</time>
      </trkpt>
      <trkpt lat="49.02536" lon="1.12417">
        <ele>76.5</ele>
        <time>2014-07-12T16:34:31Z</time>
      </trkpt>
      <trkpt lat="49.02545" lon="1.12413">
        <ele>76.5</ele>
        <time>2014-07-12T16:34:33Z</time>
      </trkpt>
      <trkpt lat="49.0255" lon="1.12412">
        <ele>76.5</ele>
        <time>2014-07-12T16:34:34Z</time>
      </trkpt>
      <trkpt lat="49.02557" lon="1.12409">
        <ele>76.5</ele>
        <time>2014-07-12T16:34:36Z</time>
      </trkpt>
      <trkpt lat="49.02562" lon="1.12409">
        <ele>76.5</ele>
        <time>2014-07-12T16:34:37Z</time>
      </trkpt>
      <trkpt lat="49.02574" lon="1.1241">
        <ele>76.5</ele>
        <time>2014-07-12T16:34:40Z</time>
      </trkpt>
      <trkpt lat="49.02583" lon="1.12409">
        <ele>77.5</ele>
        <time>2014-07-12T16:34:42Z</time>
      </trkpt>
      <trkpt lat="49.02588" lon="1.12409">
        <ele>76.5</ele>
        <time>2014-07-12T16:34:43Z</time>
      </trkpt>
      <trkpt lat="49.02597" lon="1.12409">
        <ele>77.5</ele>
        <time>2014-07-12T16:34:45Z</time>
      </trkpt>
      <trkpt lat="49.02605" lon="1.12407">
        <ele>77.5</ele>
        <time>2014-07-12T16:34:47Z</time>
      </trkpt>
      <trkpt lat="49.02613" lon="1.12407">
        <ele>77.5</ele>
        <time>2014-07-12T16:34:49Z</time>
      </trkpt>
      <trkpt lat="49.02618" lon="1.12408">
        <ele>77.5</ele>
        <time>2014-07-12T16:34:50Z</time>
      </trkpt>
      <trkpt lat="49.02625" lon="1.12408">
        <ele>77.5</ele>
        <time>2014-07-12T16:34:52Z</time>
      </trkpt>
      <trkpt lat="49.02633" lon="1.12409">
        <ele>77.5</ele>
        <time>2014-07-12T16:34:54Z</time>
      </trkpt>
      <trkpt lat="49.02638" lon="1.12409">
        <ele>77.5</ele>
        <time>2014-07-12T16:34:55Z</time>
      </trkpt>
      <trkpt lat="49.02646" lon="1.12409">
        <ele>78.5</ele>
        <time>2014-07-12T16:34:57Z</time>
      </trkpt>
      <trkpt lat="49.02652" lon="1.1241">
        <ele>79.5</ele>
        <time>2014-07-12T16:34:59Z</time>
      </trkpt>
      <trkpt lat="49.02659" lon="1.1241">
        <ele>80.5</ele>
        <time>2014-07-12T16:35:01Z</time>
      </trkpt>
      <trkpt lat="49.02665" lon="1.12412">
        <ele>82.5</ele>
        <time>2014-07-12T16:35:03Z</time>
      </trkpt>
      <trkpt lat="49.02672" lon="1.12413">
        <ele>82.5</ele>
        <time>2014-07-12T16:35:05Z</time>
      </trkpt>
      <trkpt lat="49.02678" lon="1.12416">
        <ele>83.5</ele>
        <time>2014-07-12T16:35:07Z</time>
      </trkpt>
      <trkpt lat="49.02685" lon="1.12419">
        <ele>84.5</ele>
        <time>2014-07-12T16:35:09Z</time>
      </trkpt>
      <trkpt lat="49.02691" lon="1.12422">
        <ele>82.5</ele>
        <time>2014-07-12T16:35:11Z</time>
      </trkpt>
      <trkpt lat="49.02697" lon="1.12426">
        <ele>84.5</ele>
        <time>2014-07-12T16:35:13Z</time>
      </trkpt>
      <trkpt lat="49.02703" lon="1.1243">
        <ele>82.5</ele>
        <time>2014-07-12T16:35:15Z</time>
      </trkpt>
      <trkpt lat="49.02708" lon="1.12435">
        <ele>82.5</ele>
        <time>2014-07-12T16:35:17Z</time>
      </trkpt>
      <trkpt lat="49.02714" lon="1.12441">
        <ele>80.5</ele>
        <time>2014-07-12T16:35:19Z</time>
      </trkpt>
      <trkpt lat="49.0272" lon="1.12447">
        <ele>80.5</ele>
        <time>2014-07-12T16:35:21Z</time>
      </trkpt>
      <trkpt lat="49.02726" lon="1.12454">
        <ele>80.5</ele>
        <time>2014-07-12T16:35:23Z</time>
      </trkpt>
      <trkpt lat="49.02734" lon="1.12467">
        <ele>80.5</ele>
        <time>2014-07-12T16:35:26Z</time>
      </trkpt>
      <trkpt lat="49.02739" lon="1.12476">
        <ele>79.5</ele>
        <time>2014-07-12T16:35:28Z</time>
      </trkpt>
      <trkpt lat="49.02744" lon="1.12486">
        <ele>80.5</ele>
        <time>2014-07-12T16:35:30Z</time>
      </trkpt>
      <trkpt lat="49.02749" lon="1.12496">
        <ele>79.5</ele>
        <time>2014-07-12T16:35:32Z</time>
      </trkpt>
      <trkpt lat="49.02753" lon="1.12507">
        <ele>79.5</ele>
        <time>2014-07-12T16:35:34Z</time>
      </trkpt>
      <trkpt lat="49.02757" lon="1.12517">
        <ele>79.5</ele>
        <time>2014-07-12T16:35:36Z</time>
      </trkpt>
      <trkpt lat="49.02762" lon="1.12528">
        <ele>78.5</ele>
        <time>2014-07-12T16:35:38Z</time>
      </trkpt>
      <trkpt lat="49.02768" lon="1.12538">
        <ele>78.5</ele>
        <time>2014-07-12T16:35:40Z</time>
      </trkpt>
      <trkpt lat="49.02773" lon="1.12547">
        <ele>79.5</ele>
        <time>2014-07-12T16:35:42Z</time>
      </trkpt>
      <trkpt lat="49.02779" lon="1.12556">
        <ele>78.5</ele>
        <time>2014-07-12T16:35:44Z</time>
      </trkpt>
      <trkpt lat="49.02785" lon="1.12563">
        <ele>78.5</ele>
        <time>2014-07-12T16:35:46Z</time>
      </trkpt>
      <trkpt lat="49.02792" lon="1.1257">
        <ele>77.5</ele>
        <time>2014-07-12T16:35:48Z</time>
      </trkpt>
      <trkpt lat="49.02799" lon="1.12574">
        <ele>77.5</ele>
        <time>2014-07-12T16:35:51Z</time>
      </trkpt>
      <trkpt lat="49.02807" lon="1.12578">
        <ele>77.5</ele>
        <time>2014-07-12T16:35:52Z</time>
      </trkpt>
      <trkpt lat="49.02813" lon="1.12578">
        <ele>78.5</ele>
        <time>2014-07-12T16:35:53Z</time>
      </trkpt>
      <trkpt lat="49.02821" lon="1.12579">
        <ele>78.5</ele>
        <time>2014-07-12T16:35:55Z</time>
      </trkpt>
      <trkpt lat="49.02829" lon="1.12581">
        <ele>78.5</ele>
        <time>2014-07-12T16:35:57Z</time>
      </trkpt>
      <trkpt lat="49.02838" lon="1.12583">
        <ele>78.5</ele>
        <time>2014-07-12T16:35:59Z</time>
      </trkpt>
      <trkpt lat="49.02846" lon="1.12585">
        <ele>78.5</ele>
        <time>2014-07-12T16:36:01Z</time>
      </trkpt>
      <trkpt lat="49.02855" lon="1.12586">
        <ele>79.5</ele>
        <time>2014-07-12T16:36:03Z</time>
      </trkpt>
      <trkpt lat="49.02863" lon="1.12585">
        <ele>79.5</ele>
        <time>2014-07-12T16:36:05Z</time>
      </trkpt>
      <trkpt lat="49.02871" lon="1.12584">
        <ele>79.5</ele>
        <time>2014-07-12T16:36:07Z</time>
      </trkpt>
      <trkpt lat="49.02879" lon="1.12581">
        <ele>79.5</ele>
        <time>2014-07-12T16:36:09Z</time>
      </trkpt>
      <trkpt lat="49.02887" lon="1.12578">
        <ele>79.5</ele>
        <time>2014-07-12T16:36:11Z</time>
      </trkpt>
      <trkpt lat="49.02895" lon="1.12575">
        <ele>79.5</ele>
        <time>2014-07-12T16:36:13Z</time>
      </trkpt>
      <trkpt lat="49.02903" lon="1.12572">
        <ele>80.5</ele>
        <time>2014-07-12T16:36:15Z</time>
      </trkpt>
      <trkpt lat="49.0291" lon="1.12569">
        <ele>80.5</ele>
        <time>2014-07-12T16:36:17Z</time>
      </trkpt>
      <trkpt lat="49.02919" lon="1.12568">
        <ele>80.5</ele>
        <time>2014-07-12T16:36:20Z</time>
      </trkpt>
      <trkpt lat="49.02927" lon="1.12567">
        <ele>79.5</ele>
        <time>2014-07-12T16:36:21Z</time>
      </trkpt>
      <trkpt lat="49.02936" lon="1.12566">
        <ele>79.5</ele>
        <time>2014-07-12T16:36:23Z</time>
      </trkpt>
      <trkpt lat="49.02944" lon="1.12565">
        <ele>79.5</ele>
        <time>2014-07-12T16:36:25Z</time>
      </trkpt>
      <trkpt lat="49.02953" lon="1.12565">
        <ele>79.5</ele>
        <time>2014-07-12T16:36:27Z</time>
      </trkpt>
      <trkpt lat="49.02961" lon="1.12566">
        <ele>79.5</ele>
        <time>2014-07-12T16:36:29Z</time>
      </trkpt>
      <trkpt lat="49.02969" lon="1.12568">
        <ele>79.5</ele>
        <time>2014-07-12T16:36:31Z</time>
      </trkpt>
      <trkpt lat="49.02977" lon="1.1257">
        <ele>79.5</ele>
        <time>2014-07-12T16:36:33Z</time>
      </trkpt>
      <trkpt lat="49.02985" lon="1.12573">
        <ele>79.5</ele>
        <time>2014-07-12T16:36:35Z</time>
      </trkpt>
      <trkpt lat="49.0299" lon="1.12575">
        <ele>79.5</ele>
        <time>2014-07-12T16:36:36Z</time>
      </trkpt>
      <trkpt lat="49.02998" lon="1.12577">
        <ele>79.5</ele>
        <time>2014-07-12T16:36:38Z</time>
      </trkpt>
      <trkpt lat="49.03002" lon="1.12578">
        <ele>79.5</ele>
        <time>2014-07-12T16:36:39Z</time>
      </trkpt>
      <trkpt lat="49.0301" lon="1.1258">
        <ele>79.5</ele>
        <time>2014-07-12T16:36:41Z</time>
      </trkpt>
      <trkpt lat="49.03018" lon="1.12582">
        <ele>79.5</ele>
        <time>2014-07-12T16:36:43Z</time>
      </trkpt>
      <trkpt lat="49.03027" lon="1.12583">
        <ele>80.5</ele>
        <time>2014-07-12T16:36:45Z</time>
      </trkpt>
      <trkpt lat="49.03035" lon="1.12584">
        <ele>80.5</ele>
        <time>2014-07-12T16:36:47Z</time>
      </trkpt>
      <trkpt lat="49.03042" lon="1.12583">
        <ele>80.5</ele>
        <time>2014-07-12T16:36:49Z</time>
      </trkpt>
      <trkpt lat="49.0305" lon="1.12581">
        <ele>80.5</ele>
        <time>2014-07-12T16:36:52Z</time>
      </trkpt>
      <trkpt lat="49.03058" lon="1.12578">
        <ele>80.5</ele>
        <time>2014-07-12T16:36:53Z</time>
      </trkpt>
      <trkpt lat="49.03065" lon="1.12573">
        <ele>80.5</ele>
        <time>2014-07-12T16:36:55Z</time>
      </trkpt>
      <trkpt lat="49.03073" lon="1.12568">
        <ele>80.5</ele>
        <time>2014-07-12T16:36:57Z</time>
      </trkpt>
      <trkpt lat="49.03077" lon="1.12563">
        <ele>80.5</ele>
        <time>2014-07-12T16:36:58Z</time>
      </trkpt>
      <trkpt lat="49.03085" lon="1.12558">
        <ele>80.5</ele>
        <time>2014-07-12T16:37:00Z</time>
      </trkpt>
      <trkpt lat="49.03089" lon="1.12554">
        <ele>79.5</ele>
        <time>2014-07-12T16:37:01Z</time>
      </trkpt>
      <trkpt lat="49.03097" lon="1.12547">
        <ele>80.5</ele>
        <time>2014-07-12T16:37:03Z</time>
      </trkpt>
      <trkpt lat="49.03104" lon="1.12542">
        <ele>80.5</ele>
        <time>2014-07-12T16:37:05Z</time>
      </trkpt>
      <trkpt lat="49.03109" lon="1.1254">
        <ele>80.5</ele>
        <time>2014-07-12T16:37:06Z</time>
      </trkpt>
      <trkpt lat="49.03118" lon="1.12538">
        <ele>80.5</ele>
        <time>2014-07-12T16:37:08Z</time>
      </trkpt>
      <trkpt lat="49.03123" lon="1.12537">
        <ele>80.5</ele>
        <time>2014-07-12T16:37:09Z</time>
      </trkpt>
      <trkpt lat="49.03131" lon="1.12536">
        <ele>80.5</ele>
        <time>2014-07-12T16:37:11Z</time>
      </trkpt>
      <trkpt lat="49.03139" lon="1.12532">
        <ele>82.5</ele>
        <time>2014-07-12T16:37:13Z</time>
      </trkpt>
      <trkpt lat="49.03147" lon="1.12532">
        <ele>81.5</ele>
        <time>2014-07-12T16:37:15Z</time>
      </trkpt>
      <trkpt lat="49.03155" lon="1.12528">
        <ele>81.5</ele>
        <time>2014-07-12T16:37:17Z</time>
      </trkpt>
      <trkpt lat="49.03163" lon="1.12524">
        <ele>81.5</ele>
        <time>2014-07-12T16:37:19Z</time>
      </trkpt>
      <trkpt lat="49.0317" lon="1.12519">
        <ele>81.5</ele>
        <time>2014-07-12T16:37:21Z</time>
      </trkpt>
      <trkpt lat="49.03175" lon="1.12517">
        <ele>81.5</ele>
        <time>2014-07-12T16:37:22Z</time>
      </trkpt>
      <trkpt lat="49.03183" lon="1.12512">
        <ele>81.5</ele>
        <time>2014-07-12T16:37:24Z</time>
      </trkpt>
      <trkpt lat="49.03191" lon="1.12508">
        <ele>81.5</ele>
        <time>2014-07-12T16:37:26Z</time>
      </trkpt>
      <trkpt lat="49.03198" lon="1.12504">
        <ele>81.5</ele>
        <time>2014-07-12T16:37:28Z</time>
      </trkpt>
      <trkpt lat="49.03206" lon="1.12502">
        <ele>81.5</ele>
        <time>2014-07-12T16:37:30Z</time>
      </trkpt>
      <trkpt lat="49.03213" lon="1.12499">
        <ele>82.5</ele>
        <time>2014-07-12T16:37:32Z</time>
      </trkpt>
      <trkpt lat="49.03221" lon="1.12496">
        <ele>82.5</ele>
        <time>2014-07-12T16:37:34Z</time>
      </trkpt>
      <trkpt lat="49.03229" lon="1.12495">
        <ele>82.5</ele>
        <time>2014-07-12T16:37:36Z</time>
      </trkpt>
      <trkpt lat="49.03237" lon="1.12494">
        <ele>82.5</ele>
        <time>2014-07-12T16:37:38Z</time>
      </trkpt>
      <trkpt lat="49.03246" lon="1.12494">
        <ele>82.5</ele>
        <time>2014-07-12T16:37:40Z</time>
      </trkpt>
      <trkpt lat="49.03254" lon="1.12494">
        <ele>82.5</ele>
        <time>2014-07-12T16:37:43Z</time>
      </trkpt>
      <trkpt lat="49.03262" lon="1.12493">
        <ele>83.5</ele>
        <time>2014-07-12T16:37:44Z</time>
      </trkpt>
      <trkpt lat="49.03271" lon="1.12492">
        <ele>83.5</ele>
        <time>2014-07-12T16:37:46Z</time>
      </trkpt>
      <trkpt lat="49.0328" lon="1.12492">
        <ele>83.5</ele>
        <time>2014-07-12T16:37:48Z</time>
      </trkpt>
      <trkpt lat="49.03288" lon="1.1249">
        <ele>83.5</ele>
        <time>2014-07-12T16:37:50Z</time>
      </trkpt>
      <trkpt lat="49.03293" lon="1.12489">
        <ele>83.5</ele>
        <time>2014-07-12T16:37:51Z</time>
      </trkpt>
      <trkpt lat="49.03301" lon="1.12486">
        <ele>83.5</ele>
        <time>2014-07-12T16:37:53Z</time>
      </trkpt>
      <trkpt lat="49.03306" lon="1.12483">
        <ele>84.5</ele>
        <time>2014-07-12T16:37:54Z</time>
      </trkpt>
      <trkpt lat="49.03311" lon="1.12477">
        <ele>84.5</ele>
        <time>2014-07-12T16:37:55Z</time>
      </trkpt>
      <trkpt lat="49.03315" lon="1.12472">
        <ele>84.5</ele>
        <time>2014-07-12T16:37:56Z</time>
      </trkpt>
      <trkpt lat="49.03318" lon="1.12463">
        <ele>85.5</ele>
        <time>2014-07-12T16:37:57Z</time>
      </trkpt>
      <trkpt lat="49.03321" lon="1.12455">
        <ele>85.5</ele>
        <time>2014-07-12T16:37:58Z</time>
      </trkpt>
      <trkpt lat="49.03323" lon="1.12445">
        <ele>85.5</ele>
        <time>2014-07-12T16:37:59Z</time>
      </trkpt>
      <trkpt lat="49.03325" lon="1.12437">
        <ele>85.5</ele>
        <time>2014-07-12T16:38:00Z</time>
      </trkpt>
      <trkpt lat="49.03326" lon="1.12428">
        <ele>85.5</ele>
        <time>2014-07-12T16:38:01Z</time>
      </trkpt>
      <trkpt lat="49.03326" lon="1.12419">
        <ele>85.5</ele>
        <time>2014-07-12T16:38:02Z</time>
      </trkpt>
      <trkpt lat="49.03327" lon="1.12411">
        <ele>84.5</ele>
        <time>2014-07-12T16:38:03Z</time>
      </trkpt>
      <trkpt lat="49.03327" lon="1.12402">
        <ele>84.5</ele>
        <time>2014-07-12T16:38:04Z</time>
      </trkpt>
      <trkpt lat="49.03327" lon="1.12394">
        <ele>85.5</ele>
        <time>2014-07-12T16:38:05Z</time>
      </trkpt>
      <trkpt lat="49.03328" lon="1.12379">
        <ele>84.5</ele>
        <time>2014-07-12T16:38:07Z</time>
      </trkpt>
      <trkpt lat="49.03327" lon="1.12372">
        <ele>84.5</ele>
        <time>2014-07-12T16:38:08Z</time>
      </trkpt>
      <trkpt lat="49.03326" lon="1.12364">
        <ele>84.5</ele>
        <time>2014-07-12T16:38:09Z</time>
      </trkpt>
      <trkpt lat="49.03326" lon="1.12355">
        <ele>84.5</ele>
        <time>2014-07-12T16:38:10Z</time>
      </trkpt>
      <trkpt lat="49.03324" lon="1.1234">
        <ele>84.5</ele>
        <time>2014-07-12T16:38:12Z</time>
      </trkpt>
      <trkpt lat="49.03323" lon="1.12332">
        <ele>85.5</ele>
        <time>2014-07-12T16:38:14Z</time>
      </trkpt>
      <trkpt lat="49.03324" lon="1.12317">
        <ele>84.5</ele>
        <time>2014-07-12T16:38:15Z</time>
      </trkpt>
      <trkpt lat="49.03325" lon="1.12304">
        <ele>85.5</ele>
        <time>2014-07-12T16:38:17Z</time>
      </trkpt>
      <trkpt lat="49.03326" lon="1.12297">
        <ele>84.5</ele>
        <time>2014-07-12T16:38:18Z</time>
      </trkpt>
      <trkpt lat="49.03336" lon="1.12291">
        <ele>84.5</ele>
        <time>2014-07-12T16:38:19Z</time>
      </trkpt>
      <trkpt lat="49.03339" lon="1.12283">
        <ele>84.5</ele>
        <time>2014-07-12T16:38:20Z</time>
      </trkpt>
      <trkpt lat="49.03343" lon="1.12271">
        <ele>84.5</ele>
        <time>2014-07-12T16:38:22Z</time>
      </trkpt>
      <trkpt lat="49.03348" lon="1.12267">
        <ele>85.5</ele>
        <time>2014-07-12T16:38:23Z</time>
      </trkpt>
      <trkpt lat="49.03352" lon="1.12263">
        <ele>86.5</ele>
        <time>2014-07-12T16:38:24Z</time>
      </trkpt>
      <trkpt lat="49.03356" lon="1.1226">
        <ele>87.5</ele>
        <time>2014-07-12T16:38:25Z</time>
      </trkpt>
      <trkpt lat="49.03363" lon="1.12254">
        <ele>87.5</ele>
        <time>2014-07-12T16:38:27Z</time>
      </trkpt>
      <trkpt lat="49.03366" lon="1.12249">
        <ele>87.5</ele>
        <time>2014-07-12T16:38:28Z</time>
      </trkpt>
      <trkpt lat="49.0337" lon="1.12241">
        <ele>88.5</ele>
        <time>2014-07-12T16:38:30Z</time>
      </trkpt>
      <trkpt lat="49.03374" lon="1.12234">
        <ele>89.5</ele>
        <time>2014-07-12T16:38:32Z</time>
      </trkpt>
      <trkpt lat="49.03379" lon="1.12228">
        <ele>89.5</ele>
        <time>2014-07-12T16:38:34Z</time>
      </trkpt>
      <trkpt lat="49.03384" lon="1.12223">
        <ele>89.5</ele>
        <time>2014-07-12T16:38:36Z</time>
      </trkpt>
      <trkpt lat="49.0339" lon="1.12222">
        <ele>88.5</ele>
        <time>2014-07-12T16:38:38Z</time>
      </trkpt>
      <trkpt lat="49.03397" lon="1.12225">
        <ele>89.5</ele>
        <time>2014-07-12T16:38:40Z</time>
      </trkpt>
      <trkpt lat="49.03401" lon="1.12229">
        <ele>89.5</ele>
        <time>2014-07-12T16:38:41Z</time>
      </trkpt>
      <trkpt lat="49.03405" lon="1.12235">
        <ele>89.5</ele>
        <time>2014-07-12T16:38:42Z</time>
      </trkpt>
      <trkpt lat="49.03407" lon="1.1224">
        <ele>88.5</ele>
        <time>2014-07-12T16:38:43Z</time>
      </trkpt>
      <trkpt lat="49.0341" lon="1.12247">
        <ele>88.5</ele>
        <time>2014-07-12T16:38:44Z</time>
      </trkpt>
      <trkpt lat="49.03413" lon="1.12253">
        <ele>89.5</ele>
        <time>2014-07-12T16:38:45Z</time>
      </trkpt>
      <trkpt lat="49.03417" lon="1.12263">
        <ele>89.5</ele>
        <time>2014-07-12T16:38:47Z</time>
      </trkpt>
      <trkpt lat="49.03422" lon="1.12272">
        <ele>89.5</ele>
        <time>2014-07-12T16:38:50Z</time>
      </trkpt>
      <trkpt lat="49.03427" lon="1.12282">
        <ele>90.5</ele>
        <time>2014-07-12T16:38:51Z</time>
      </trkpt>
      <trkpt lat="49.0343" lon="1.12291">
        <ele>91.5</ele>
        <time>2014-07-12T16:38:53Z</time>
      </trkpt>
      <trkpt lat="49.03432" lon="1.12298">
        <ele>92.5</ele>
        <time>2014-07-12T16:38:55Z</time>
      </trkpt>
      <trkpt lat="49.03434" lon="1.12307">
        <ele>93.5</ele>
        <time>2014-07-12T16:38:57Z</time>
      </trkpt>
      <trkpt lat="49.03437" lon="1.12317">
        <ele>93.5</ele>
        <time>2014-07-12T16:38:59Z</time>
      </trkpt>
      <trkpt lat="49.03441" lon="1.12326">
        <ele>93.5</ele>
        <time>2014-07-12T16:39:01Z</time>
      </trkpt>
      <trkpt lat="49.03444" lon="1.12336">
        <ele>91.5</ele>
        <time>2014-07-12T16:39:03Z</time>
      </trkpt>
      <trkpt lat="49.03446" lon="1.12346">
        <ele>92.5</ele>
        <time>2014-07-12T16:39:05Z</time>
      </trkpt>
      <trkpt lat="49.03446" lon="1.12356">
        <ele>92.5</ele>
        <time>2014-07-12T16:39:07Z</time>
      </trkpt>
      <trkpt lat="49.03448" lon="1.12365">
        <ele>93.5</ele>
        <time>2014-07-12T16:39:09Z</time>
      </trkpt>
      <trkpt lat="49.03454" lon="1.12372">
        <ele>91.5</ele>
        <time>2014-07-12T16:39:11Z</time>
      </trkpt>
      <trkpt lat="49.03461" lon="1.12377">
        <ele>93.5</ele>
        <time>2014-07-12T16:39:13Z</time>
      </trkpt>
      <trkpt lat="49.03468" lon="1.12381">
        <ele>93.5</ele>
        <time>2014-07-12T16:39:15Z</time>
      </trkpt>
      <trkpt lat="49.03473" lon="1.12383">
        <ele>93.5</ele>
        <time>2014-07-12T16:39:16Z</time>
      </trkpt>
      <trkpt lat="49.03478" lon="1.12383">
        <ele>94.5</ele>
        <time>2014-07-12T16:39:17Z</time>
      </trkpt>
      <trkpt lat="49.03483" lon="1.12384">
        <ele>93.5</ele>
        <time>2014-07-12T16:39:18Z</time>
      </trkpt>
      <trkpt lat="49.0349" lon="1.12385">
        <ele>93.5</ele>
        <time>2014-07-12T16:39:19Z</time>
      </trkpt>
      <trkpt lat="49.03503" lon="1.12387">
        <ele>93.5</ele>
        <time>2014-07-12T16:39:20Z</time>
      </trkpt>
      <trkpt lat="49.0351" lon="1.12389">
        <ele>93.5</ele>
        <time>2014-07-12T16:39:21Z</time>
      </trkpt>
      <trkpt lat="49.03517" lon="1.12395">
        <ele>93.5</ele>
        <time>2014-07-12T16:39:22Z</time>
      </trkpt>
      <trkpt lat="49.03525" lon="1.12394">
        <ele>93.5</ele>
        <time>2014-07-12T16:39:23Z</time>
      </trkpt>
      <trkpt lat="49.0353" lon="1.12387">
        <ele>93.5</ele>
        <time>2014-07-12T16:39:24Z</time>
      </trkpt>
      <trkpt lat="49.03531" lon="1.1238">
        <ele>93.5</ele>
        <time>2014-07-12T16:39:25Z</time>
      </trkpt>
      <trkpt lat="49.03533" lon="1.12377">
        <ele>93.5</ele>
        <time>2014-07-12T16:39:26Z</time>
      </trkpt>
      <trkpt lat="49.03537" lon="1.12374">
        <ele>93.5</ele>
        <time>2014-07-12T16:39:27Z</time>
      </trkpt>
      <trkpt lat="49.03541" lon="1.12368">
        <ele>93.5</ele>
        <time>2014-07-12T16:39:29Z</time>
      </trkpt>
      <trkpt lat="49.03542" lon="1.12349">
        <ele>92.5</ele>
        <time>2014-07-12T16:39:32Z</time>
      </trkpt>
      <trkpt lat="49.03546" lon="1.1234">
        <ele>93.5</ele>
        <time>2014-07-12T16:39:34Z</time>
      </trkpt>
      <trkpt lat="49.03547" lon="1.1233">
        <ele>93.5</ele>
        <time>2014-07-12T16:39:36Z</time>
      </trkpt>
      <trkpt lat="49.0355" lon="1.12321">
        <ele>93.5</ele>
        <time>2014-07-12T16:39:38Z</time>
      </trkpt>
      <trkpt lat="49.03552" lon="1.1231">
        <ele>93.5</ele>
        <time>2014-07-12T16:39:40Z</time>
      </trkpt>
      <trkpt lat="49.03554" lon="1.12303">
        <ele>94.5</ele>
        <time>2014-07-12T16:39:41Z</time>
      </trkpt>
      <trkpt lat="49.03556" lon="1.1229">
        <ele>93.5</ele>
        <time>2014-07-12T16:39:43Z</time>
      </trkpt>
      <trkpt lat="49.03557" lon="1.12277">
        <ele>94.5</ele>
        <time>2014-07-12T16:39:45Z</time>
      </trkpt>
      <trkpt lat="49.03558" lon="1.1227">
        <ele>94.5</ele>
        <time>2014-07-12T16:39:46Z</time>
      </trkpt>
      <trkpt lat="49.0356" lon="1.12259">
        <ele>94.5</ele>
        <time>2014-07-12T16:39:48Z</time>
      </trkpt>
      <trkpt lat="49.03564" lon="1.12249">
        <ele>94.5</ele>
        <time>2014-07-12T16:39:51Z</time>
      </trkpt>
      <trkpt lat="49.03569" lon="1.12239">
        <ele>94.5</ele>
        <time>2014-07-12T16:39:52Z</time>
      </trkpt>
      <trkpt lat="49.03572" lon="1.12228">
        <ele>95.5</ele>
        <time>2014-07-12T16:39:54Z</time>
      </trkpt>
      <trkpt lat="49.03576" lon="1.12217">
        <ele>94.5</ele>
        <time>2014-07-12T16:39:56Z</time>
      </trkpt>
      <trkpt lat="49.03578" lon="1.12205">
        <ele>94.5</ele>
        <time>2014-07-12T16:39:58Z</time>
      </trkpt>
      <trkpt lat="49.03579" lon="1.12193">
        <ele>95.5</ele>
        <time>2014-07-12T16:40:00Z</time>
      </trkpt>
      <trkpt lat="49.03579" lon="1.12181">
        <ele>95.5</ele>
        <time>2014-07-12T16:40:02Z</time>
      </trkpt>
      <trkpt lat="49.03578" lon="1.12168">
        <ele>95.5</ele>
        <time>2014-07-12T16:40:04Z</time>
      </trkpt>
      <trkpt lat="49.03579" lon="1.12155">
        <ele>95.5</ele>
        <time>2014-07-12T16:40:06Z</time>
      </trkpt>
      <trkpt lat="49.0358" lon="1.12143">
        <ele>95.5</ele>
        <time>2014-07-12T16:40:08Z</time>
      </trkpt>
      <trkpt lat="49.0358" lon="1.12135">
        <ele>95.5</ele>
        <time>2014-07-12T16:40:13Z</time>
      </trkpt>
      <trkpt lat="49.03581" lon="1.12126">
        <ele>95.5</ele>
        <time>2014-07-12T16:40:15Z</time>
      </trkpt>
      <trkpt lat="49.03584" lon="1.12117">
        <ele>95.5</ele>
        <time>2014-07-12T16:40:17Z</time>
      </trkpt>
      <trkpt lat="49.03586" lon="1.12102">
        <ele>97.5</ele>
        <time>2014-07-12T16:40:20Z</time>
      </trkpt>
      <trkpt lat="49.03587" lon="1.12095">
        <ele>97.5</ele>
        <time>2014-07-12T16:40:22Z</time>
      </trkpt>
      <trkpt lat="49.03588" lon="1.12086">
        <ele>97.5</ele>
        <time>2014-07-12T16:40:26Z</time>
      </trkpt>
      <trkpt lat="49.03584" lon="1.12081">
        <ele>97.5</ele>
        <time>2014-07-12T16:40:30Z</time>
      </trkpt>
      <trkpt lat="49.03583" lon="1.1208">
        <ele>97.5</ele>
        <time>2014-07-12T16:40:31Z</time>
      </trkpt>
      <trkpt lat="49.03583" lon="1.12075">
        <ele>97.5</ele>
        <time>2014-07-12T16:40:36Z</time>
      </trkpt>
      <trkpt lat="49.03584" lon="1.12067">
        <ele>97.5</ele>
        <time>2014-07-12T16:40:43Z</time>
      </trkpt>
      <trkpt lat="49.03586" lon="1.1206">
        <ele>98.5</ele>
        <time>2014-07-12T16:40:48Z</time>
      </trkpt>
      <trkpt lat="49.03587" lon="1.12051">
        <ele>100.5</ele>
        <time>2014-07-12T16:40:52Z</time>
      </trkpt>
      <trkpt lat="49.03586" lon="1.12046">
        <ele>100.5</ele>
        <time>2014-07-12T16:40:54Z</time>
      </trkpt>
      <trkpt lat="49.03586" lon="1.12038">
        <ele>100.5</ele>
        <time>2014-07-12T16:40:57Z</time>
      </trkpt>
      <trkpt lat="49.03585" lon="1.1203">
        <ele>102.5</ele>
        <time>2014-07-12T16:41:00Z</time>
      </trkpt>
      <trkpt lat="49.03584" lon="1.12025">
        <ele>101.5</ele>
        <time>2014-07-12T16:41:02Z</time>
      </trkpt>
      <trkpt lat="49.03584" lon="1.12018">
        <ele>103.5</ele>
        <time>2014-07-12T16:41:05Z</time>
      </trkpt>
      <trkpt lat="49.03584" lon="1.1201">
        <ele>101.5</ele>
        <time>2014-07-12T16:41:08Z</time>
      </trkpt>
      <trkpt lat="49.03583" lon="1.12003">
        <ele>102.5</ele>
        <time>2014-07-12T16:41:11Z</time>
      </trkpt>
      <trkpt lat="49.03583" lon="1.11995">
        <ele>103.5</ele>
        <time>2014-07-12T16:41:14Z</time>
      </trkpt>
      <trkpt lat="49.03584" lon="1.11987">
        <ele>105.5</ele>
        <time>2014-07-12T16:41:19Z</time>
      </trkpt>
      <trkpt lat="49.03587" lon="1.11982">
        <ele>106.5</ele>
        <time>2014-07-12T16:41:22Z</time>
      </trkpt>
      <trkpt lat="49.03591" lon="1.11976">
        <ele>106.5</ele>
        <time>2014-07-12T16:41:25Z</time>
      </trkpt>
      <trkpt lat="49.03594" lon="1.1197">
        <ele>107.5</ele>
        <time>2014-07-12T16:41:29Z</time>
      </trkpt>
      <trkpt lat="49.03598" lon="1.11964">
        <ele>108.5</ele>
        <time>2014-07-12T16:41:33Z</time>
      </trkpt>
      <trkpt lat="49.036" lon="1.11957">
        <ele>108.5</ele>
        <time>2014-07-12T16:41:37Z</time>
      </trkpt>
      <trkpt lat="49.03603" lon="1.1195">
        <ele>109.5</ele>
        <time>2014-07-12T16:41:41Z</time>
      </trkpt>
      <trkpt lat="49.03607" lon="1.11943">
        <ele>111.5</ele>
        <time>2014-07-12T16:41:45Z</time>
      </trkpt>
      <trkpt lat="49.0361" lon="1.11937">
        <ele>112.5</ele>
        <time>2014-07-12T16:41:53Z</time>
      </trkpt>
      <trkpt lat="49.03614" lon="1.11932">
        <ele>113.5</ele>
        <time>2014-07-12T16:41:59Z</time>
      </trkpt>
      <trkpt lat="49.03617" lon="1.11926">
        <ele>115.5</ele>
        <time>2014-07-12T16:42:04Z</time>
      </trkpt>
      <trkpt lat="49.03621" lon="1.11921">
        <ele>115.5</ele>
        <time>2014-07-12T16:42:07Z</time>
      </trkpt>
      <trkpt lat="49.03625" lon="1.11916">
        <ele>116.5</ele>
        <time>2014-07-12T16:42:11Z</time>
      </trkpt>
      <trkpt lat="49.03628" lon="1.11911">
        <ele>118.5</ele>
        <time>2014-07-12T16:42:19Z</time>
      </trkpt>
      <trkpt lat="49.03632" lon="1.11905">
        <ele>119.5</ele>
        <time>2014-07-12T16:42:26Z</time>
      </trkpt>
      <trkpt lat="49.03635" lon="1.11899">
        <ele>119.5</ele>
        <time>2014-07-12T16:42:41Z</time>
      </trkpt>
      <trkpt lat="49.03638" lon="1.11893">
        <ele>121.5</ele>
        <time>2014-07-12T16:42:46Z</time>
      </trkpt>
      <trkpt lat="49.03642" lon="1.11889">
        <ele>120.5</ele>
        <time>2014-07-12T16:42:51Z</time>
      </trkpt>
      <trkpt lat="49.03647" lon="1.11888">
        <ele>121.5</ele>
        <time>2014-07-12T16:42:56Z</time>
      </trkpt>
      <trkpt lat="49.03649" lon="1.11882">
        <ele>121.5</ele>
        <time>2014-07-12T16:43:03Z</time>
      </trkpt>
      <trkpt lat="49.03649" lon="1.11874">
        <ele>121.5</ele>
        <time>2014-07-12T16:43:09Z</time>
      </trkpt>
      <trkpt lat="49.03651" lon="1.11882">
        <ele>125.5</ele>
        <time>2014-07-12T16:43:31Z</time>
      </trkpt>
      <trkpt lat="49.03652" lon="1.1189">
        <ele>125.5</ele>
        <time>2014-07-12T16:43:34Z</time>
      </trkpt>
      <trkpt lat="49.03656" lon="1.11896">
        <ele>126.5</ele>
        <time>2014-07-12T16:43:38Z</time>
      </trkpt>
      <trkpt lat="49.0366" lon="1.11902">
        <ele>126.5</ele>
        <time>2014-07-12T16:43:42Z</time>
      </trkpt>
      <trkpt lat="49.03663" lon="1.11908">
        <ele>127.5</ele>
        <time>2014-07-12T16:43:47Z</time>
      </trkpt>
      <trkpt lat="49.03666" lon="1.11913">
        <ele>128.5</ele>
        <time>2014-07-12T16:43:59Z</time>
      </trkpt>
      <trkpt lat="49.03668" lon="1.1192">
        <ele>129.5</ele>
        <time>2014-07-12T16:44:02Z</time>
      </trkpt>
      <trkpt lat="49.03673" lon="1.11923">
        <ele>129.5</ele>
        <time>2014-07-12T16:44:05Z</time>
      </trkpt>
      <trkpt lat="49.03678" lon="1.11925">
        <ele>129.5</ele>
        <time>2014-07-12T16:44:08Z</time>
      </trkpt>
      <trkpt lat="49.03683" lon="1.11925">
        <ele>131.5</ele>
        <time>2014-07-12T16:44:11Z</time>
      </trkpt>
      <trkpt lat="49.03688" lon="1.11927">
        <ele>132.5</ele>
        <time>2014-07-12T16:44:14Z</time>
      </trkpt>
      <trkpt lat="49.03693" lon="1.11928">
        <ele>132.5</ele>
        <time>2014-07-12T16:44:17Z</time>
      </trkpt>
      <trkpt lat="49.03698" lon="1.11928">
        <ele>132.5</ele>
        <time>2014-07-12T16:44:20Z</time>
      </trkpt>
      <trkpt lat="49.03702" lon="1.11928">
        <ele>133.5</ele>
        <time>2014-07-12T16:44:23Z</time>
      </trkpt>
      <trkpt lat="49.03708" lon="1.11931">
        <ele>133.5</ele>
        <time>2014-07-12T16:44:26Z</time>
      </trkpt>
      <trkpt lat="49.03712" lon="1.11935">
        <ele>133.5</ele>
        <time>2014-07-12T16:44:29Z</time>
      </trkpt>
      <trkpt lat="49.03715" lon="1.1194">
        <ele>134.5</ele>
        <time>2014-07-12T16:44:38Z</time>
      </trkpt>
      <trkpt lat="49.03719" lon="1.11944">
        <ele>134.5</ele>
        <time>2014-07-12T16:45:00Z</time>
      </trkpt>
      <trkpt lat="49.03725" lon="1.1195">
        <ele>135.5</ele>
        <time>2014-07-12T16:45:03Z</time>
      </trkpt>
      <trkpt lat="49.0373" lon="1.11951">
        <ele>136.5</ele>
        <time>2014-07-12T16:45:05Z</time>
      </trkpt>
      <trkpt lat="49.03737" lon="1.11953">
        <ele>136.5</ele>
        <time>2014-07-12T16:45:08Z</time>
      </trkpt>
      <trkpt lat="49.03741" lon="1.11955">
        <ele>136.5</ele>
        <time>2014-07-12T16:45:10Z</time>
      </trkpt>
      <trkpt lat="49.03747" lon="1.11956">
        <ele>137.5</ele>
        <time>2014-07-12T16:45:12Z</time>
      </trkpt>
      <trkpt lat="49.03753" lon="1.1196">
        <ele>136.5</ele>
        <time>2014-07-12T16:45:14Z</time>
      </trkpt>
      <trkpt lat="49.03759" lon="1.11961">
        <ele>135.5</ele>
        <time>2014-07-12T16:45:16Z</time>
      </trkpt>
      <trkpt lat="49.03765" lon="1.11958">
        <ele>136.5</ele>
        <time>2014-07-12T16:45:18Z</time>
      </trkpt>
      <trkpt lat="49.03772" lon="1.11956">
        <ele>135.5</ele>
        <time>2014-07-12T16:45:20Z</time>
      </trkpt>
      <trkpt lat="49.03779" lon="1.11958">
        <ele>134.5</ele>
        <time>2014-07-12T16:45:22Z</time>
      </trkpt>
      <trkpt lat="49.03787" lon="1.11961">
        <ele>134.5</ele>
        <time>2014-07-12T16:45:24Z</time>
      </trkpt>
      <trkpt lat="49.03795" lon="1.11964">
        <ele>134.5</ele>
        <time>2014-07-12T16:45:26Z</time>
      </trkpt>
      <trkpt lat="49.03799" lon="1.11966">
        <ele>135.5</ele>
        <time>2014-07-12T16:45:27Z</time>
      </trkpt>
      <trkpt lat="49.03808" lon="1.11968">
        <ele>135.5</ele>
        <time>2014-07-12T16:45:29Z</time>
      </trkpt>
      <trkpt lat="49.03812" lon="1.11968">
        <ele>135.5</ele>
        <time>2014-07-12T16:45:30Z</time>
      </trkpt>
      <trkpt lat="49.03821" lon="1.11969">
        <ele>136.5</ele>
        <time>2014-07-12T16:45:32Z</time>
      </trkpt>
      <trkpt lat="49.03829" lon="1.11971">
        <ele>135.5</ele>
        <time>2014-07-12T16:45:34Z</time>
      </trkpt>
      <trkpt lat="49.03834" lon="1.11973">
        <ele>135.5</ele>
        <time>2014-07-12T16:45:35Z</time>
      </trkpt>
      <trkpt lat="49.03844" lon="1.11976">
        <ele>135.5</ele>
        <time>2014-07-12T16:45:36Z</time>
      </trkpt>
      <trkpt lat="49.0385" lon="1.11976">
        <ele>136.5</ele>
        <time>2014-07-12T16:45:38Z</time>
      </trkpt>
      <trkpt lat="49.03854" lon="1.11975">
        <ele>137.5</ele>
        <time>2014-07-12T16:45:40Z</time>
      </trkpt>
      <trkpt lat="49.0386" lon="1.11976">
        <ele>138.5</ele>
        <time>2014-07-12T16:45:43Z</time>
      </trkpt>
      <trkpt lat="49.03864" lon="1.11974">
        <ele>135.5</ele>
        <time>2014-07-12T16:45:48Z</time>
      </trkpt>
      <trkpt lat="49.03869" lon="1.11967">
        <ele>134.5</ele>
        <time>2014-07-12T16:45:51Z</time>
      </trkpt>
      <trkpt lat="49.03874" lon="1.1196">
        <ele>135.5</ele>
        <time>2014-07-12T16:45:53Z</time>
      </trkpt>
      <trkpt lat="49.0388" lon="1.11955">
        <ele>134.5</ele>
        <time>2014-07-12T16:45:55Z</time>
      </trkpt>
      <trkpt lat="49.03888" lon="1.11948">
        <ele>134.5</ele>
        <time>2014-07-12T16:45:57Z</time>
      </trkpt>
      <trkpt lat="49.03894" lon="1.1194">
        <ele>134.5</ele>
        <time>2014-07-12T16:45:59Z</time>
      </trkpt>
      <trkpt lat="49.039" lon="1.11931">
        <ele>135.5</ele>
        <time>2014-07-12T16:46:01Z</time>
      </trkpt>
      <trkpt lat="49.03908" lon="1.1192">
        <ele>134.5</ele>
        <time>2014-07-12T16:46:02Z</time>
      </trkpt>
      <trkpt lat="49.0391" lon="1.11912">
        <ele>135.5</ele>
        <time>2014-07-12T16:46:03Z</time>
      </trkpt>
      <trkpt lat="49.03912" lon="1.11905">
        <ele>135.5</ele>
        <time>2014-07-12T16:46:04Z</time>
      </trkpt>
      <trkpt lat="49.03916" lon="1.11899">
        <ele>135.5</ele>
        <time>2014-07-12T16:46:06Z</time>
      </trkpt>
      <trkpt lat="49.03915" lon="1.1189">
        <ele>136.5</ele>
        <time>2014-07-12T16:46:08Z</time>
      </trkpt>
      <trkpt lat="49.03919" lon="1.11887">
        <ele>137.5</ele>
        <time>2014-07-12T16:46:10Z</time>
      </trkpt>
      <trkpt lat="49.03923" lon="1.11877">
        <ele>136.5</ele>
        <time>2014-07-12T16:46:11Z</time>
      </trkpt>
      <trkpt lat="49.03927" lon="1.11869">
        <ele>136.5</ele>
        <time>2014-07-12T16:46:13Z</time>
      </trkpt>
      <trkpt lat="49.03929" lon="1.11858">
        <ele>136.5</ele>
        <time>2014-07-12T16:46:15Z</time>
      </trkpt>
      <trkpt lat="49.03933" lon="1.11847">
        <ele>136.5</ele>
        <time>2014-07-12T16:46:17Z</time>
      </trkpt>
      <trkpt lat="49.03936" lon="1.11838">
        <ele>136.5</ele>
        <time>2014-07-12T16:46:19Z</time>
      </trkpt>
      <trkpt lat="49.03935" lon="1.11825">
        <ele>136.5</ele>
        <time>2014-07-12T16:46:21Z</time>
      </trkpt>
      <trkpt lat="49.03935" lon="1.11816">
        <ele>135.5</ele>
        <time>2014-07-12T16:46:22Z</time>
      </trkpt>
      <trkpt lat="49.03935" lon="1.11805">
        <ele>135.5</ele>
        <time>2014-07-12T16:46:24Z</time>
      </trkpt>
      <trkpt lat="49.0393" lon="1.11805">
        <ele>136.5</ele>
        <time>2014-07-12T16:46:27Z</time>
      </trkpt>
      <trkpt lat="49.03934" lon="1.11797">
        <ele>136.5</ele>
        <time>2014-07-12T16:46:29Z</time>
      </trkpt>
      <trkpt lat="49.03938" lon="1.11793">
        <ele>137.5</ele>
        <time>2014-07-12T16:46:31Z</time>
      </trkpt>
      <trkpt lat="49.03943" lon="1.1179">
        <ele>137.5</ele>
        <time>2014-07-12T16:46:35Z</time>
      </trkpt>
      <trkpt lat="49.03949" lon="1.11788">
        <ele>138.5</ele>
        <time>2014-07-12T16:46:38Z</time>
      </trkpt>
      <trkpt lat="49.03954" lon="1.11783">
        <ele>138.5</ele>
        <time>2014-07-12T16:46:41Z</time>
      </trkpt>
      <trkpt lat="49.03956" lon="1.11777">
        <ele>138.5</ele>
        <time>2014-07-12T16:46:43Z</time>
      </trkpt>
      <trkpt lat="49.03959" lon="1.11769">
        <ele>138.5</ele>
        <time>2014-07-12T16:46:45Z</time>
      </trkpt>
      <trkpt lat="49.03961" lon="1.11763">
        <ele>138.5</ele>
        <time>2014-07-12T16:46:47Z</time>
      </trkpt>
      <trkpt lat="49.03963" lon="1.11754">
        <ele>137.5</ele>
        <time>2014-07-12T16:46:49Z</time>
      </trkpt>
      <trkpt lat="49.03965" lon="1.11744">
        <ele>137.5</ele>
        <time>2014-07-12T16:46:51Z</time>
      </trkpt>
      <trkpt lat="49.03967" lon="1.11733">
        <ele>136.5</ele>
        <time>2014-07-12T16:46:53Z</time>
      </trkpt>
      <trkpt lat="49.03969" lon="1.11722">
        <ele>136.5</ele>
        <time>2014-07-12T16:46:55Z</time>
      </trkpt>
      <trkpt lat="49.03971" lon="1.11709">
        <ele>136.5</ele>
        <time>2014-07-12T16:46:57Z</time>
      </trkpt>
      <trkpt lat="49.03972" lon="1.11702">
        <ele>135.5</ele>
        <time>2014-07-12T16:46:58Z</time>
      </trkpt>
      <trkpt lat="49.03973" lon="1.11689">
        <ele>135.5</ele>
        <time>2014-07-12T16:47:00Z</time>
      </trkpt>
      <trkpt lat="49.03974" lon="1.11678">
        <ele>135.5</ele>
        <time>2014-07-12T16:47:02Z</time>
      </trkpt>
      <trkpt lat="49.03974" lon="1.11666">
        <ele>136.5</ele>
        <time>2014-07-12T16:47:04Z</time>
      </trkpt>
      <trkpt lat="49.03976" lon="1.11655">
        <ele>133.5</ele>
        <time>2014-07-12T16:47:06Z</time>
      </trkpt>
      <trkpt lat="49.03978" lon="1.11643">
        <ele>132.5</ele>
        <time>2014-07-12T16:47:08Z</time>
      </trkpt>
      <trkpt lat="49.03979" lon="1.1163">
        <ele>133.5</ele>
        <time>2014-07-12T16:47:10Z</time>
      </trkpt>
      <trkpt lat="49.03979" lon="1.11623">
        <ele>132.5</ele>
        <time>2014-07-12T16:47:11Z</time>
      </trkpt>
      <trkpt lat="49.0398" lon="1.11611">
        <ele>136.5</ele>
        <time>2014-07-12T16:47:13Z</time>
      </trkpt>
      <trkpt lat="49.03981" lon="1.11603">
        <ele>136.5</ele>
        <time>2014-07-12T16:47:14Z</time>
      </trkpt>
      <trkpt lat="49.03983" lon="1.1159">
        <ele>137.5</ele>
        <time>2014-07-12T16:47:16Z</time>
      </trkpt>
      <trkpt lat="49.03983" lon="1.11577">
        <ele>136.5</ele>
        <time>2014-07-12T16:47:18Z</time>
      </trkpt>
      <trkpt lat="49.03983" lon="1.11566">
        <ele>137.5</ele>
        <time>2014-07-12T16:47:20Z</time>
      </trkpt>
      <trkpt lat="49.03982" lon="1.11555">
        <ele>137.5</ele>
        <time>2014-07-12T16:47:22Z</time>
      </trkpt>
      <trkpt lat="49.03983" lon="1.11543">
        <ele>136.5</ele>
        <time>2014-07-12T16:47:24Z</time>
      </trkpt>
      <trkpt lat="49.03984" lon="1.11532">
        <ele>137.5</ele>
        <time>2014-07-12T16:47:26Z</time>
      </trkpt>
      <trkpt lat="49.03984" lon="1.11521">
        <ele>136.5</ele>
        <time>2014-07-12T16:47:28Z</time>
      </trkpt>
      <trkpt lat="49.03986" lon="1.11507">
        <ele>138.5</ele>
        <time>2014-07-12T16:47:30Z</time>
      </trkpt>
      <trkpt lat="49.03988" lon="1.115">
        <ele>139.5</ele>
        <time>2014-07-12T16:47:31Z</time>
      </trkpt>
      <trkpt lat="49.0399" lon="1.11492">
        <ele>139.5</ele>
        <time>2014-07-12T16:47:32Z</time>
      </trkpt>
      <trkpt lat="49.03993" lon="1.11482">
        <ele>140.5</ele>
        <time>2014-07-12T16:47:33Z</time>
      </trkpt>
      <trkpt lat="49.04004" lon="1.11458">
        <ele>139.5</ele>
        <time>2014-07-12T16:47:34Z</time>
      </trkpt>
      <trkpt lat="49.04005" lon="1.11449">
        <ele>139.5</ele>
        <time>2014-07-12T16:47:35Z</time>
      </trkpt>
      <trkpt lat="49.04007" lon="1.11441">
        <ele>140.5</ele>
        <time>2014-07-12T16:47:36Z</time>
      </trkpt>
      <trkpt lat="49.04009" lon="1.11435">
        <ele>139.5</ele>
        <time>2014-07-12T16:47:37Z</time>
      </trkpt>
      <trkpt lat="49.0401" lon="1.11426">
        <ele>140.5</ele>
        <time>2014-07-12T16:47:38Z</time>
      </trkpt>
      <trkpt lat="49.04012" lon="1.11418">
        <ele>139.5</ele>
        <time>2014-07-12T16:47:39Z</time>
      </trkpt>
      <trkpt lat="49.04014" lon="1.11411">
        <ele>140.5</ele>
        <time>2014-07-12T16:47:40Z</time>
      </trkpt>
      <trkpt lat="49.04021" lon="1.114">
        <ele>140.5</ele>
        <time>2014-07-12T16:47:41Z</time>
      </trkpt>
      <trkpt lat="49.0403" lon="1.11392">
        <ele>140.5</ele>
        <time>2014-07-12T16:47:42Z</time>
      </trkpt>
      <trkpt lat="49.04037" lon="1.1139">
        <ele>140.5</ele>
        <time>2014-07-12T16:47:43Z</time>
      </trkpt>
      <trkpt lat="49.04043" lon="1.11388">
        <ele>140.5</ele>
        <time>2014-07-12T16:47:44Z</time>
      </trkpt>
      <trkpt lat="49.04048" lon="1.11388">
        <ele>140.5</ele>
        <time>2014-07-12T16:47:45Z</time>
      </trkpt>
      <trkpt lat="49.04055" lon="1.11388">
        <ele>141.5</ele>
        <time>2014-07-12T16:47:47Z</time>
      </trkpt>
      <trkpt lat="49.04063" lon="1.11389">
        <ele>140.5</ele>
        <time>2014-07-12T16:47:49Z</time>
      </trkpt>
      <trkpt lat="49.04069" lon="1.1139">
        <ele>140.5</ele>
        <time>2014-07-12T16:47:51Z</time>
      </trkpt>
      <trkpt lat="49.04074" lon="1.11393">
        <ele>141.5</ele>
        <time>2014-07-12T16:47:53Z</time>
      </trkpt>
      <trkpt lat="49.04078" lon="1.11396">
        <ele>141.5</ele>
        <time>2014-07-12T16:47:54Z</time>
      </trkpt>
      <trkpt lat="49.04085" lon="1.114">
        <ele>141.5</ele>
        <time>2014-07-12T16:47:57Z</time>
      </trkpt>
      <trkpt lat="49.04092" lon="1.11405">
        <ele>142.5</ele>
        <time>2014-07-12T16:47:58Z</time>
      </trkpt>
      <trkpt lat="49.041" lon="1.11411">
        <ele>142.5</ele>
        <time>2014-07-12T16:48:00Z</time>
      </trkpt>
      <trkpt lat="49.04104" lon="1.11413">
        <ele>141.5</ele>
        <time>2014-07-12T16:48:01Z</time>
      </trkpt>
      <trkpt lat="49.04108" lon="1.11417">
        <ele>141.5</ele>
        <time>2014-07-12T16:48:02Z</time>
      </trkpt>
      <trkpt lat="49.04111" lon="1.11422">
        <ele>141.5</ele>
        <time>2014-07-12T16:48:03Z</time>
      </trkpt>
      <trkpt lat="49.04115" lon="1.11427">
        <ele>140.5</ele>
        <time>2014-07-12T16:48:04Z</time>
      </trkpt>
      <trkpt lat="49.04118" lon="1.11433">
        <ele>142.5</ele>
        <time>2014-07-12T16:48:05Z</time>
      </trkpt>
      <trkpt lat="49.04125" lon="1.11441">
        <ele>141.5</ele>
        <time>2014-07-12T16:48:07Z</time>
      </trkpt>
      <trkpt lat="49.0413" lon="1.11448">
        <ele>141.5</ele>
        <time>2014-07-12T16:48:09Z</time>
      </trkpt>
      <trkpt lat="49.04134" lon="1.11456">
        <ele>142.5</ele>
        <time>2014-07-12T16:48:11Z</time>
      </trkpt>
      <trkpt lat="49.04139" lon="1.11466">
        <ele>142.5</ele>
        <time>2014-07-12T16:48:13Z</time>
      </trkpt>
      <trkpt lat="49.04144" lon="1.11472">
        <ele>142.5</ele>
        <time>2014-07-12T16:48:14Z</time>
      </trkpt>
      <trkpt lat="49.04149" lon="1.11479">
        <ele>141.5</ele>
        <time>2014-07-12T16:48:15Z</time>
      </trkpt>
      <trkpt lat="49.04161" lon="1.115">
        <ele>141.5</ele>
        <time>2014-07-12T16:48:16Z</time>
      </trkpt>
      <trkpt lat="49.04167" lon="1.11509">
        <ele>141.5</ele>
        <time>2014-07-12T16:48:17Z</time>
      </trkpt>
      <trkpt lat="49.04172" lon="1.11512">
        <ele>142.5</ele>
        <time>2014-07-12T16:48:19Z</time>
      </trkpt>
      <trkpt lat="49.04181" lon="1.11517">
        <ele>140.5</ele>
        <time>2014-07-12T16:48:21Z</time>
      </trkpt>
      <trkpt lat="49.04186" lon="1.11525">
        <ele>141.5</ele>
        <time>2014-07-12T16:48:23Z</time>
      </trkpt>
      <trkpt lat="49.04189" lon="1.11534">
        <ele>140.5</ele>
        <time>2014-07-12T16:48:26Z</time>
      </trkpt>
      <trkpt lat="49.04191" lon="1.11541">
        <ele>141.5</ele>
        <time>2014-07-12T16:48:27Z</time>
      </trkpt>
      <trkpt lat="49.04192" lon="1.11549">
        <ele>141.5</ele>
        <time>2014-07-12T16:48:28Z</time>
      </trkpt>
      <trkpt lat="49.04192" lon="1.11557">
        <ele>139.5</ele>
        <time>2014-07-12T16:48:29Z</time>
      </trkpt>
      <trkpt lat="49.04192" lon="1.11567">
        <ele>139.5</ele>
        <time>2014-07-12T16:48:31Z</time>
      </trkpt>
      <trkpt lat="49.04195" lon="1.11576">
        <ele>139.5</ele>
        <time>2014-07-12T16:48:33Z</time>
      </trkpt>
      <trkpt lat="49.04202" lon="1.11581">
        <ele>140.5</ele>
        <time>2014-07-12T16:48:35Z</time>
      </trkpt>
      <trkpt lat="49.04209" lon="1.11584">
        <ele>141.5</ele>
        <time>2014-07-12T16:48:37Z</time>
      </trkpt>
      <trkpt lat="49.04216" lon="1.11589">
        <ele>141.5</ele>
        <time>2014-07-12T16:48:39Z</time>
      </trkpt>
      <trkpt lat="49.04219" lon="1.11593">
        <ele>140.5</ele>
        <time>2014-07-12T16:48:40Z</time>
      </trkpt>
      <trkpt lat="49.04223" lon="1.11599">
        <ele>140.5</ele>
        <time>2014-07-12T16:48:41Z</time>
      </trkpt>
      <trkpt lat="49.04227" lon="1.11605">
        <ele>140.5</ele>
        <time>2014-07-12T16:48:42Z</time>
      </trkpt>
      <trkpt lat="49.04231" lon="1.11611">
        <ele>140.5</ele>
        <time>2014-07-12T16:48:43Z</time>
      </trkpt>
      <trkpt lat="49.04235" lon="1.11618">
        <ele>141.5</ele>
        <time>2014-07-12T16:48:44Z</time>
      </trkpt>
      <trkpt lat="49.04245" lon="1.11634">
        <ele>140.5</ele>
        <time>2014-07-12T16:48:45Z</time>
      </trkpt>
      <trkpt lat="49.0425" lon="1.1164">
        <ele>141.5</ele>
        <time>2014-07-12T16:48:46Z</time>
      </trkpt>
      <trkpt lat="49.04252" lon="1.11645">
        <ele>141.5</ele>
        <time>2014-07-12T16:48:48Z</time>
      </trkpt>
      <trkpt lat="49.04256" lon="1.11653">
        <ele>141.5</ele>
        <time>2014-07-12T16:48:49Z</time>
      </trkpt>
      <trkpt lat="49.04259" lon="1.11659">
        <ele>141.5</ele>
        <time>2014-07-12T16:48:50Z</time>
      </trkpt>
      <trkpt lat="49.04263" lon="1.11662">
        <ele>142.5</ele>
        <time>2014-07-12T16:48:51Z</time>
      </trkpt>
      <trkpt lat="49.04268" lon="1.11666">
        <ele>141.5</ele>
        <time>2014-07-12T16:48:52Z</time>
      </trkpt>
      <trkpt lat="49.04275" lon="1.11676">
        <ele>141.5</ele>
        <time>2014-07-12T16:48:54Z</time>
      </trkpt>
      <trkpt lat="49.04279" lon="1.11683">
        <ele>141.5</ele>
        <time>2014-07-12T16:48:56Z</time>
      </trkpt>
      <trkpt lat="49.04283" lon="1.11687">
        <ele>140.5</ele>
        <time>2014-07-12T16:48:57Z</time>
      </trkpt>
      <trkpt lat="49.04287" lon="1.11692">
        <ele>140.5</ele>
        <time>2014-07-12T16:48:58Z</time>
      </trkpt>
      <trkpt lat="49.04293" lon="1.11701">
        <ele>140.5</ele>
        <time>2014-07-12T16:49:00Z</time>
      </trkpt>
      <trkpt lat="49.04296" lon="1.11706">
        <ele>140.5</ele>
        <time>2014-07-12T16:49:01Z</time>
      </trkpt>
      <trkpt lat="49.043" lon="1.11717">
        <ele>139.5</ele>
        <time>2014-07-12T16:49:03Z</time>
      </trkpt>
      <trkpt lat="49.04302" lon="1.11725">
        <ele>140.5</ele>
        <time>2014-07-12T16:49:04Z</time>
      </trkpt>
      <trkpt lat="49.04303" lon="1.11733">
        <ele>139.5</ele>
        <time>2014-07-12T16:49:05Z</time>
      </trkpt>
      <trkpt lat="49.04303" lon="1.11742">
        <ele>139.5</ele>
        <time>2014-07-12T16:49:06Z</time>
      </trkpt>
      <trkpt lat="49.04302" lon="1.11749">
        <ele>140.5</ele>
        <time>2014-07-12T16:49:07Z</time>
      </trkpt>
      <trkpt lat="49.043" lon="1.11757">
        <ele>141.5</ele>
        <time>2014-07-12T16:49:08Z</time>
      </trkpt>
      <trkpt lat="49.04297" lon="1.11763">
        <ele>140.5</ele>
        <time>2014-07-12T16:49:09Z</time>
      </trkpt>
      <trkpt lat="49.04294" lon="1.11768">
        <ele>141.5</ele>
        <time>2014-07-12T16:49:10Z</time>
      </trkpt>
      <trkpt lat="49.04291" lon="1.11774">
        <ele>141.5</ele>
        <time>2014-07-12T16:49:11Z</time>
      </trkpt>
      <trkpt lat="49.04289" lon="1.11779">
        <ele>141.5</ele>
        <time>2014-07-12T16:49:12Z</time>
      </trkpt>
      <trkpt lat="49.04286" lon="1.11788">
        <ele>142.5</ele>
        <time>2014-07-12T16:49:14Z</time>
      </trkpt>
      <trkpt lat="49.04285" lon="1.1179">
        <ele>141.5</ele>
        <time>2014-07-12T16:49:15Z</time>
      </trkpt>
      <trkpt lat="49.04281" lon="1.11794">
        <ele>141.5</ele>
        <time>2014-07-12T16:49:19Z</time>
      </trkpt>
      <trkpt lat="49.04277" lon="1.11796">
        <ele>144.5</ele>
        <time>2014-07-12T16:49:34Z</time>
      </trkpt>
      <trkpt lat="49.04276" lon="1.11797">
        <ele>151.5</ele>
        <time>2014-07-12T16:50:18Z</time>
      </trkpt>
      <trkpt lat="49.04277" lon="1.11804">
        <ele>156.5</ele>
        <time>2014-07-12T16:50:33Z</time>
      </trkpt>
      <trkpt lat="49.04276" lon="1.11813">
        <ele>156.5</ele>
        <time>2014-07-12T16:50:42Z</time>
      </trkpt>
      <trkpt lat="49.04274" lon="1.11824">
        <ele>153.5</ele>
        <time>2014-07-12T16:50:44Z</time>
      </trkpt>
      <trkpt lat="49.04274" lon="1.11835">
        <ele>153.5</ele>
        <time>2014-07-12T16:50:46Z</time>
      </trkpt>
      <trkpt lat="49.04276" lon="1.11846">
        <ele>152.5</ele>
        <time>2014-07-12T16:50:48Z</time>
      </trkpt>
      <trkpt lat="49.04277" lon="1.11857">
        <ele>149.5</ele>
        <time>2014-07-12T16:50:50Z</time>
      </trkpt>
      <trkpt lat="49.04279" lon="1.11866">
        <ele>146.5</ele>
        <time>2014-07-12T16:50:52Z</time>
      </trkpt>
      <trkpt lat="49.04282" lon="1.11876">
        <ele>143.5</ele>
        <time>2014-07-12T16:50:54Z</time>
      </trkpt>
      <trkpt lat="49.04288" lon="1.11891">
        <ele>140.5</ele>
        <time>2014-07-12T16:50:57Z</time>
      </trkpt>
      <trkpt lat="49.0429" lon="1.11898">
        <ele>140.5</ele>
        <time>2014-07-12T16:50:58Z</time>
      </trkpt>
      <trkpt lat="49.04294" lon="1.1191">
        <ele>139.5</ele>
        <time>2014-07-12T16:51:00Z</time>
      </trkpt>
      <trkpt lat="49.04297" lon="1.1192">
        <ele>144.5</ele>
        <time>2014-07-12T16:51:02Z</time>
      </trkpt>
      <trkpt lat="49.04299" lon="1.11931">
        <ele>145.5</ele>
        <time>2014-07-12T16:51:04Z</time>
      </trkpt>
      <trkpt lat="49.04302" lon="1.11943">
        <ele>145.5</ele>
        <time>2014-07-12T16:51:06Z</time>
      </trkpt>
      <trkpt lat="49.04306" lon="1.11956">
        <ele>145.5</ele>
        <time>2014-07-12T16:51:08Z</time>
      </trkpt>
      <trkpt lat="49.04308" lon="1.11962">
        <ele>145.5</ele>
        <time>2014-07-12T16:51:09Z</time>
      </trkpt>
      <trkpt lat="49.04313" lon="1.11974">
        <ele>145.5</ele>
        <time>2014-07-12T16:51:11Z</time>
      </trkpt>
      <trkpt lat="49.04315" lon="1.1198">
        <ele>145.5</ele>
        <time>2014-07-12T16:51:12Z</time>
      </trkpt>
      <trkpt lat="49.04318" lon="1.11986">
        <ele>145.5</ele>
        <time>2014-07-12T16:51:13Z</time>
      </trkpt>
      <trkpt lat="49.04321" lon="1.11992">
        <ele>145.5</ele>
        <time>2014-07-12T16:51:14Z</time>
      </trkpt>
      <trkpt lat="49.04323" lon="1.12">
        <ele>146.5</ele>
        <time>2014-07-12T16:51:15Z</time>
      </trkpt>
      <trkpt lat="49.04324" lon="1.12007">
        <ele>146.5</ele>
        <time>2014-07-12T16:51:16Z</time>
      </trkpt>
      <trkpt lat="49.04326" lon="1.12015">
        <ele>146.5</ele>
        <time>2014-07-12T16:51:17Z</time>
      </trkpt>
      <trkpt lat="49.04328" lon="1.12025">
        <ele>145.5</ele>
        <time>2014-07-12T16:51:19Z</time>
      </trkpt>
      <trkpt lat="49.04331" lon="1.12034">
        <ele>144.5</ele>
        <time>2014-07-12T16:51:21Z</time>
      </trkpt>
      <trkpt lat="49.04334" lon="1.12045">
        <ele>144.5</ele>
        <time>2014-07-12T16:51:23Z</time>
      </trkpt>
      <trkpt lat="49.04338" lon="1.12057">
        <ele>145.5</ele>
        <time>2014-07-12T16:51:25Z</time>
      </trkpt>
      <trkpt lat="49.04342" lon="1.12068">
        <ele>145.5</ele>
        <time>2014-07-12T16:51:27Z</time>
      </trkpt>
      <trkpt lat="49.04348" lon="1.12079">
        <ele>145.5</ele>
        <time>2014-07-12T16:51:29Z</time>
      </trkpt>
      <trkpt lat="49.0435" lon="1.12085">
        <ele>145.5</ele>
        <time>2014-07-12T16:51:30Z</time>
      </trkpt>
      <trkpt lat="49.04355" lon="1.12097">
        <ele>145.5</ele>
        <time>2014-07-12T16:51:32Z</time>
      </trkpt>
      <trkpt lat="49.04356" lon="1.12115">
        <ele>145.5</ele>
        <time>2014-07-12T16:51:35Z</time>
      </trkpt>
      <trkpt lat="49.04353" lon="1.12125">
        <ele>144.5</ele>
        <time>2014-07-12T16:51:37Z</time>
      </trkpt>
      <trkpt lat="49.04352" lon="1.12133">
        <ele>145.5</ele>
        <time>2014-07-12T16:51:39Z</time>
      </trkpt>
      <trkpt lat="49.0435" lon="1.12141">
        <ele>144.5</ele>
        <time>2014-07-12T16:51:41Z</time>
      </trkpt>
      <trkpt lat="49.04347" lon="1.12151">
        <ele>144.5</ele>
        <time>2014-07-12T16:51:43Z</time>
      </trkpt>
      <trkpt lat="49.04347" lon="1.12161">
        <ele>144.5</ele>
        <time>2014-07-12T16:51:45Z</time>
      </trkpt>
      <trkpt lat="49.04346" lon="1.12171">
        <ele>144.5</ele>
        <time>2014-07-12T16:51:47Z</time>
      </trkpt>
      <trkpt lat="49.04344" lon="1.12179">
        <ele>144.5</ele>
        <time>2014-07-12T16:51:49Z</time>
      </trkpt>
      <trkpt lat="49.04342" lon="1.12186">
        <ele>146.5</ele>
        <time>2014-07-12T16:51:51Z</time>
      </trkpt>
      <trkpt lat="49.04343" lon="1.12195">
        <ele>147.5</ele>
        <time>2014-07-12T16:51:53Z</time>
      </trkpt>
      <trkpt lat="49.04344" lon="1.12204">
        <ele>148.5</ele>
        <time>2014-07-12T16:51:55Z</time>
      </trkpt>
      <trkpt lat="49.04343" lon="1.12211">
        <ele>148.5</ele>
        <time>2014-07-12T16:51:57Z</time>
      </trkpt>
      <trkpt lat="49.04341" lon="1.12221">
        <ele>148.5</ele>
        <time>2014-07-12T16:51:59Z</time>
      </trkpt>
      <trkpt lat="49.04339" lon="1.12231">
        <ele>148.5</ele>
        <time>2014-07-12T16:52:01Z</time>
      </trkpt>
      <trkpt lat="49.04336" lon="1.1224">
        <ele>148.5</ele>
        <time>2014-07-12T16:52:03Z</time>
      </trkpt>
      <trkpt lat="49.04331" lon="1.12249">
        <ele>148.5</ele>
        <time>2014-07-12T16:52:05Z</time>
      </trkpt>
      <trkpt lat="49.04329" lon="1.12259">
        <ele>149.5</ele>
        <time>2014-07-12T16:52:07Z</time>
      </trkpt>
      <trkpt lat="49.04329" lon="1.12271">
        <ele>148.5</ele>
        <time>2014-07-12T16:52:09Z</time>
      </trkpt>
      <trkpt lat="49.04328" lon="1.12282">
        <ele>147.5</ele>
        <time>2014-07-12T16:52:11Z</time>
      </trkpt>
      <trkpt lat="49.04326" lon="1.12294">
        <ele>149.5</ele>
        <time>2014-07-12T16:52:13Z</time>
      </trkpt>
      <trkpt lat="49.04323" lon="1.12305">
        <ele>149.5</ele>
        <time>2014-07-12T16:52:15Z</time>
      </trkpt>
      <trkpt lat="49.04319" lon="1.12315">
        <ele>149.5</ele>
        <time>2014-07-12T16:52:17Z</time>
      </trkpt>
      <trkpt lat="49.04319" lon="1.12324">
        <ele>149.5</ele>
        <time>2014-07-12T16:52:19Z</time>
      </trkpt>
      <trkpt lat="49.04318" lon="1.12333">
        <ele>150.5</ele>
        <time>2014-07-12T16:52:21Z</time>
      </trkpt>
      <trkpt lat="49.04315" lon="1.12338">
        <ele>151.5</ele>
        <time>2014-07-12T16:52:23Z</time>
      </trkpt>
      <trkpt lat="49.04312" lon="1.12344">
        <ele>150.5</ele>
        <time>2014-07-12T16:52:27Z</time>
      </trkpt>
      <trkpt lat="49.04309" lon="1.1235">
        <ele>150.5</ele>
        <time>2014-07-12T16:52:38Z</time>
      </trkpt>
      <trkpt lat="49.04304" lon="1.12357">
        <ele>151.5</ele>
        <time>2014-07-12T16:52:42Z</time>
      </trkpt>
      <trkpt lat="49.04299" lon="1.12363">
        <ele>150.5</ele>
        <time>2014-07-12T16:52:45Z</time>
      </trkpt>
      <trkpt lat="49.04293" lon="1.12366">
        <ele>150.5</ele>
        <time>2014-07-12T16:52:48Z</time>
      </trkpt>
      <trkpt lat="49.04287" lon="1.1237">
        <ele>150.5</ele>
        <time>2014-07-12T16:52:50Z</time>
      </trkpt>
      <trkpt lat="49.04281" lon="1.12373">
        <ele>150.5</ele>
        <time>2014-07-12T16:52:52Z</time>
      </trkpt>
      <trkpt lat="49.04275" lon="1.12377">
        <ele>152.5</ele>
        <time>2014-07-12T16:52:54Z</time>
      </trkpt>
      <trkpt lat="49.04268" lon="1.12378">
        <ele>151.5</ele>
        <time>2014-07-12T16:52:56Z</time>
      </trkpt>
      <trkpt lat="49.04264" lon="1.12373">
        <ele>151.5</ele>
        <time>2014-07-12T16:52:58Z</time>
      </trkpt>
      <trkpt lat="49.04261" lon="1.12366">
        <ele>151.5</ele>
        <time>2014-07-12T16:53:02Z</time>
      </trkpt>
      <trkpt lat="49.04258" lon="1.12356">
        <ele>151.5</ele>
        <time>2014-07-12T16:53:05Z</time>
      </trkpt>
      <trkpt lat="49.04256" lon="1.12347">
        <ele>151.5</ele>
        <time>2014-07-12T16:53:08Z</time>
      </trkpt>
      <trkpt lat="49.04254" lon="1.12339">
        <ele>151.5</ele>
        <time>2014-07-12T16:53:11Z</time>
      </trkpt>
      <trkpt lat="49.0425" lon="1.1233">
        <ele>152.5</ele>
        <time>2014-07-12T16:53:13Z</time>
      </trkpt>
      <trkpt lat="49.04246" lon="1.12322">
        <ele>152.5</ele>
        <time>2014-07-12T16:53:16Z</time>
      </trkpt>
      <trkpt lat="49.04242" lon="1.12313">
        <ele>151.5</ele>
        <time>2014-07-12T16:53:17Z</time>
      </trkpt>
      <trkpt lat="49.04239" lon="1.12303">
        <ele>151.5</ele>
        <time>2014-07-12T16:53:19Z</time>
      </trkpt>
      <trkpt lat="49.04239" lon="1.12293">
        <ele>151.5</ele>
        <time>2014-07-12T16:53:21Z</time>
      </trkpt>
      <trkpt lat="49.04238" lon="1.12282">
        <ele>151.5</ele>
        <time>2014-07-12T16:53:23Z</time>
      </trkpt>
      <trkpt lat="49.04236" lon="1.12272">
        <ele>151.5</ele>
        <time>2014-07-12T16:53:25Z</time>
      </trkpt>
      <trkpt lat="49.04235" lon="1.12267">
        <ele>151.5</ele>
        <time>2014-07-12T16:53:26Z</time>
      </trkpt>
      <trkpt lat="49.04233" lon="1.12252">
        <ele>152.5</ele>
        <time>2014-07-12T16:53:28Z</time>
      </trkpt>
      <trkpt lat="49.04234" lon="1.12244">
        <ele>152.5</ele>
        <time>2014-07-12T16:53:29Z</time>
      </trkpt>
      <trkpt lat="49.04236" lon="1.12235">
        <ele>151.5</ele>
        <time>2014-07-12T16:53:30Z</time>
      </trkpt>
      <trkpt lat="49.0424" lon="1.12217">
        <ele>152.5</ele>
        <time>2014-07-12T16:53:31Z</time>
      </trkpt>
      <trkpt lat="49.04239" lon="1.12201">
        <ele>152.5</ele>
        <time>2014-07-12T16:53:33Z</time>
      </trkpt>
      <trkpt lat="49.04239" lon="1.12193">
        <ele>151.5</ele>
        <time>2014-07-12T16:53:34Z</time>
      </trkpt>
      <trkpt lat="49.04235" lon="1.12182">
        <ele>151.5</ele>
        <time>2014-07-12T16:53:35Z</time>
      </trkpt>
      <trkpt lat="49.0423" lon="1.12172">
        <ele>150.5</ele>
        <time>2014-07-12T16:53:36Z</time>
      </trkpt>
      <trkpt lat="49.04227" lon="1.12161">
        <ele>150.5</ele>
        <time>2014-07-12T16:53:38Z</time>
      </trkpt>
      <trkpt lat="49.04222" lon="1.12144">
        <ele>150.5</ele>
        <time>2014-07-12T16:53:39Z</time>
      </trkpt>
      <trkpt lat="49.04219" lon="1.12135">
        <ele>150.5</ele>
        <time>2014-07-12T16:53:40Z</time>
      </trkpt>
      <trkpt lat="49.04217" lon="1.12127">
        <ele>150.5</ele>
        <time>2014-07-12T16:53:41Z</time>
      </trkpt>
      <trkpt lat="49.04215" lon="1.12117">
        <ele>151.5</ele>
        <time>2014-07-12T16:53:42Z</time>
      </trkpt>
      <trkpt lat="49.04209" lon="1.1211">
        <ele>150.5</ele>
        <time>2014-07-12T16:53:43Z</time>
      </trkpt>
      <trkpt lat="49.04206" lon="1.121">
        <ele>151.5</ele>
        <time>2014-07-12T16:53:44Z</time>
      </trkpt>
      <trkpt lat="49.042" lon="1.12092">
        <ele>151.5</ele>
        <time>2014-07-12T16:53:46Z</time>
      </trkpt>
      <trkpt lat="49.04197" lon="1.12086">
        <ele>149.5</ele>
        <time>2014-07-12T16:53:47Z</time>
      </trkpt>
      <trkpt lat="49.04192" lon="1.12078">
        <ele>149.5</ele>
        <time>2014-07-12T16:53:48Z</time>
      </trkpt>
      <trkpt lat="49.04187" lon="1.12071">
        <ele>149.5</ele>
        <time>2014-07-12T16:53:49Z</time>
      </trkpt>
      <trkpt lat="49.04184" lon="1.12062">
        <ele>149.5</ele>
        <time>2014-07-12T16:53:50Z</time>
      </trkpt>
      <trkpt lat="49.04182" lon="1.12054">
        <ele>149.5</ele>
        <time>2014-07-12T16:53:51Z</time>
      </trkpt>
      <trkpt lat="49.04176" lon="1.12048">
        <ele>149.5</ele>
        <time>2014-07-12T16:53:52Z</time>
      </trkpt>
      <trkpt lat="49.04171" lon="1.1204">
        <ele>149.5</ele>
        <time>2014-07-12T16:53:53Z</time>
      </trkpt>
      <trkpt lat="49.04165" lon="1.12033">
        <ele>149.5</ele>
        <time>2014-07-12T16:53:54Z</time>
      </trkpt>
      <trkpt lat="49.04162" lon="1.12022">
        <ele>149.5</ele>
        <time>2014-07-12T16:53:55Z</time>
      </trkpt>
      <trkpt lat="49.04158" lon="1.12018">
        <ele>148.5</ele>
        <time>2014-07-12T16:53:56Z</time>
      </trkpt>
      <trkpt lat="49.04154" lon="1.12013">
        <ele>147.5</ele>
        <time>2014-07-12T16:53:57Z</time>
      </trkpt>
      <trkpt lat="49.0415" lon="1.12008">
        <ele>147.5</ele>
        <time>2014-07-12T16:53:58Z</time>
      </trkpt>
      <trkpt lat="49.04145" lon="1.12">
        <ele>146.5</ele>
        <time>2014-07-12T16:53:59Z</time>
      </trkpt>
      <trkpt lat="49.04143" lon="1.11992">
        <ele>147.5</ele>
        <time>2014-07-12T16:54:00Z</time>
      </trkpt>
      <trkpt lat="49.0414" lon="1.11986">
        <ele>146.5</ele>
        <time>2014-07-12T16:54:01Z</time>
      </trkpt>
      <trkpt lat="49.04136" lon="1.1198">
        <ele>147.5</ele>
        <time>2014-07-12T16:54:02Z</time>
      </trkpt>
      <trkpt lat="49.04131" lon="1.11975">
        <ele>147.5</ele>
        <time>2014-07-12T16:54:03Z</time>
      </trkpt>
      <trkpt lat="49.04125" lon="1.11968">
        <ele>146.5</ele>
        <time>2014-07-12T16:54:05Z</time>
      </trkpt>
      <trkpt lat="49.04122" lon="1.11962">
        <ele>147.5</ele>
        <time>2014-07-12T16:54:06Z</time>
      </trkpt>
      <trkpt lat="49.04119" lon="1.11955">
        <ele>146.5</ele>
        <time>2014-07-12T16:54:07Z</time>
      </trkpt>
      <trkpt lat="49.04115" lon="1.11949">
        <ele>147.5</ele>
        <time>2014-07-12T16:54:08Z</time>
      </trkpt>
      <trkpt lat="49.04111" lon="1.11944">
        <ele>147.5</ele>
        <time>2014-07-12T16:54:10Z</time>
      </trkpt>
      <trkpt lat="49.04102" lon="1.11934">
        <ele>147.5</ele>
        <time>2014-07-12T16:54:11Z</time>
      </trkpt>
      <trkpt lat="49.04095" lon="1.11924">
        <ele>147.5</ele>
        <time>2014-07-12T16:54:13Z</time>
      </trkpt>
      <trkpt lat="49.04091" lon="1.11915">
        <ele>146.5</ele>
        <time>2014-07-12T16:54:15Z</time>
      </trkpt>
      <trkpt lat="49.04088" lon="1.1191">
        <ele>147.5</ele>
        <time>2014-07-12T16:54:17Z</time>
      </trkpt>
      <trkpt lat="49.0408" lon="1.11906">
        <ele>147.5</ele>
        <time>2014-07-12T16:54:19Z</time>
      </trkpt>
      <trkpt lat="49.04075" lon="1.11904">
        <ele>146.5</ele>
        <time>2014-07-12T16:54:20Z</time>
      </trkpt>
      <trkpt lat="49.04071" lon="1.11901">
        <ele>147.5</ele>
        <time>2014-07-12T16:54:21Z</time>
      </trkpt>
      <trkpt lat="49.04066" lon="1.11898">
        <ele>147.5</ele>
        <time>2014-07-12T16:54:22Z</time>
      </trkpt>
      <trkpt lat="49.04062" lon="1.11896">
        <ele>147.5</ele>
        <time>2014-07-12T16:54:23Z</time>
      </trkpt>
      <trkpt lat="49.04053" lon="1.11894">
        <ele>146.5</ele>
        <time>2014-07-12T16:54:25Z</time>
      </trkpt>
      <trkpt lat="49.04048" lon="1.11894">
        <ele>147.5</ele>
        <time>2014-07-12T16:54:26Z</time>
      </trkpt>
      <trkpt lat="49.04039" lon="1.11892">
        <ele>147.5</ele>
        <time>2014-07-12T16:54:28Z</time>
      </trkpt>
      <trkpt lat="49.04031" lon="1.11887">
        <ele>145.5</ele>
        <time>2014-07-12T16:54:31Z</time>
      </trkpt>
      <trkpt lat="49.04023" lon="1.11881">
        <ele>145.5</ele>
        <time>2014-07-12T16:54:32Z</time>
      </trkpt>
      <trkpt lat="49.04019" lon="1.11877">
        <ele>145.5</ele>
        <time>2014-07-12T16:54:33Z</time>
      </trkpt>
      <trkpt lat="49.04015" lon="1.11874">
        <ele>145.5</ele>
        <time>2014-07-12T16:54:34Z</time>
      </trkpt>
      <trkpt lat="49.04007" lon="1.1187">
        <ele>145.5</ele>
        <time>2014-07-12T16:54:36Z</time>
      </trkpt>
      <trkpt lat="49.03999" lon="1.11868">
        <ele>145.5</ele>
        <time>2014-07-12T16:54:38Z</time>
      </trkpt>
      <trkpt lat="49.03993" lon="1.11869">
        <ele>145.5</ele>
        <time>2014-07-12T16:54:39Z</time>
      </trkpt>
      <trkpt lat="49.03982" lon="1.1187">
        <ele>144.5</ele>
        <time>2014-07-12T16:54:40Z</time>
      </trkpt>
      <trkpt lat="49.03977" lon="1.11868">
        <ele>145.5</ele>
        <time>2014-07-12T16:54:41Z</time>
      </trkpt>
      <trkpt lat="49.03972" lon="1.11867">
        <ele>145.5</ele>
        <time>2014-07-12T16:54:42Z</time>
      </trkpt>
      <trkpt lat="49.03965" lon="1.11867">
        <ele>145.5</ele>
        <time>2014-07-12T16:54:44Z</time>
      </trkpt>
      <trkpt lat="49.03958" lon="1.11862">
        <ele>144.5</ele>
        <time>2014-07-12T16:54:46Z</time>
      </trkpt>
      <trkpt lat="49.03955" lon="1.11872">
        <ele>143.5</ele>
        <time>2014-07-12T16:54:51Z</time>
      </trkpt>
      <trkpt lat="49.03952" lon="1.11879">
        <ele>143.5</ele>
        <time>2014-07-12T16:54:53Z</time>
      </trkpt>
      <trkpt lat="49.03949" lon="1.11886">
        <ele>143.5</ele>
        <time>2014-07-12T16:54:55Z</time>
      </trkpt>
      <trkpt lat="49.03944" lon="1.11891">
        <ele>143.5</ele>
        <time>2014-07-12T16:54:57Z</time>
      </trkpt>
      <trkpt lat="49.03939" lon="1.119">
        <ele>142.5</ele>
        <time>2014-07-12T16:54:59Z</time>
      </trkpt>
      <trkpt lat="49.03936" lon="1.11907">
        <ele>142.5</ele>
        <time>2014-07-12T16:55:00Z</time>
      </trkpt>
      <trkpt lat="49.03933" lon="1.11913">
        <ele>142.5</ele>
        <time>2014-07-12T16:55:01Z</time>
      </trkpt>
      <trkpt lat="49.03931" lon="1.1192">
        <ele>142.5</ele>
        <time>2014-07-12T16:55:02Z</time>
      </trkpt>
      <trkpt lat="49.03927" lon="1.11932">
        <ele>143.5</ele>
        <time>2014-07-12T16:55:03Z</time>
      </trkpt>
      <trkpt lat="49.03921" lon="1.11938">
        <ele>142.5</ele>
        <time>2014-07-12T16:55:04Z</time>
      </trkpt>
      <trkpt lat="49.03915" lon="1.11942">
        <ele>142.5</ele>
        <time>2014-07-12T16:55:05Z</time>
      </trkpt>
      <trkpt lat="49.03908" lon="1.11948">
        <ele>142.5</ele>
        <time>2014-07-12T16:55:06Z</time>
      </trkpt>
      <trkpt lat="49.03904" lon="1.11952">
        <ele>143.5</ele>
        <time>2014-07-12T16:55:07Z</time>
      </trkpt>
      <trkpt lat="49.03897" lon="1.11966">
        <ele>143.5</ele>
        <time>2014-07-12T16:55:09Z</time>
      </trkpt>
      <trkpt lat="49.0389" lon="1.11972">
        <ele>142.5</ele>
        <time>2014-07-12T16:55:11Z</time>
      </trkpt>
      <trkpt lat="49.03886" lon="1.11975">
        <ele>142.5</ele>
        <time>2014-07-12T16:55:12Z</time>
      </trkpt>
      <trkpt lat="49.03883" lon="1.1198">
        <ele>143.5</ele>
        <time>2014-07-12T16:55:13Z</time>
      </trkpt>
      <trkpt lat="49.03879" lon="1.11985">
        <ele>143.5</ele>
        <time>2014-07-12T16:55:14Z</time>
      </trkpt>
      <trkpt lat="49.03872" lon="1.12">
        <ele>144.5</ele>
        <time>2014-07-12T16:55:17Z</time>
      </trkpt>
      <trkpt lat="49.03866" lon="1.12005">
        <ele>144.5</ele>
        <time>2014-07-12T16:55:19Z</time>
      </trkpt>
      <trkpt lat="49.03862" lon="1.12012">
        <ele>144.5</ele>
        <time>2014-07-12T16:55:21Z</time>
      </trkpt>
      <trkpt lat="49.03856" lon="1.12021">
        <ele>145.5</ele>
        <time>2014-07-12T16:55:23Z</time>
      </trkpt>
      <trkpt lat="49.03852" lon="1.12026">
        <ele>145.5</ele>
        <time>2014-07-12T16:55:24Z</time>
      </trkpt>
      <trkpt lat="49.03848" lon="1.12031">
        <ele>145.5</ele>
        <time>2014-07-12T16:55:25Z</time>
      </trkpt>
      <trkpt lat="49.03844" lon="1.12036">
        <ele>145.5</ele>
        <time>2014-07-12T16:55:26Z</time>
      </trkpt>
      <trkpt lat="49.03841" lon="1.1204">
        <ele>146.5</ele>
        <time>2014-07-12T16:55:27Z</time>
      </trkpt>
      <trkpt lat="49.03834" lon="1.12049">
        <ele>146.5</ele>
        <time>2014-07-12T16:55:29Z</time>
      </trkpt>
      <trkpt lat="49.0383" lon="1.12053">
        <ele>146.5</ele>
        <time>2014-07-12T16:55:30Z</time>
      </trkpt>
      <trkpt lat="49.03828" lon="1.12057">
        <ele>146.5</ele>
        <time>2014-07-12T16:55:31Z</time>
      </trkpt>
      <trkpt lat="49.03824" lon="1.12062">
        <ele>146.5</ele>
        <time>2014-07-12T16:55:32Z</time>
      </trkpt>
      <trkpt lat="49.03818" lon="1.12071">
        <ele>145.5</ele>
        <time>2014-07-12T16:55:34Z</time>
      </trkpt>
      <trkpt lat="49.03809" lon="1.12083">
        <ele>145.5</ele>
        <time>2014-07-12T16:55:37Z</time>
      </trkpt>
      <trkpt lat="49.03804" lon="1.12087">
        <ele>146.5</ele>
        <time>2014-07-12T16:55:38Z</time>
      </trkpt>
      <trkpt lat="49.03801" lon="1.12092">
        <ele>145.5</ele>
        <time>2014-07-12T16:55:39Z</time>
      </trkpt>
      <trkpt lat="49.03793" lon="1.12099">
        <ele>146.5</ele>
        <time>2014-07-12T16:55:41Z</time>
      </trkpt>
      <trkpt lat="49.03786" lon="1.12107">
        <ele>146.5</ele>
        <time>2014-07-12T16:55:43Z</time>
      </trkpt>
      <trkpt lat="49.03783" lon="1.12111">
        <ele>146.5</ele>
        <time>2014-07-12T16:55:44Z</time>
      </trkpt>
      <trkpt lat="49.03776" lon="1.12119">
        <ele>145.5</ele>
        <time>2014-07-12T16:55:46Z</time>
      </trkpt>
      <trkpt lat="49.0377" lon="1.12128">
        <ele>146.5</ele>
        <time>2014-07-12T16:55:48Z</time>
      </trkpt>
      <trkpt lat="49.03765" lon="1.12136">
        <ele>145.5</ele>
        <time>2014-07-12T16:55:50Z</time>
      </trkpt>
      <trkpt lat="49.0376" lon="1.12148">
        <ele>146.5</ele>
        <time>2014-07-12T16:55:52Z</time>
      </trkpt>
      <trkpt lat="49.03757" lon="1.12154">
        <ele>146.5</ele>
        <time>2014-07-12T16:55:53Z</time>
      </trkpt>
      <trkpt lat="49.03755" lon="1.12161">
        <ele>145.5</ele>
        <time>2014-07-12T16:55:54Z</time>
      </trkpt>
      <trkpt lat="49.03753" lon="1.12168">
        <ele>145.5</ele>
        <time>2014-07-12T16:55:55Z</time>
      </trkpt>
      <trkpt lat="49.03752" lon="1.12175">
        <ele>145.5</ele>
        <time>2014-07-12T16:55:56Z</time>
      </trkpt>
      <trkpt lat="49.03749" lon="1.12187">
        <ele>144.5</ele>
        <time>2014-07-12T16:55:59Z</time>
      </trkpt>
      <trkpt lat="49.03747" lon="1.12199">
        <ele>145.5</ele>
        <time>2014-07-12T16:56:00Z</time>
      </trkpt>
      <trkpt lat="49.03745" lon="1.12212">
        <ele>146.5</ele>
        <time>2014-07-12T16:56:02Z</time>
      </trkpt>
      <trkpt lat="49.03744" lon="1.12219">
        <ele>146.5</ele>
        <time>2014-07-12T16:56:03Z</time>
      </trkpt>
      <trkpt lat="49.03744" lon="1.12227">
        <ele>146.5</ele>
        <time>2014-07-12T16:56:04Z</time>
      </trkpt>
      <trkpt lat="49.03744" lon="1.12234">
        <ele>146.5</ele>
        <time>2014-07-12T16:56:05Z</time>
      </trkpt>
      <trkpt lat="49.03743" lon="1.12248">
        <ele>146.5</ele>
        <time>2014-07-12T16:56:07Z</time>
      </trkpt>
      <trkpt lat="49.03742" lon="1.12262">
        <ele>146.5</ele>
        <time>2014-07-12T16:56:09Z</time>
      </trkpt>
      <trkpt lat="49.03741" lon="1.12269">
        <ele>146.5</ele>
        <time>2014-07-12T16:56:10Z</time>
      </trkpt>
      <trkpt lat="49.03738" lon="1.12283">
        <ele>146.5</ele>
        <time>2014-07-12T16:56:12Z</time>
      </trkpt>
      <trkpt lat="49.03737" lon="1.1229">
        <ele>145.5</ele>
        <time>2014-07-12T16:56:13Z</time>
      </trkpt>
      <trkpt lat="49.03735" lon="1.12297">
        <ele>145.5</ele>
        <time>2014-07-12T16:56:14Z</time>
      </trkpt>
      <trkpt lat="49.03733" lon="1.12304">
        <ele>144.5</ele>
        <time>2014-07-12T16:56:15Z</time>
      </trkpt>
      <trkpt lat="49.03731" lon="1.1231">
        <ele>144.5</ele>
        <time>2014-07-12T16:56:17Z</time>
      </trkpt>
      <trkpt lat="49.03727" lon="1.12325">
        <ele>143.5</ele>
        <time>2014-07-12T16:56:18Z</time>
      </trkpt>
      <trkpt lat="49.03723" lon="1.1234">
        <ele>142.5</ele>
        <time>2014-07-12T16:56:19Z</time>
      </trkpt>
      <trkpt lat="49.03721" lon="1.1235">
        <ele>143.5</ele>
        <time>2014-07-12T16:56:20Z</time>
      </trkpt>
      <trkpt lat="49.03719" lon="1.12359">
        <ele>142.5</ele>
        <time>2014-07-12T16:56:21Z</time>
      </trkpt>
      <trkpt lat="49.03716" lon="1.12369">
        <ele>142.5</ele>
        <time>2014-07-12T16:56:22Z</time>
      </trkpt>
      <trkpt lat="49.03714" lon="1.12379">
        <ele>142.5</ele>
        <time>2014-07-12T16:56:23Z</time>
      </trkpt>
      <trkpt lat="49.03711" lon="1.1239">
        <ele>142.5</ele>
        <time>2014-07-12T16:56:24Z</time>
      </trkpt>
      <trkpt lat="49.03708" lon="1.12402">
        <ele>143.5</ele>
        <time>2014-07-12T16:56:25Z</time>
      </trkpt>
      <trkpt lat="49.03704" lon="1.12417">
        <ele>141.5</ele>
        <time>2014-07-12T16:56:26Z</time>
      </trkpt>
      <trkpt lat="49.03701" lon="1.12428">
        <ele>142.5</ele>
        <time>2014-07-12T16:56:27Z</time>
      </trkpt>
      <trkpt lat="49.03696" lon="1.12439">
        <ele>141.5</ele>
        <time>2014-07-12T16:56:28Z</time>
      </trkpt>
      <trkpt lat="49.03691" lon="1.12452">
        <ele>141.5</ele>
        <time>2014-07-12T16:56:29Z</time>
      </trkpt>
      <trkpt lat="49.03687" lon="1.1246">
        <ele>140.5</ele>
        <time>2014-07-12T16:56:30Z</time>
      </trkpt>
      <trkpt lat="49.03683" lon="1.12474">
        <ele>139.5</ele>
        <time>2014-07-12T16:56:32Z</time>
      </trkpt>
      <trkpt lat="49.03681" lon="1.12486">
        <ele>139.5</ele>
        <time>2014-07-12T16:56:34Z</time>
      </trkpt>
      <trkpt lat="49.03676" lon="1.1249">
        <ele>138.5</ele>
        <time>2014-07-12T16:56:35Z</time>
      </trkpt>
      <trkpt lat="49.03671" lon="1.12495">
        <ele>137.5</ele>
        <time>2014-07-12T16:56:36Z</time>
      </trkpt>
      <trkpt lat="49.03666" lon="1.12504">
        <ele>138.5</ele>
        <time>2014-07-12T16:56:38Z</time>
      </trkpt>
      <trkpt lat="49.03663" lon="1.12511">
        <ele>138.5</ele>
        <time>2014-07-12T16:56:40Z</time>
      </trkpt>
      <trkpt lat="49.03659" lon="1.1252">
        <ele>138.5</ele>
        <time>2014-07-12T16:56:41Z</time>
      </trkpt>
      <trkpt lat="49.03654" lon="1.12528">
        <ele>138.5</ele>
        <time>2014-07-12T16:56:43Z</time>
      </trkpt>
      <trkpt lat="49.0365" lon="1.12532">
        <ele>139.5</ele>
        <time>2014-07-12T16:56:45Z</time>
      </trkpt>
      <trkpt lat="49.03647" lon="1.12538">
        <ele>139.5</ele>
        <time>2014-07-12T16:56:59Z</time>
      </trkpt>
      <trkpt lat="49.03651" lon="1.12531">
        <ele>137.5</ele>
        <time>2014-07-12T16:58:12Z</time>
      </trkpt>
      <trkpt lat="49.03654" lon="1.12524">
        <ele>137.5</ele>
        <time>2014-07-12T16:58:14Z</time>
      </trkpt>
      <trkpt lat="49.03658" lon="1.12517">
        <ele>136.5</ele>
        <time>2014-07-12T16:58:16Z</time>
      </trkpt>
      <trkpt lat="49.03663" lon="1.12507">
        <ele>136.5</ele>
        <time>2014-07-12T16:58:18Z</time>
      </trkpt>
      <trkpt lat="49.03668" lon="1.12496">
        <ele>137.5</ele>
        <time>2014-07-12T16:58:20Z</time>
      </trkpt>
      <trkpt lat="49.03669" lon="1.12485">
        <ele>137.5</ele>
        <time>2014-07-12T16:58:22Z</time>
      </trkpt>
      <trkpt lat="49.03669" lon="1.12474">
        <ele>138.5</ele>
        <time>2014-07-12T16:58:24Z</time>
      </trkpt>
      <trkpt lat="49.03667" lon="1.12465">
        <ele>138.5</ele>
        <time>2014-07-12T16:58:27Z</time>
      </trkpt>
      <trkpt lat="49.03666" lon="1.12457">
        <ele>139.5</ele>
        <time>2014-07-12T16:58:28Z</time>
      </trkpt>
      <trkpt lat="49.03666" lon="1.12448">
        <ele>140.5</ele>
        <time>2014-07-12T16:58:30Z</time>
      </trkpt>
      <trkpt lat="49.03666" lon="1.1244">
        <ele>139.5</ele>
        <time>2014-07-12T16:58:32Z</time>
      </trkpt>
      <trkpt lat="49.03661" lon="1.12444">
        <ele>138.5</ele>
        <time>2014-07-12T16:58:36Z</time>
      </trkpt>
      <trkpt lat="49.03655" lon="1.12447">
        <ele>138.5</ele>
        <time>2014-07-12T16:58:38Z</time>
      </trkpt>
      <trkpt lat="49.03651" lon="1.12452">
        <ele>135.5</ele>
        <time>2014-07-12T16:58:48Z</time>
      </trkpt>
      <trkpt lat="49.03653" lon="1.1246">
        <ele>134.5</ele>
        <time>2014-07-12T16:58:50Z</time>
      </trkpt>
      <trkpt lat="49.03656" lon="1.12469">
        <ele>134.5</ele>
        <time>2014-07-12T16:58:52Z</time>
      </trkpt>
      <trkpt lat="49.03658" lon="1.12476">
        <ele>134.5</ele>
        <time>2014-07-12T16:58:54Z</time>
      </trkpt>
      <trkpt lat="49.03659" lon="1.12484">
        <ele>135.5</ele>
        <time>2014-07-12T16:58:57Z</time>
      </trkpt>
      <trkpt lat="49.03662" lon="1.12491">
        <ele>135.5</ele>
        <time>2014-07-12T16:59:06Z</time>
      </trkpt>
      <trkpt lat="49.0366" lon="1.12498">
        <ele>136.5</ele>
        <time>2014-07-12T16:59:09Z</time>
      </trkpt>
      <trkpt lat="49.03659" lon="1.12505">
        <ele>137.5</ele>
        <time>2014-07-12T16:59:13Z</time>
      </trkpt>
      <trkpt lat="49.03662" lon="1.12498">
        <ele>135.5</ele>
        <time>2014-07-12T16:59:21Z</time>
      </trkpt>
      <trkpt lat="49.03658" lon="1.12495">
        <ele>135.5</ele>
        <time>2014-07-12T16:59:33Z</time>
      </trkpt>
      <trkpt lat="49.03654" lon="1.12491">
        <ele>132.5</ele>
        <time>2014-07-12T16:59:51Z</time>
      </trkpt>
      <trkpt lat="49.03649" lon="1.12485">
        <ele>131.5</ele>
        <time>2014-07-12T16:59:54Z</time>
      </trkpt>
      <trkpt lat="49.03645" lon="1.12481">
        <ele>132.5</ele>
        <time>2014-07-12T16:59:57Z</time>
      </trkpt>
      <trkpt lat="49.03641" lon="1.12473">
        <ele>133.5</ele>
        <time>2014-07-12T16:59:58Z</time>
      </trkpt>
      <trkpt lat="49.03639" lon="1.12467">
        <ele>133.5</ele>
        <time>2014-07-12T16:59:59Z</time>
      </trkpt>
      <trkpt lat="49.0364" lon="1.12457">
        <ele>135.5</ele>
        <time>2014-07-12T17:00:01Z</time>
      </trkpt>
      <trkpt lat="49.03644" lon="1.12452">
        <ele>133.5</ele>
        <time>2014-07-12T17:00:05Z</time>
      </trkpt>
      <trkpt lat="49.03644" lon="1.12445">
        <ele>133.5</ele>
        <time>2014-07-12T17:00:17Z</time>
      </trkpt>
      <trkpt lat="49.0364" lon="1.1245">
        <ele>132.5</ele>
        <time>2014-07-12T17:00:35Z</time>
      </trkpt>
      <trkpt lat="49.03636" lon="1.12458">
        <ele>131.5</ele>
        <time>2014-07-12T17:00:36Z</time>
      </trkpt>
      <trkpt lat="49.0363" lon="1.12471">
        <ele>130.5</ele>
        <time>2014-07-12T17:00:37Z</time>
      </trkpt>
      <trkpt lat="49.03626" lon="1.12475">
        <ele>130.5</ele>
        <time>2014-07-12T17:00:38Z</time>
      </trkpt>
      <trkpt lat="49.03619" lon="1.12474">
        <ele>130.5</ele>
        <time>2014-07-12T17:00:40Z</time>
      </trkpt>
      <trkpt lat="49.03609" lon="1.12483">
        <ele>130.5</ele>
        <time>2014-07-12T17:00:42Z</time>
      </trkpt>
      <trkpt lat="49.03605" lon="1.12485">
        <ele>130.5</ele>
        <time>2014-07-12T17:00:43Z</time>
      </trkpt>
      <trkpt lat="49.03599" lon="1.12494">
        <ele>131.5</ele>
        <time>2014-07-12T17:00:46Z</time>
      </trkpt>
      <trkpt lat="49.03594" lon="1.12502">
        <ele>131.5</ele>
        <time>2014-07-12T17:00:48Z</time>
      </trkpt>
      <trkpt lat="49.03589" lon="1.12508">
        <ele>132.5</ele>
        <time>2014-07-12T17:00:51Z</time>
      </trkpt>
      <trkpt lat="49.03583" lon="1.12514">
        <ele>133.5</ele>
        <time>2014-07-12T17:00:54Z</time>
      </trkpt>
      <trkpt lat="49.0358" lon="1.12518">
        <ele>135.5</ele>
        <time>2014-07-12T17:00:56Z</time>
      </trkpt>
      <trkpt lat="49.03576" lon="1.12523">
        <ele>134.5</ele>
        <time>2014-07-12T17:00:58Z</time>
      </trkpt>
      <trkpt lat="49.03573" lon="1.12528">
        <ele>135.5</ele>
        <time>2014-07-12T17:01:02Z</time>
      </trkpt>
      <trkpt lat="49.03569" lon="1.12534">
        <ele>137.5</ele>
        <time>2014-07-12T17:01:43Z</time>
      </trkpt>
      <trkpt lat="49.03562" lon="1.12537">
        <ele>137.5</ele>
        <time>2014-07-12T17:01:45Z</time>
      </trkpt>
      <trkpt lat="49.03557" lon="1.12538">
        <ele>136.5</ele>
        <time>2014-07-12T17:01:46Z</time>
      </trkpt>
      <trkpt lat="49.03551" lon="1.12544">
        <ele>137.5</ele>
        <time>2014-07-12T17:01:48Z</time>
      </trkpt>
      <trkpt lat="49.03547" lon="1.12554">
        <ele>137.5</ele>
        <time>2014-07-12T17:01:50Z</time>
      </trkpt>
      <trkpt lat="49.03543" lon="1.12564">
        <ele>136.5</ele>
        <time>2014-07-12T17:01:52Z</time>
      </trkpt>
      <trkpt lat="49.0354" lon="1.12574">
        <ele>135.5</ele>
        <time>2014-07-12T17:01:54Z</time>
      </trkpt>
      <trkpt lat="49.0354" lon="1.12581">
        <ele>135.5</ele>
        <time>2014-07-12T17:01:57Z</time>
      </trkpt>
      <trkpt lat="49.03544" lon="1.12584">
        <ele>134.5</ele>
        <time>2014-07-12T17:02:00Z</time>
      </trkpt>
      <trkpt lat="49.03541" lon="1.12575">
        <ele>136.5</ele>
        <time>2014-07-12T17:02:03Z</time>
      </trkpt>
      <trkpt lat="49.0354" lon="1.12567">
        <ele>133.5</ele>
        <time>2014-07-12T17:02:05Z</time>
      </trkpt>
      <trkpt lat="49.0354" lon="1.12559">
        <ele>134.5</ele>
        <time>2014-07-12T17:02:07Z</time>
      </trkpt>
      <trkpt lat="49.03539" lon="1.12551">
        <ele>134.5</ele>
        <time>2014-07-12T17:02:10Z</time>
      </trkpt>
      <trkpt lat="49.03534" lon="1.12551">
        <ele>134.5</ele>
        <time>2014-07-12T17:02:13Z</time>
      </trkpt>
      <trkpt lat="49.03531" lon="1.12557">
        <ele>131.5</ele>
        <time>2014-07-12T17:02:24Z</time>
      </trkpt>
      <trkpt lat="49.03531" lon="1.12564">
        <ele>135.5</ele>
        <time>2014-07-12T17:02:48Z</time>
      </trkpt>
      <trkpt lat="49.03532" lon="1.12573">
        <ele>133.5</ele>
        <time>2014-07-12T17:02:56Z</time>
      </trkpt>
      <trkpt lat="49.03533" lon="1.12582">
        <ele>134.5</ele>
        <time>2014-07-12T17:02:58Z</time>
      </trkpt>
      <trkpt lat="49.03535" lon="1.12591">
        <ele>133.5</ele>
        <time>2014-07-12T17:03:00Z</time>
      </trkpt>
      <trkpt lat="49.0353" lon="1.12585">
        <ele>134.5</ele>
        <time>2014-07-12T17:03:11Z</time>
      </trkpt>
      <trkpt lat="49.03529" lon="1.12574">
        <ele>133.5</ele>
        <time>2014-07-12T17:03:12Z</time>
      </trkpt>
      <trkpt lat="49.03531" lon="1.12563">
        <ele>135.5</ele>
        <time>2014-07-12T17:03:14Z</time>
      </trkpt>
      <trkpt lat="49.03532" lon="1.12553">
        <ele>133.5</ele>
        <time>2014-07-12T17:03:16Z</time>
      </trkpt>
      <trkpt lat="49.03526" lon="1.12555">
        <ele>132.5</ele>
        <time>2014-07-12T17:03:27Z</time>
      </trkpt>
      <trkpt lat="49.03522" lon="1.12563">
        <ele>133.5</ele>
        <time>2014-07-12T17:03:30Z</time>
      </trkpt>
      <trkpt lat="49.03515" lon="1.12567">
        <ele>133.5</ele>
        <time>2014-07-12T17:03:32Z</time>
      </trkpt>
      <trkpt lat="49.03508" lon="1.12571">
        <ele>133.5</ele>
        <time>2014-07-12T17:03:35Z</time>
      </trkpt>
      <trkpt lat="49.03501" lon="1.12575">
        <ele>135.5</ele>
        <time>2014-07-12T17:03:36Z</time>
      </trkpt>
      <trkpt lat="49.03495" lon="1.1258">
        <ele>135.5</ele>
        <time>2014-07-12T17:03:38Z</time>
      </trkpt>
      <trkpt lat="49.03492" lon="1.12588">
        <ele>135.5</ele>
        <time>2014-07-12T17:03:40Z</time>
      </trkpt>
      <trkpt lat="49.03491" lon="1.12596">
        <ele>135.5</ele>
        <time>2014-07-12T17:03:42Z</time>
      </trkpt>
      <trkpt lat="49.03487" lon="1.12603">
        <ele>134.5</ele>
        <time>2014-07-12T17:03:44Z</time>
      </trkpt>
      <trkpt lat="49.03481" lon="1.12604">
        <ele>135.5</ele>
        <time>2014-07-12T17:03:46Z</time>
      </trkpt>
      <trkpt lat="49.03473" lon="1.126">
        <ele>134.5</ele>
        <time>2014-07-12T17:03:48Z</time>
      </trkpt>
      <trkpt lat="49.03467" lon="1.12597">
        <ele>134.5</ele>
        <time>2014-07-12T17:03:49Z</time>
      </trkpt>
      <trkpt lat="49.03455" lon="1.12591">
        <ele>133.5</ele>
        <time>2014-07-12T17:03:50Z</time>
      </trkpt>
      <trkpt lat="49.03448" lon="1.12588">
        <ele>133.5</ele>
        <time>2014-07-12T17:03:51Z</time>
      </trkpt>
      <trkpt lat="49.03443" lon="1.12586">
        <ele>132.5</ele>
        <time>2014-07-12T17:03:52Z</time>
      </trkpt>
      <trkpt lat="49.03436" lon="1.12575">
        <ele>131.5</ele>
        <time>2014-07-12T17:03:55Z</time>
      </trkpt>
      <trkpt lat="49.03426" lon="1.12557">
        <ele>129.5</ele>
        <time>2014-07-12T17:03:56Z</time>
      </trkpt>
      <trkpt lat="49.03423" lon="1.12547">
        <ele>128.5</ele>
        <time>2014-07-12T17:03:57Z</time>
      </trkpt>
      <trkpt lat="49.03422" lon="1.12532">
        <ele>126.5</ele>
        <time>2014-07-12T17:03:58Z</time>
      </trkpt>
      <trkpt lat="49.03418" lon="1.12521">
        <ele>125.5</ele>
        <time>2014-07-12T17:03:59Z</time>
      </trkpt>
      <trkpt lat="49.03414" lon="1.1251">
        <ele>125.5</ele>
        <time>2014-07-12T17:04:00Z</time>
      </trkpt>
      <trkpt lat="49.03409" lon="1.125">
        <ele>123.5</ele>
        <time>2014-07-12T17:04:01Z</time>
      </trkpt>
      <trkpt lat="49.03403" lon="1.12489">
        <ele>123.5</ele>
        <time>2014-07-12T17:04:02Z</time>
      </trkpt>
      <trkpt lat="49.03403" lon="1.12475">
        <ele>121.5</ele>
        <time>2014-07-12T17:04:03Z</time>
      </trkpt>
      <trkpt lat="49.034" lon="1.12468">
        <ele>120.5</ele>
        <time>2014-07-12T17:04:04Z</time>
      </trkpt>
      <trkpt lat="49.03395" lon="1.12469">
        <ele>119.5</ele>
        <time>2014-07-12T17:04:06Z</time>
      </trkpt>
      <trkpt lat="49.03389" lon="1.12466">
        <ele>119.5</ele>
        <time>2014-07-12T17:04:07Z</time>
      </trkpt>
      <trkpt lat="49.03385" lon="1.12461">
        <ele>118.5</ele>
        <time>2014-07-12T17:04:08Z</time>
      </trkpt>
      <trkpt lat="49.03381" lon="1.12456">
        <ele>118.5</ele>
        <time>2014-07-12T17:04:09Z</time>
      </trkpt>
      <trkpt lat="49.03374" lon="1.12457">
        <ele>117.5</ele>
        <time>2014-07-12T17:04:10Z</time>
      </trkpt>
      <trkpt lat="49.03368" lon="1.12448">
        <ele>115.5</ele>
        <time>2014-07-12T17:04:13Z</time>
      </trkpt>
      <trkpt lat="49.03368" lon="1.12439">
        <ele>114.5</ele>
        <time>2014-07-12T17:04:15Z</time>
      </trkpt>
      <trkpt lat="49.03367" lon="1.12431">
        <ele>113.5</ele>
        <time>2014-07-12T17:04:19Z</time>
      </trkpt>
      <trkpt lat="49.03364" lon="1.12422">
        <ele>111.5</ele>
        <time>2014-07-12T17:04:22Z</time>
      </trkpt>
      <trkpt lat="49.03363" lon="1.12415">
        <ele>110.5</ele>
        <time>2014-07-12T17:04:24Z</time>
      </trkpt>
      <trkpt lat="49.03361" lon="1.12407">
        <ele>110.5</ele>
        <time>2014-07-12T17:04:26Z</time>
      </trkpt>
      <trkpt lat="49.03359" lon="1.12398">
        <ele>109.5</ele>
        <time>2014-07-12T17:04:28Z</time>
      </trkpt>
      <trkpt lat="49.03358" lon="1.12391">
        <ele>108.5</ele>
        <time>2014-07-12T17:04:29Z</time>
      </trkpt>
      <trkpt lat="49.03356" lon="1.12384">
        <ele>108.5</ele>
        <time>2014-07-12T17:04:31Z</time>
      </trkpt>
      <trkpt lat="49.03353" lon="1.12369">
        <ele>106.5</ele>
        <time>2014-07-12T17:04:32Z</time>
      </trkpt>
      <trkpt lat="49.03352" lon="1.12361">
        <ele>106.5</ele>
        <time>2014-07-12T17:04:33Z</time>
      </trkpt>
      <trkpt lat="49.03351" lon="1.12353">
        <ele>105.5</ele>
        <time>2014-07-12T17:04:34Z</time>
      </trkpt>
      <trkpt lat="49.0335" lon="1.12346">
        <ele>104.5</ele>
        <time>2014-07-12T17:04:35Z</time>
      </trkpt>
      <trkpt lat="49.03348" lon="1.1234">
        <ele>104.5</ele>
        <time>2014-07-12T17:04:36Z</time>
      </trkpt>
      <trkpt lat="49.03347" lon="1.12333">
        <ele>102.5</ele>
        <time>2014-07-12T17:04:39Z</time>
      </trkpt>
      <trkpt lat="49.03349" lon="1.12326">
        <ele>102.5</ele>
        <time>2014-07-12T17:04:50Z</time>
      </trkpt>
      <trkpt lat="49.03352" lon="1.12318">
        <ele>101.5</ele>
        <time>2014-07-12T17:04:53Z</time>
      </trkpt>
      <trkpt lat="49.03357" lon="1.12306">
        <ele>100.5</ele>
        <time>2014-07-12T17:04:56Z</time>
      </trkpt>
      <trkpt lat="49.0336" lon="1.12299">
        <ele>99.5</ele>
        <time>2014-07-12T17:04:57Z</time>
      </trkpt>
      <trkpt lat="49.03362" lon="1.12292">
        <ele>99.5</ele>
        <time>2014-07-12T17:04:58Z</time>
      </trkpt>
      <trkpt lat="49.03366" lon="1.12281">
        <ele>99.5</ele>
        <time>2014-07-12T17:05:00Z</time>
      </trkpt>
      <trkpt lat="49.03369" lon="1.12276">
        <ele>97.5</ele>
        <time>2014-07-12T17:05:08Z</time>
      </trkpt>
      <trkpt lat="49.03372" lon="1.12269">
        <ele>95.5</ele>
        <time>2014-07-12T17:05:13Z</time>
      </trkpt>
      <trkpt lat="49.03373" lon="1.12262">
        <ele>92.5</ele>
        <time>2014-07-12T17:05:20Z</time>
      </trkpt>
      <trkpt lat="49.03376" lon="1.12253">
        <ele>92.5</ele>
        <time>2014-07-12T17:05:40Z</time>
      </trkpt>
      <trkpt lat="49.03383" lon="1.12246">
        <ele>92.5</ele>
        <time>2014-07-12T17:05:42Z</time>
      </trkpt>
      <trkpt lat="49.03391" lon="1.12244">
        <ele>92.5</ele>
        <time>2014-07-12T17:05:44Z</time>
      </trkpt>
      <trkpt lat="49.03398" lon="1.12246">
        <ele>92.5</ele>
        <time>2014-07-12T17:05:46Z</time>
      </trkpt>
      <trkpt lat="49.03405" lon="1.12252">
        <ele>92.5</ele>
        <time>2014-07-12T17:05:48Z</time>
      </trkpt>
      <trkpt lat="49.0341" lon="1.12262">
        <ele>92.5</ele>
        <time>2014-07-12T17:05:50Z</time>
      </trkpt>
      <trkpt lat="49.03415" lon="1.12271">
        <ele>92.5</ele>
        <time>2014-07-12T17:05:52Z</time>
      </trkpt>
      <trkpt lat="49.0342" lon="1.12279">
        <ele>91.5</ele>
        <time>2014-07-12T17:05:54Z</time>
      </trkpt>
      <trkpt lat="49.03427" lon="1.12289">
        <ele>91.5</ele>
        <time>2014-07-12T17:05:57Z</time>
      </trkpt>
      <trkpt lat="49.03432" lon="1.12295">
        <ele>91.5</ele>
        <time>2014-07-12T17:05:59Z</time>
      </trkpt>
      <trkpt lat="49.03437" lon="1.12299">
        <ele>93.5</ele>
        <time>2014-07-12T17:06:01Z</time>
      </trkpt>
      <trkpt lat="49.03441" lon="1.12305">
        <ele>93.5</ele>
        <time>2014-07-12T17:06:04Z</time>
      </trkpt>
      <trkpt lat="49.03444" lon="1.12314">
        <ele>93.5</ele>
        <time>2014-07-12T17:06:07Z</time>
      </trkpt>
      <trkpt lat="49.03448" lon="1.12319">
        <ele>93.5</ele>
        <time>2014-07-12T17:06:09Z</time>
      </trkpt>
      <trkpt lat="49.03452" lon="1.12326">
        <ele>93.5</ele>
        <time>2014-07-12T17:06:11Z</time>
      </trkpt>
      <trkpt lat="49.03455" lon="1.12332">
        <ele>93.5</ele>
        <time>2014-07-12T17:06:12Z</time>
      </trkpt>
      <trkpt lat="49.03459" lon="1.12342">
        <ele>93.5</ele>
        <time>2014-07-12T17:06:15Z</time>
      </trkpt>
      <trkpt lat="49.03465" lon="1.1235">
        <ele>92.5</ele>
        <time>2014-07-12T17:06:16Z</time>
      </trkpt>
      <trkpt lat="49.0347" lon="1.12357">
        <ele>90.5</ele>
        <time>2014-07-12T17:06:18Z</time>
      </trkpt>
      <trkpt lat="49.03475" lon="1.12361">
        <ele>92.5</ele>
        <time>2014-07-12T17:06:20Z</time>
      </trkpt>
      <trkpt lat="49.03481" lon="1.12365">
        <ele>91.5</ele>
        <time>2014-07-12T17:06:22Z</time>
      </trkpt>
      <trkpt lat="49.03487" lon="1.1237">
        <ele>90.5</ele>
        <time>2014-07-12T17:06:24Z</time>
      </trkpt>
      <trkpt lat="49.03492" lon="1.12374">
        <ele>91.5</ele>
        <time>2014-07-12T17:06:26Z</time>
      </trkpt>
      <trkpt lat="49.03497" lon="1.12375">
        <ele>94.5</ele>
        <time>2014-07-12T17:06:28Z</time>
      </trkpt>
      <trkpt lat="49.03503" lon="1.12375">
        <ele>93.5</ele>
        <time>2014-07-12T17:06:30Z</time>
      </trkpt>
      <trkpt lat="49.03512" lon="1.12376">
        <ele>95.5</ele>
        <time>2014-07-12T17:06:32Z</time>
      </trkpt>
      <trkpt lat="49.03517" lon="1.12376">
        <ele>95.5</ele>
        <time>2014-07-12T17:06:33Z</time>
      </trkpt>
      <trkpt lat="49.03522" lon="1.12376">
        <ele>95.5</ele>
        <time>2014-07-12T17:06:34Z</time>
      </trkpt>
      <trkpt lat="49.0353" lon="1.12376">
        <ele>95.5</ele>
        <time>2014-07-12T17:06:36Z</time>
      </trkpt>
      <trkpt lat="49.03538" lon="1.12365">
        <ele>95.5</ele>
        <time>2014-07-12T17:06:39Z</time>
      </trkpt>
      <trkpt lat="49.0354" lon="1.12356">
        <ele>95.5</ele>
        <time>2014-07-12T17:06:41Z</time>
      </trkpt>
      <trkpt lat="49.03543" lon="1.1235">
        <ele>96.5</ele>
        <time>2014-07-12T17:06:43Z</time>
      </trkpt>
      <trkpt lat="49.03544" lon="1.1234">
        <ele>96.5</ele>
        <time>2014-07-12T17:06:46Z</time>
      </trkpt>
      <trkpt lat="49.03545" lon="1.12332">
        <ele>96.5</ele>
        <time>2014-07-12T17:06:48Z</time>
      </trkpt>
      <trkpt lat="49.03546" lon="1.12323">
        <ele>96.5</ele>
        <time>2014-07-12T17:06:50Z</time>
      </trkpt>
      <trkpt lat="49.03548" lon="1.12314">
        <ele>96.5</ele>
        <time>2014-07-12T17:06:52Z</time>
      </trkpt>
      <trkpt lat="49.03551" lon="1.12305">
        <ele>95.5</ele>
        <time>2014-07-12T17:06:54Z</time>
      </trkpt>
      <trkpt lat="49.03553" lon="1.12295">
        <ele>96.5</ele>
        <time>2014-07-12T17:06:56Z</time>
      </trkpt>
      <trkpt lat="49.03556" lon="1.12285">
        <ele>95.5</ele>
        <time>2014-07-12T17:06:58Z</time>
      </trkpt>
      <trkpt lat="49.03561" lon="1.1227">
        <ele>95.5</ele>
        <time>2014-07-12T17:07:01Z</time>
      </trkpt>
      <trkpt lat="49.03563" lon="1.12259">
        <ele>96.5</ele>
        <time>2014-07-12T17:07:03Z</time>
      </trkpt>
      <trkpt lat="49.03564" lon="1.12247">
        <ele>97.5</ele>
        <time>2014-07-12T17:07:05Z</time>
      </trkpt>
      <trkpt lat="49.03564" lon="1.12236">
        <ele>96.5</ele>
        <time>2014-07-12T17:07:07Z</time>
      </trkpt>
      <trkpt lat="49.03563" lon="1.12227">
        <ele>98.5</ele>
        <time>2014-07-12T17:07:09Z</time>
      </trkpt>
      <trkpt lat="49.03563" lon="1.12224">
        <ele>98.5</ele>
        <time>2014-07-12T17:07:10Z</time>
      </trkpt>
      <trkpt lat="49.03562" lon="1.12217">
        <ele>98.5</ele>
        <time>2014-07-12T17:07:12Z</time>
      </trkpt>
      <trkpt lat="49.03562" lon="1.12208">
        <ele>97.5</ele>
        <time>2014-07-12T17:07:14Z</time>
      </trkpt>
      <trkpt lat="49.03564" lon="1.12193">
        <ele>98.5</ele>
        <time>2014-07-12T17:07:16Z</time>
      </trkpt>
      <trkpt lat="49.03566" lon="1.12184">
        <ele>98.5</ele>
        <time>2014-07-12T17:07:17Z</time>
      </trkpt>
      <trkpt lat="49.03567" lon="1.12176">
        <ele>98.5</ele>
        <time>2014-07-12T17:07:18Z</time>
      </trkpt>
      <trkpt lat="49.03568" lon="1.12169">
        <ele>99.5</ele>
        <time>2014-07-12T17:07:19Z</time>
      </trkpt>
      <trkpt lat="49.03569" lon="1.12155">
        <ele>98.5</ele>
        <time>2014-07-12T17:07:21Z</time>
      </trkpt>
      <trkpt lat="49.03569" lon="1.12148">
        <ele>98.5</ele>
        <time>2014-07-12T17:07:22Z</time>
      </trkpt>
      <trkpt lat="49.03569" lon="1.12141">
        <ele>98.5</ele>
        <time>2014-07-12T17:07:24Z</time>
      </trkpt>
      <trkpt lat="49.03567" lon="1.12126">
        <ele>98.5</ele>
        <time>2014-07-12T17:07:25Z</time>
      </trkpt>
      <trkpt lat="49.03564" lon="1.12113">
        <ele>98.5</ele>
        <time>2014-07-12T17:07:27Z</time>
      </trkpt>
      <trkpt lat="49.03563" lon="1.12099">
        <ele>98.5</ele>
        <time>2014-07-12T17:07:29Z</time>
      </trkpt>
      <trkpt lat="49.03563" lon="1.12091">
        <ele>98.5</ele>
        <time>2014-07-12T17:07:30Z</time>
      </trkpt>
      <trkpt lat="49.03563" lon="1.12084">
        <ele>98.5</ele>
        <time>2014-07-12T17:07:31Z</time>
      </trkpt>
      <trkpt lat="49.03563" lon="1.12076">
        <ele>97.5</ele>
        <time>2014-07-12T17:07:32Z</time>
      </trkpt>
      <trkpt lat="49.03563" lon="1.12063">
        <ele>97.5</ele>
        <time>2014-07-12T17:07:34Z</time>
      </trkpt>
      <trkpt lat="49.03562" lon="1.12053">
        <ele>98.5</ele>
        <time>2014-07-12T17:07:36Z</time>
      </trkpt>
      <trkpt lat="49.03559" lon="1.12043">
        <ele>98.5</ele>
        <time>2014-07-12T17:07:38Z</time>
      </trkpt>
      <trkpt lat="49.03556" lon="1.12031">
        <ele>98.5</ele>
        <time>2014-07-12T17:07:40Z</time>
      </trkpt>
      <trkpt lat="49.03555" lon="1.12024">
        <ele>98.5</ele>
        <time>2014-07-12T17:07:41Z</time>
      </trkpt>
      <trkpt lat="49.03555" lon="1.12017">
        <ele>98.5</ele>
        <time>2014-07-12T17:07:42Z</time>
      </trkpt>
      <trkpt lat="49.03554" lon="1.12009">
        <ele>98.5</ele>
        <time>2014-07-12T17:07:43Z</time>
      </trkpt>
      <trkpt lat="49.03554" lon="1.12">
        <ele>98.5</ele>
        <time>2014-07-12T17:07:44Z</time>
      </trkpt>
      <trkpt lat="49.03553" lon="1.11981">
        <ele>99.5</ele>
        <time>2014-07-12T17:07:45Z</time>
      </trkpt>
      <trkpt lat="49.03554" lon="1.11974">
        <ele>99.5</ele>
        <time>2014-07-12T17:07:46Z</time>
      </trkpt>
      <trkpt lat="49.03557" lon="1.11961">
        <ele>97.5</ele>
        <time>2014-07-12T17:07:48Z</time>
      </trkpt>
      <trkpt lat="49.03557" lon="1.11954">
        <ele>97.5</ele>
        <time>2014-07-12T17:07:49Z</time>
      </trkpt>
      <trkpt lat="49.03557" lon="1.11949">
        <ele>99.5</ele>
        <time>2014-07-12T17:07:50Z</time>
      </trkpt>
      <trkpt lat="49.03557" lon="1.11941">
        <ele>99.5</ele>
        <time>2014-07-12T17:07:51Z</time>
      </trkpt>
      <trkpt lat="49.03556" lon="1.11932">
        <ele>98.5</ele>
        <time>2014-07-12T17:07:53Z</time>
      </trkpt>
      <trkpt lat="49.03557" lon="1.11922">
        <ele>99.5</ele>
        <time>2014-07-12T17:07:55Z</time>
      </trkpt>
      <trkpt lat="49.03557" lon="1.11913">
        <ele>99.5</ele>
        <time>2014-07-12T17:07:57Z</time>
      </trkpt>
      <trkpt lat="49.0356" lon="1.119">
        <ele>99.5</ele>
        <time>2014-07-12T17:08:00Z</time>
      </trkpt>
      <trkpt lat="49.03563" lon="1.11893">
        <ele>101.5</ele>
        <time>2014-07-12T17:08:02Z</time>
      </trkpt>
      <trkpt lat="49.03566" lon="1.11888">
        <ele>100.5</ele>
        <time>2014-07-12T17:08:04Z</time>
      </trkpt>
      <trkpt lat="49.03569" lon="1.11882">
        <ele>101.5</ele>
        <time>2014-07-12T17:08:06Z</time>
      </trkpt>
      <trkpt lat="49.03572" lon="1.11876">
        <ele>101.5</ele>
        <time>2014-07-12T17:08:08Z</time>
      </trkpt>
      <trkpt lat="49.03576" lon="1.1187">
        <ele>102.5</ele>
        <time>2014-07-12T17:08:10Z</time>
      </trkpt>
      <trkpt lat="49.0358" lon="1.11865">
        <ele>103.5</ele>
        <time>2014-07-12T17:08:12Z</time>
      </trkpt>
      <trkpt lat="49.03584" lon="1.1186">
        <ele>104.5</ele>
        <time>2014-07-12T17:08:14Z</time>
      </trkpt>
      <trkpt lat="49.03588" lon="1.11853">
        <ele>104.5</ele>
        <time>2014-07-12T17:08:16Z</time>
      </trkpt>
      <trkpt lat="49.03591" lon="1.11848">
        <ele>104.5</ele>
        <time>2014-07-12T17:08:18Z</time>
      </trkpt>
      <trkpt lat="49.03596" lon="1.11843">
        <ele>105.5</ele>
        <time>2014-07-12T17:08:21Z</time>
      </trkpt>
      <trkpt lat="49.03599" lon="1.11837">
        <ele>105.5</ele>
        <time>2014-07-12T17:08:24Z</time>
      </trkpt>
      <trkpt lat="49.03605" lon="1.11826">
        <ele>104.5</ele>
        <time>2014-07-12T17:08:26Z</time>
      </trkpt>
      <trkpt lat="49.03608" lon="1.1182">
        <ele>104.5</ele>
        <time>2014-07-12T17:08:27Z</time>
      </trkpt>
      <trkpt lat="49.03612" lon="1.11813">
        <ele>104.5</ele>
        <time>2014-07-12T17:08:28Z</time>
      </trkpt>
      <trkpt lat="49.03622" lon="1.11803">
        <ele>104.5</ele>
        <time>2014-07-12T17:08:29Z</time>
      </trkpt>
      <trkpt lat="49.03629" lon="1.118">
        <ele>103.5</ele>
        <time>2014-07-12T17:08:30Z</time>
      </trkpt>
      <trkpt lat="49.03638" lon="1.118">
        <ele>103.5</ele>
        <time>2014-07-12T17:08:31Z</time>
      </trkpt>
      <trkpt lat="49.03646" lon="1.11797">
        <ele>103.5</ele>
        <time>2014-07-12T17:08:32Z</time>
      </trkpt>
      <trkpt lat="49.03654" lon="1.118">
        <ele>102.5</ele>
        <time>2014-07-12T17:08:33Z</time>
      </trkpt>
      <trkpt lat="49.03661" lon="1.11801">
        <ele>102.5</ele>
        <time>2014-07-12T17:08:34Z</time>
      </trkpt>
      <trkpt lat="49.03665" lon="1.11794">
        <ele>102.5</ele>
        <time>2014-07-12T17:08:35Z</time>
      </trkpt>
      <trkpt lat="49.03671" lon="1.11789">
        <ele>102.5</ele>
        <time>2014-07-12T17:08:36Z</time>
      </trkpt>
      <trkpt lat="49.03678" lon="1.11792">
        <ele>102.5</ele>
        <time>2014-07-12T17:08:37Z</time>
      </trkpt>
      <trkpt lat="49.03682" lon="1.11787">
        <ele>101.5</ele>
        <time>2014-07-12T17:08:38Z</time>
      </trkpt>
      <trkpt lat="49.03687" lon="1.11786">
        <ele>101.5</ele>
        <time>2014-07-12T17:08:39Z</time>
      </trkpt>
      <trkpt lat="49.03693" lon="1.1179">
        <ele>100.5</ele>
        <time>2014-07-12T17:08:40Z</time>
      </trkpt>
      <trkpt lat="49.03699" lon="1.11797">
        <ele>100.5</ele>
        <time>2014-07-12T17:08:41Z</time>
      </trkpt>
      <trkpt lat="49.03703" lon="1.118">
        <ele>100.5</ele>
        <time>2014-07-12T17:08:42Z</time>
      </trkpt>
      <trkpt lat="49.03707" lon="1.11803">
        <ele>100.5</ele>
        <time>2014-07-12T17:08:43Z</time>
      </trkpt>
      <trkpt lat="49.03714" lon="1.11808">
        <ele>100.5</ele>
        <time>2014-07-12T17:08:45Z</time>
      </trkpt>
      <trkpt lat="49.03719" lon="1.11812">
        <ele>100.5</ele>
        <time>2014-07-12T17:08:46Z</time>
      </trkpt>
      <trkpt lat="49.03723" lon="1.11817">
        <ele>100.5</ele>
        <time>2014-07-12T17:08:47Z</time>
      </trkpt>
      <trkpt lat="49.03727" lon="1.11818">
        <ele>100.5</ele>
        <time>2014-07-12T17:08:48Z</time>
      </trkpt>
      <trkpt lat="49.03733" lon="1.11821">
        <ele>100.5</ele>
        <time>2014-07-12T17:08:49Z</time>
      </trkpt>
      <trkpt lat="49.03738" lon="1.1182">
        <ele>100.5</ele>
        <time>2014-07-12T17:08:50Z</time>
      </trkpt>
      <trkpt lat="49.03747" lon="1.1182">
        <ele>101.5</ele>
        <time>2014-07-12T17:08:52Z</time>
      </trkpt>
      <trkpt lat="49.03751" lon="1.11819">
        <ele>101.5</ele>
        <time>2014-07-12T17:08:53Z</time>
      </trkpt>
      <trkpt lat="49.03755" lon="1.11822">
        <ele>101.5</ele>
        <time>2014-07-12T17:08:54Z</time>
      </trkpt>
      <trkpt lat="49.03762" lon="1.11822">
        <ele>101.5</ele>
        <time>2014-07-12T17:08:56Z</time>
      </trkpt>
      <trkpt lat="49.03771" lon="1.11822">
        <ele>101.5</ele>
        <time>2014-07-12T17:08:58Z</time>
      </trkpt>
      <trkpt lat="49.03774" lon="1.1182">
        <ele>102.5</ele>
        <time>2014-07-12T17:08:59Z</time>
      </trkpt>
      <trkpt lat="49.03779" lon="1.11819">
        <ele>103.5</ele>
        <time>2014-07-12T17:09:01Z</time>
      </trkpt>
      <trkpt lat="49.03786" lon="1.11819">
        <ele>103.5</ele>
        <time>2014-07-12T17:09:03Z</time>
      </trkpt>
      <trkpt lat="49.03794" lon="1.11818">
        <ele>103.5</ele>
        <time>2014-07-12T17:09:05Z</time>
      </trkpt>
      <trkpt lat="49.03799" lon="1.11818">
        <ele>103.5</ele>
        <time>2014-07-12T17:09:06Z</time>
      </trkpt>
      <trkpt lat="49.03804" lon="1.11818">
        <ele>103.5</ele>
        <time>2014-07-12T17:09:07Z</time>
      </trkpt>
      <trkpt lat="49.03809" lon="1.11817">
        <ele>103.5</ele>
        <time>2014-07-12T17:09:08Z</time>
      </trkpt>
      <trkpt lat="49.03818" lon="1.11817">
        <ele>103.5</ele>
        <time>2014-07-12T17:09:09Z</time>
      </trkpt>
      <trkpt lat="49.03823" lon="1.11817">
        <ele>103.5</ele>
        <time>2014-07-12T17:09:10Z</time>
      </trkpt>
      <trkpt lat="49.03831" lon="1.11813">
        <ele>103.5</ele>
        <time>2014-07-12T17:09:12Z</time>
      </trkpt>
      <trkpt lat="49.03837" lon="1.11812">
        <ele>104.5</ele>
        <time>2014-07-12T17:09:14Z</time>
      </trkpt>
      <trkpt lat="49.03844" lon="1.11806">
        <ele>104.5</ele>
        <time>2014-07-12T17:09:16Z</time>
      </trkpt>
      <trkpt lat="49.03848" lon="1.11803">
        <ele>105.5</ele>
        <time>2014-07-12T17:09:17Z</time>
      </trkpt>
      <trkpt lat="49.03854" lon="1.11795">
        <ele>105.5</ele>
        <time>2014-07-12T17:09:19Z</time>
      </trkpt>
      <trkpt lat="49.0386" lon="1.11787">
        <ele>105.5</ele>
        <time>2014-07-12T17:09:21Z</time>
      </trkpt>
      <trkpt lat="49.03864" lon="1.11779">
        <ele>105.5</ele>
        <time>2014-07-12T17:09:23Z</time>
      </trkpt>
      <trkpt lat="49.03864" lon="1.11767">
        <ele>104.5</ele>
        <time>2014-07-12T17:09:25Z</time>
      </trkpt>
      <trkpt lat="49.03863" lon="1.11764">
        <ele>105.5</ele>
        <time>2014-07-12T17:09:26Z</time>
      </trkpt>
      <trkpt lat="49.03859" lon="1.11755">
        <ele>105.5</ele>
        <time>2014-07-12T17:09:29Z</time>
      </trkpt>
      <trkpt lat="49.03856" lon="1.11746">
        <ele>104.5</ele>
        <time>2014-07-12T17:09:31Z</time>
      </trkpt>
      <trkpt lat="49.03853" lon="1.11733">
        <ele>105.5</ele>
        <time>2014-07-12T17:09:33Z</time>
      </trkpt>
      <trkpt lat="49.03853" lon="1.11726">
        <ele>105.5</ele>
        <time>2014-07-12T17:09:34Z</time>
      </trkpt>
      <trkpt lat="49.03852" lon="1.11717">
        <ele>105.5</ele>
        <time>2014-07-12T17:09:35Z</time>
      </trkpt>
      <trkpt lat="49.03853" lon="1.11709">
        <ele>104.5</ele>
        <time>2014-07-12T17:09:36Z</time>
      </trkpt>
      <trkpt lat="49.03854" lon="1.117">
        <ele>105.5</ele>
        <time>2014-07-12T17:09:37Z</time>
      </trkpt>
      <trkpt lat="49.03855" lon="1.11692">
        <ele>105.5</ele>
        <time>2014-07-12T17:09:38Z</time>
      </trkpt>
      <trkpt lat="49.03856" lon="1.11685">
        <ele>104.5</ele>
        <time>2014-07-12T17:09:39Z</time>
      </trkpt>
      <trkpt lat="49.03855" lon="1.11678">
        <ele>104.5</ele>
        <time>2014-07-12T17:09:40Z</time>
      </trkpt>
      <trkpt lat="49.03852" lon="1.11666">
        <ele>104.5</ele>
        <time>2014-07-12T17:09:42Z</time>
      </trkpt>
      <trkpt lat="49.03851" lon="1.1166">
        <ele>105.5</ele>
        <time>2014-07-12T17:09:43Z</time>
      </trkpt>
      <trkpt lat="49.0385" lon="1.11653">
        <ele>105.5</ele>
        <time>2014-07-12T17:09:44Z</time>
      </trkpt>
      <trkpt lat="49.03847" lon="1.11642">
        <ele>105.5</ele>
        <time>2014-07-12T17:09:46Z</time>
      </trkpt>
      <trkpt lat="49.03844" lon="1.1163">
        <ele>106.5</ele>
        <time>2014-07-12T17:09:48Z</time>
      </trkpt>
      <trkpt lat="49.03841" lon="1.11619">
        <ele>107.5</ele>
        <time>2014-07-12T17:09:50Z</time>
      </trkpt>
      <trkpt lat="49.03839" lon="1.11612">
        <ele>107.5</ele>
        <time>2014-07-12T17:09:51Z</time>
      </trkpt>
      <trkpt lat="49.03836" lon="1.11606">
        <ele>106.5</ele>
        <time>2014-07-12T17:09:52Z</time>
      </trkpt>
      <trkpt lat="49.03834" lon="1.11598">
        <ele>106.5</ele>
        <time>2014-07-12T17:09:53Z</time>
      </trkpt>
      <trkpt lat="49.03831" lon="1.11591">
        <ele>106.5</ele>
        <time>2014-07-12T17:09:54Z</time>
      </trkpt>
      <trkpt lat="49.03829" lon="1.11584">
        <ele>106.5</ele>
        <time>2014-07-12T17:09:55Z</time>
      </trkpt>
      <trkpt lat="49.03828" lon="1.11576">
        <ele>106.5</ele>
        <time>2014-07-12T17:09:56Z</time>
      </trkpt>
      <trkpt lat="49.03826" lon="1.11563">
        <ele>106.5</ele>
        <time>2014-07-12T17:09:58Z</time>
      </trkpt>
      <trkpt lat="49.03824" lon="1.11556">
        <ele>107.5</ele>
        <time>2014-07-12T17:09:59Z</time>
      </trkpt>
      <trkpt lat="49.03823" lon="1.11549">
        <ele>107.5</ele>
        <time>2014-07-12T17:10:00Z</time>
      </trkpt>
      <trkpt lat="49.03822" lon="1.11542">
        <ele>107.5</ele>
        <time>2014-07-12T17:10:01Z</time>
      </trkpt>
      <trkpt lat="49.0382" lon="1.11534">
        <ele>106.5</ele>
        <time>2014-07-12T17:10:02Z</time>
      </trkpt>
      <trkpt lat="49.03817" lon="1.11521">
        <ele>106.5</ele>
        <time>2014-07-12T17:10:04Z</time>
      </trkpt>
      <trkpt lat="49.03815" lon="1.11514">
        <ele>106.5</ele>
        <time>2014-07-12T17:10:05Z</time>
      </trkpt>
      <trkpt lat="49.03811" lon="1.11504">
        <ele>107.5</ele>
        <time>2014-07-12T17:10:07Z</time>
      </trkpt>
      <trkpt lat="49.03809" lon="1.115">
        <ele>106.5</ele>
        <time>2014-07-12T17:10:08Z</time>
      </trkpt>
      <trkpt lat="49.03807" lon="1.1149">
        <ele>107.5</ele>
        <time>2014-07-12T17:10:10Z</time>
      </trkpt>
      <trkpt lat="49.03803" lon="1.11473">
        <ele>107.5</ele>
        <time>2014-07-12T17:10:13Z</time>
      </trkpt>
      <trkpt lat="49.03799" lon="1.11461">
        <ele>107.5</ele>
        <time>2014-07-12T17:10:15Z</time>
      </trkpt>
      <trkpt lat="49.03796" lon="1.11449">
        <ele>107.5</ele>
        <time>2014-07-12T17:10:17Z</time>
      </trkpt>
      <trkpt lat="49.03794" lon="1.11442">
        <ele>108.5</ele>
        <time>2014-07-12T17:10:18Z</time>
      </trkpt>
      <trkpt lat="49.03788" lon="1.11431">
        <ele>108.5</ele>
        <time>2014-07-12T17:10:20Z</time>
      </trkpt>
      <trkpt lat="49.03785" lon="1.11425">
        <ele>109.5</ele>
        <time>2014-07-12T17:10:21Z</time>
      </trkpt>
      <trkpt lat="49.03782" lon="1.11418">
        <ele>108.5</ele>
        <time>2014-07-12T17:10:22Z</time>
      </trkpt>
      <trkpt lat="49.03779" lon="1.11411">
        <ele>108.5</ele>
        <time>2014-07-12T17:10:23Z</time>
      </trkpt>
      <trkpt lat="49.03776" lon="1.11404">
        <ele>107.5</ele>
        <time>2014-07-12T17:10:24Z</time>
      </trkpt>
      <trkpt lat="49.03775" lon="1.11397">
        <ele>107.5</ele>
        <time>2014-07-12T17:10:25Z</time>
      </trkpt>
      <trkpt lat="49.03772" lon="1.11387">
        <ele>109.5</ele>
        <time>2014-07-12T17:10:27Z</time>
      </trkpt>
      <trkpt lat="49.03771" lon="1.11383">
        <ele>110.5</ele>
        <time>2014-07-12T17:10:28Z</time>
      </trkpt>
      <trkpt lat="49.03768" lon="1.11375">
        <ele>109.5</ele>
        <time>2014-07-12T17:10:30Z</time>
      </trkpt>
      <trkpt lat="49.03766" lon="1.11368">
        <ele>110.5</ele>
        <time>2014-07-12T17:10:32Z</time>
      </trkpt>
      <trkpt lat="49.03767" lon="1.11358">
        <ele>110.5</ele>
        <time>2014-07-12T17:10:34Z</time>
      </trkpt>
      <trkpt lat="49.03768" lon="1.11352">
        <ele>110.5</ele>
        <time>2014-07-12T17:10:35Z</time>
      </trkpt>
      <trkpt lat="49.03769" lon="1.11345">
        <ele>111.5</ele>
        <time>2014-07-12T17:10:36Z</time>
      </trkpt>
      <trkpt lat="49.03771" lon="1.11338">
        <ele>111.5</ele>
        <time>2014-07-12T17:10:37Z</time>
      </trkpt>
      <trkpt lat="49.03773" lon="1.11332">
        <ele>110.5</ele>
        <time>2014-07-12T17:10:38Z</time>
      </trkpt>
      <trkpt lat="49.03775" lon="1.11325">
        <ele>110.5</ele>
        <time>2014-07-12T17:10:39Z</time>
      </trkpt>
      <trkpt lat="49.03777" lon="1.11318">
        <ele>111.5</ele>
        <time>2014-07-12T17:10:40Z</time>
      </trkpt>
      <trkpt lat="49.03779" lon="1.11312">
        <ele>111.5</ele>
        <time>2014-07-12T17:10:41Z</time>
      </trkpt>
      <trkpt lat="49.03781" lon="1.11304">
        <ele>111.5</ele>
        <time>2014-07-12T17:10:42Z</time>
      </trkpt>
      <trkpt lat="49.03784" lon="1.11292">
        <ele>111.5</ele>
        <time>2014-07-12T17:10:44Z</time>
      </trkpt>
      <trkpt lat="49.03786" lon="1.11284">
        <ele>111.5</ele>
        <time>2014-07-12T17:10:46Z</time>
      </trkpt>
      <trkpt lat="49.03788" lon="1.11273">
        <ele>111.5</ele>
        <time>2014-07-12T17:10:48Z</time>
      </trkpt>
      <trkpt lat="49.03792" lon="1.1126">
        <ele>111.5</ele>
        <time>2014-07-12T17:10:50Z</time>
      </trkpt>
      <trkpt lat="49.03797" lon="1.11249">
        <ele>110.5</ele>
        <time>2014-07-12T17:10:52Z</time>
      </trkpt>
      <trkpt lat="49.038" lon="1.11244">
        <ele>110.5</ele>
        <time>2014-07-12T17:10:53Z</time>
      </trkpt>
      <trkpt lat="49.03802" lon="1.11239">
        <ele>110.5</ele>
        <time>2014-07-12T17:10:54Z</time>
      </trkpt>
      <trkpt lat="49.03804" lon="1.11229">
        <ele>111.5</ele>
        <time>2014-07-12T17:10:56Z</time>
      </trkpt>
      <trkpt lat="49.03806" lon="1.11218">
        <ele>112.5</ele>
        <time>2014-07-12T17:10:58Z</time>
      </trkpt>
      <trkpt lat="49.03809" lon="1.11207">
        <ele>111.5</ele>
        <time>2014-07-12T17:11:00Z</time>
      </trkpt>
      <trkpt lat="49.0381" lon="1.11195">
        <ele>111.5</ele>
        <time>2014-07-12T17:11:02Z</time>
      </trkpt>
      <trkpt lat="49.03814" lon="1.11185">
        <ele>111.5</ele>
        <time>2014-07-12T17:11:04Z</time>
      </trkpt>
      <trkpt lat="49.03822" lon="1.11168">
        <ele>110.5</ele>
        <time>2014-07-12T17:11:07Z</time>
      </trkpt>
      <trkpt lat="49.03825" lon="1.11162">
        <ele>110.5</ele>
        <time>2014-07-12T17:11:08Z</time>
      </trkpt>
      <trkpt lat="49.03829" lon="1.11156">
        <ele>110.5</ele>
        <time>2014-07-12T17:11:09Z</time>
      </trkpt>
      <trkpt lat="49.03832" lon="1.11151">
        <ele>110.5</ele>
        <time>2014-07-12T17:11:10Z</time>
      </trkpt>
      <trkpt lat="49.03835" lon="1.11145">
        <ele>110.5</ele>
        <time>2014-07-12T17:11:11Z</time>
      </trkpt>
      <trkpt lat="49.03838" lon="1.11141">
        <ele>111.5</ele>
        <time>2014-07-12T17:11:12Z</time>
      </trkpt>
      <trkpt lat="49.03843" lon="1.11131">
        <ele>111.5</ele>
        <time>2014-07-12T17:11:14Z</time>
      </trkpt>
      <trkpt lat="49.03848" lon="1.11121">
        <ele>110.5</ele>
        <time>2014-07-12T17:11:16Z</time>
      </trkpt>
      <trkpt lat="49.03853" lon="1.11112">
        <ele>110.5</ele>
        <time>2014-07-12T17:11:18Z</time>
      </trkpt>
      <trkpt lat="49.03856" lon="1.11107">
        <ele>111.5</ele>
        <time>2014-07-12T17:11:19Z</time>
      </trkpt>
      <trkpt lat="49.0386" lon="1.11102">
        <ele>110.5</ele>
        <time>2014-07-12T17:11:20Z</time>
      </trkpt>
      <trkpt lat="49.03868" lon="1.11096">
        <ele>110.5</ele>
        <time>2014-07-12T17:11:21Z</time>
      </trkpt>
      <trkpt lat="49.03872" lon="1.11093">
        <ele>109.5</ele>
        <time>2014-07-12T17:11:22Z</time>
      </trkpt>
      <trkpt lat="49.03876" lon="1.11091">
        <ele>110.5</ele>
        <time>2014-07-12T17:11:23Z</time>
      </trkpt>
      <trkpt lat="49.03884" lon="1.11087">
        <ele>110.5</ele>
        <time>2014-07-12T17:11:25Z</time>
      </trkpt>
      <trkpt lat="49.03889" lon="1.11088">
        <ele>111.5</ele>
        <time>2014-07-12T17:11:26Z</time>
      </trkpt>
      <trkpt lat="49.03895" lon="1.11083">
        <ele>110.5</ele>
        <time>2014-07-12T17:11:28Z</time>
      </trkpt>
      <trkpt lat="49.03901" lon="1.11082">
        <ele>110.5</ele>
        <time>2014-07-12T17:11:29Z</time>
      </trkpt>
      <trkpt lat="49.03905" lon="1.11082">
        <ele>111.5</ele>
        <time>2014-07-12T17:11:30Z</time>
      </trkpt>
      <trkpt lat="49.03913" lon="1.1108">
        <ele>111.5</ele>
        <time>2014-07-12T17:11:32Z</time>
      </trkpt>
      <trkpt lat="49.0392" lon="1.11078">
        <ele>111.5</ele>
        <time>2014-07-12T17:11:34Z</time>
      </trkpt>
      <trkpt lat="49.03928" lon="1.11076">
        <ele>111.5</ele>
        <time>2014-07-12T17:11:36Z</time>
      </trkpt>
      <trkpt lat="49.03936" lon="1.11075">
        <ele>112.5</ele>
        <time>2014-07-12T17:11:38Z</time>
      </trkpt>
      <trkpt lat="49.03944" lon="1.1107">
        <ele>112.5</ele>
        <time>2014-07-12T17:11:40Z</time>
      </trkpt>
      <trkpt lat="49.03951" lon="1.11066">
        <ele>113.5</ele>
        <time>2014-07-12T17:11:42Z</time>
      </trkpt>
      <trkpt lat="49.03958" lon="1.11064">
        <ele>112.5</ele>
        <time>2014-07-12T17:11:44Z</time>
      </trkpt>
      <trkpt lat="49.03966" lon="1.11064">
        <ele>113.5</ele>
        <time>2014-07-12T17:11:46Z</time>
      </trkpt>
      <trkpt lat="49.03969" lon="1.11063">
        <ele>113.5</ele>
        <time>2014-07-12T17:11:47Z</time>
      </trkpt>
      <trkpt lat="49.03978" lon="1.11061">
        <ele>113.5</ele>
        <time>2014-07-12T17:11:49Z</time>
      </trkpt>
      <trkpt lat="49.0399" lon="1.11059">
        <ele>113.5</ele>
        <time>2014-07-12T17:11:51Z</time>
      </trkpt>
      <trkpt lat="49.03998" lon="1.11056">
        <ele>114.5</ele>
        <time>2014-07-12T17:11:53Z</time>
      </trkpt>
      <trkpt lat="49.04004" lon="1.11054">
        <ele>114.5</ele>
        <time>2014-07-12T17:11:54Z</time>
      </trkpt>
      <trkpt lat="49.04013" lon="1.11053">
        <ele>114.5</ele>
        <time>2014-07-12T17:11:56Z</time>
      </trkpt>
      <trkpt lat="49.04017" lon="1.1105">
        <ele>114.5</ele>
        <time>2014-07-12T17:11:58Z</time>
      </trkpt>
      <trkpt lat="49.04023" lon="1.11052">
        <ele>114.5</ele>
        <time>2014-07-12T17:12:00Z</time>
      </trkpt>
      <trkpt lat="49.04024" lon="1.11054">
        <ele>114.5</ele>
        <time>2014-07-12T17:12:01Z</time>
      </trkpt>
      <trkpt lat="49.04026" lon="1.11057">
        <ele>114.5</ele>
        <time>2014-07-12T17:12:03Z</time>
      </trkpt>
      <trkpt lat="49.04029" lon="1.11062">
        <ele>115.5</ele>
        <time>2014-07-12T17:12:08Z</time>
      </trkpt>
      <trkpt lat="49.04029" lon="1.1107">
        <ele>116.5</ele>
        <time>2014-07-12T17:12:17Z</time>
      </trkpt>
      <trkpt lat="49.0403" lon="1.11077">
        <ele>119.5</ele>
        <time>2014-07-12T17:12:46Z</time>
      </trkpt>
      <trkpt lat="49.04031" lon="1.11084">
        <ele>120.5</ele>
        <time>2014-07-12T17:12:56Z</time>
      </trkpt>
      <trkpt lat="49.04032" lon="1.11092">
        <ele>120.5</ele>
        <time>2014-07-12T17:13:14Z</time>
      </trkpt>
      <trkpt lat="49.04033" lon="1.11099">
        <ele>122.5</ele>
        <time>2014-07-12T17:13:25Z</time>
      </trkpt>
      <trkpt lat="49.04034" lon="1.11107">
        <ele>122.5</ele>
        <time>2014-07-12T17:13:39Z</time>
      </trkpt>
      <trkpt lat="49.04037" lon="1.11112">
        <ele>123.5</ele>
        <time>2014-07-12T17:14:02Z</time>
      </trkpt>
      <trkpt lat="49.04038" lon="1.11118">
        <ele>127.5</ele>
        <time>2014-07-12T17:14:11Z</time>
      </trkpt>
      <trkpt lat="49.0404" lon="1.11125">
        <ele>128.5</ele>
        <time>2014-07-12T17:14:31Z</time>
      </trkpt>
      <trkpt lat="49.0404" lon="1.11132">
        <ele>129.5</ele>
        <time>2014-07-12T17:14:36Z</time>
      </trkpt>
      <trkpt lat="49.0404" lon="1.11139">
        <ele>130.5</ele>
        <time>2014-07-12T17:14:41Z</time>
      </trkpt>
      <trkpt lat="49.0404" lon="1.11147">
        <ele>133.5</ele>
        <time>2014-07-12T17:14:53Z</time>
      </trkpt>
      <trkpt lat="49.0404" lon="1.11154">
        <ele>134.5</ele>
        <time>2014-07-12T17:15:05Z</time>
      </trkpt>
      <trkpt lat="49.04041" lon="1.11161">
        <ele>133.5</ele>
        <time>2014-07-12T17:15:15Z</time>
      </trkpt>
      <trkpt lat="49.04039" lon="1.11167">
        <ele>135.5</ele>
        <time>2014-07-12T17:15:22Z</time>
      </trkpt>
      <trkpt lat="49.04039" lon="1.11175">
        <ele>138.5</ele>
        <time>2014-07-12T17:15:32Z</time>
      </trkpt>
      <trkpt lat="49.04037" lon="1.11182">
        <ele>137.5</ele>
        <time>2014-07-12T17:15:50Z</time>
      </trkpt>
      <trkpt lat="49.0403" lon="1.11182">
        <ele>140.5</ele>
        <time>2014-07-12T17:16:36Z</time>
      </trkpt>
      <trkpt lat="49.04024" lon="1.11181">
        <ele>139.5</ele>
        <time>2014-07-12T17:16:38Z</time>
      </trkpt>
      <trkpt lat="49.04017" lon="1.11178">
        <ele>139.5</ele>
        <time>2014-07-12T17:16:40Z</time>
      </trkpt>
      <trkpt lat="49.0401" lon="1.11177">
        <ele>137.5</ele>
        <time>2014-07-12T17:16:42Z</time>
      </trkpt>
      <trkpt lat="49.04004" lon="1.11177">
        <ele>138.5</ele>
        <time>2014-07-12T17:16:44Z</time>
      </trkpt>
      <trkpt lat="49.03997" lon="1.11178">
        <ele>138.5</ele>
        <time>2014-07-12T17:16:46Z</time>
      </trkpt>
      <trkpt lat="49.03993" lon="1.11179">
        <ele>137.5</ele>
        <time>2014-07-12T17:16:47Z</time>
      </trkpt>
      <trkpt lat="49.03985" lon="1.11181">
        <ele>139.5</ele>
        <time>2014-07-12T17:16:49Z</time>
      </trkpt>
      <trkpt lat="49.03979" lon="1.11186">
        <ele>139.5</ele>
        <time>2014-07-12T17:16:51Z</time>
      </trkpt>
      <trkpt lat="49.03973" lon="1.11195">
        <ele>138.5</ele>
        <time>2014-07-12T17:16:53Z</time>
      </trkpt>
      <trkpt lat="49.03968" lon="1.11204">
        <ele>139.5</ele>
        <time>2014-07-12T17:16:55Z</time>
      </trkpt>
      <trkpt lat="49.03962" lon="1.1121">
        <ele>140.5</ele>
        <time>2014-07-12T17:16:57Z</time>
      </trkpt>
      <trkpt lat="49.03955" lon="1.11214">
        <ele>140.5</ele>
        <time>2014-07-12T17:16:59Z</time>
      </trkpt>
      <trkpt lat="49.03948" lon="1.11217">
        <ele>140.5</ele>
        <time>2014-07-12T17:17:01Z</time>
      </trkpt>
      <trkpt lat="49.03941" lon="1.1122">
        <ele>140.5</ele>
        <time>2014-07-12T17:17:03Z</time>
      </trkpt>
      <trkpt lat="49.03932" lon="1.1122">
        <ele>140.5</ele>
        <time>2014-07-12T17:17:05Z</time>
      </trkpt>
      <trkpt lat="49.03924" lon="1.11216">
        <ele>139.5</ele>
        <time>2014-07-12T17:17:07Z</time>
      </trkpt>
      <trkpt lat="49.03917" lon="1.11209">
        <ele>139.5</ele>
        <time>2014-07-12T17:17:09Z</time>
      </trkpt>
      <trkpt lat="49.03909" lon="1.11208">
        <ele>139.5</ele>
        <time>2014-07-12T17:17:11Z</time>
      </trkpt>
      <trkpt lat="49.03901" lon="1.11211">
        <ele>139.5</ele>
        <time>2014-07-12T17:17:13Z</time>
      </trkpt>
      <trkpt lat="49.03893" lon="1.11214">
        <ele>138.5</ele>
        <time>2014-07-12T17:17:15Z</time>
      </trkpt>
      <trkpt lat="49.03888" lon="1.11211">
        <ele>137.5</ele>
        <time>2014-07-12T17:17:17Z</time>
      </trkpt>
      <trkpt lat="49.03884" lon="1.11205">
        <ele>136.5</ele>
        <time>2014-07-12T17:17:19Z</time>
      </trkpt>
      <trkpt lat="49.0388" lon="1.112">
        <ele>134.5</ele>
        <time>2014-07-12T17:17:21Z</time>
      </trkpt>
      <trkpt lat="49.03882" lon="1.11194">
        <ele>135.5</ele>
        <time>2014-07-12T17:17:36Z</time>
      </trkpt>
      <trkpt lat="49.03886" lon="1.11195">
        <ele>135.5</ele>
        <time>2014-07-12T17:17:44Z</time>
      </trkpt>
      <trkpt lat="49.0389" lon="1.11202">
        <ele>136.5</ele>
        <time>2014-07-12T17:17:51Z</time>
      </trkpt>
      <trkpt lat="49.03892" lon="1.11208">
        <ele>138.5</ele>
        <time>2014-07-12T17:17:55Z</time>
      </trkpt>
      <trkpt lat="49.0389" lon="1.11217">
        <ele>137.5</ele>
        <time>2014-07-12T17:17:58Z</time>
      </trkpt>
      <trkpt lat="49.03887" lon="1.11227">
        <ele>138.5</ele>
        <time>2014-07-12T17:18:01Z</time>
      </trkpt>
      <trkpt lat="49.03885" lon="1.11235">
        <ele>138.5</ele>
        <time>2014-07-12T17:18:03Z</time>
      </trkpt>
      <trkpt lat="49.03883" lon="1.11243">
        <ele>138.5</ele>
        <time>2014-07-12T17:18:05Z</time>
      </trkpt>
      <trkpt lat="49.03881" lon="1.11251">
        <ele>138.5</ele>
        <time>2014-07-12T17:18:07Z</time>
      </trkpt>
      <trkpt lat="49.03879" lon="1.11261">
        <ele>138.5</ele>
        <time>2014-07-12T17:18:09Z</time>
      </trkpt>
      <trkpt lat="49.03875" lon="1.1127">
        <ele>138.5</ele>
        <time>2014-07-12T17:18:11Z</time>
      </trkpt>
      <trkpt lat="49.03873" lon="1.11279">
        <ele>138.5</ele>
        <time>2014-07-12T17:18:13Z</time>
      </trkpt>
      <trkpt lat="49.03869" lon="1.11286">
        <ele>137.5</ele>
        <time>2014-07-12T17:18:15Z</time>
      </trkpt>
      <trkpt lat="49.03864" lon="1.11291">
        <ele>135.5</ele>
        <time>2014-07-12T17:18:17Z</time>
      </trkpt>
      <trkpt lat="49.03859" lon="1.11296">
        <ele>135.5</ele>
        <time>2014-07-12T17:18:19Z</time>
      </trkpt>
      <trkpt lat="49.03857" lon="1.113">
        <ele>134.5</ele>
        <time>2014-07-12T17:18:20Z</time>
      </trkpt>
      <trkpt lat="49.03855" lon="1.11309">
        <ele>132.5</ele>
        <time>2014-07-12T17:18:23Z</time>
      </trkpt>
      <trkpt lat="49.03854" lon="1.11317">
        <ele>132.5</ele>
        <time>2014-07-12T17:18:26Z</time>
      </trkpt>
      <trkpt lat="49.03852" lon="1.11324">
        <ele>131.5</ele>
        <time>2014-07-12T17:18:30Z</time>
      </trkpt>
      <trkpt lat="49.03851" lon="1.11331">
        <ele>132.5</ele>
        <time>2014-07-12T17:18:45Z</time>
      </trkpt>
      <trkpt lat="49.03855" lon="1.11334">
        <ele>133.5</ele>
        <time>2014-07-12T17:22:25Z</time>
      </trkpt>
      <trkpt lat="49.03852" lon="1.1134">
        <ele>123.5</ele>
        <time>2014-07-12T17:25:19Z</time>
      </trkpt>
      <trkpt lat="49.03845" lon="1.11345">
        <ele>121.5</ele>
        <time>2014-07-12T17:25:22Z</time>
      </trkpt>
      <trkpt lat="49.03839" lon="1.11345">
        <ele>119.5</ele>
        <time>2014-07-12T17:25:24Z</time>
      </trkpt>
      <trkpt lat="49.03833" lon="1.11346">
        <ele>119.5</ele>
        <time>2014-07-12T17:25:26Z</time>
      </trkpt>
      <trkpt lat="49.0383" lon="1.11351">
        <ele>117.5</ele>
        <time>2014-07-12T17:25:30Z</time>
      </trkpt>
      <trkpt lat="49.03826" lon="1.11357">
        <ele>115.5</ele>
        <time>2014-07-12T17:25:34Z</time>
      </trkpt>
      <trkpt lat="49.03822" lon="1.11362">
        <ele>115.5</ele>
        <time>2014-07-12T17:25:37Z</time>
      </trkpt>
      <trkpt lat="49.03818" lon="1.11365">
        <ele>114.5</ele>
        <time>2014-07-12T17:25:59Z</time>
      </trkpt>
      <trkpt lat="49.03813" lon="1.11364">
        <ele>114.5</ele>
        <time>2014-07-12T17:26:27Z</time>
      </trkpt>
      <trkpt lat="49.03813" lon="1.11371">
        <ele>114.5</ele>
        <time>2014-07-12T17:27:02Z</time>
      </trkpt>
      <trkpt lat="49.0381" lon="1.11378">
        <ele>112.5</ele>
        <time>2014-07-12T17:27:11Z</time>
      </trkpt>
      <trkpt lat="49.0381" lon="1.11379">
        <ele>112.5</ele>
        <time>2014-07-12T17:27:12Z</time>
      </trkpt>
      <trkpt lat="49.03809" lon="1.11381">
        <ele>112.5</ele>
        <time>2014-07-12T17:27:14Z</time>
      </trkpt>
      <trkpt lat="49.03804" lon="1.11385">
        <ele>111.5</ele>
        <time>2014-07-12T17:27:19Z</time>
      </trkpt>
      <trkpt lat="49.03802" lon="1.11391">
        <ele>108.5</ele>
        <time>2014-07-12T17:27:27Z</time>
      </trkpt>
      <trkpt lat="49.03802" lon="1.11398">
        <ele>106.5</ele>
        <time>2014-07-12T17:27:31Z</time>
      </trkpt>
      <trkpt lat="49.03803" lon="1.11406">
        <ele>107.5</ele>
        <time>2014-07-12T17:27:34Z</time>
      </trkpt>
      <trkpt lat="49.03805" lon="1.11415">
        <ele>107.5</ele>
        <time>2014-07-12T17:27:36Z</time>
      </trkpt>
      <trkpt lat="49.03808" lon="1.11424">
        <ele>110.5</ele>
        <time>2014-07-12T17:27:38Z</time>
      </trkpt>
      <trkpt lat="49.0381" lon="1.11433">
        <ele>108.5</ele>
        <time>2014-07-12T17:27:40Z</time>
      </trkpt>
      <trkpt lat="49.03813" lon="1.11442">
        <ele>108.5</ele>
        <time>2014-07-12T17:27:42Z</time>
      </trkpt>
      <trkpt lat="49.03815" lon="1.11453">
        <ele>108.5</ele>
        <time>2014-07-12T17:27:44Z</time>
      </trkpt>
      <trkpt lat="49.03818" lon="1.11464">
        <ele>108.5</ele>
        <time>2014-07-12T17:27:46Z</time>
      </trkpt>
      <trkpt lat="49.03823" lon="1.11476">
        <ele>108.5</ele>
        <time>2014-07-12T17:27:48Z</time>
      </trkpt>
      <trkpt lat="49.03827" lon="1.11484">
        <ele>108.5</ele>
        <time>2014-07-12T17:27:49Z</time>
      </trkpt>
      <trkpt lat="49.03829" lon="1.11491">
        <ele>108.5</ele>
        <time>2014-07-12T17:27:50Z</time>
      </trkpt>
      <trkpt lat="49.03831" lon="1.11498">
        <ele>108.5</ele>
        <time>2014-07-12T17:27:51Z</time>
      </trkpt>
      <trkpt lat="49.03833" lon="1.11504">
        <ele>108.5</ele>
        <time>2014-07-12T17:27:52Z</time>
      </trkpt>
      <trkpt lat="49.03837" lon="1.11518">
        <ele>107.5</ele>
        <time>2014-07-12T17:27:54Z</time>
      </trkpt>
      <trkpt lat="49.0384" lon="1.11525">
        <ele>107.5</ele>
        <time>2014-07-12T17:27:55Z</time>
      </trkpt>
      <trkpt lat="49.03842" lon="1.11533">
        <ele>107.5</ele>
        <time>2014-07-12T17:27:56Z</time>
      </trkpt>
      <trkpt lat="49.03845" lon="1.11542">
        <ele>107.5</ele>
        <time>2014-07-12T17:27:57Z</time>
      </trkpt>
      <trkpt lat="49.03846" lon="1.11549">
        <ele>107.5</ele>
        <time>2014-07-12T17:27:58Z</time>
      </trkpt>
      <trkpt lat="49.03848" lon="1.11557">
        <ele>107.5</ele>
        <time>2014-07-12T17:27:59Z</time>
      </trkpt>
      <trkpt lat="49.03851" lon="1.11567">
        <ele>107.5</ele>
        <time>2014-07-12T17:28:01Z</time>
      </trkpt>
      <trkpt lat="49.03853" lon="1.11577">
        <ele>107.5</ele>
        <time>2014-07-12T17:28:03Z</time>
      </trkpt>
      <trkpt lat="49.03856" lon="1.11583">
        <ele>107.5</ele>
        <time>2014-07-12T17:28:04Z</time>
      </trkpt>
      <trkpt lat="49.03859" lon="1.11589">
        <ele>107.5</ele>
        <time>2014-07-12T17:28:05Z</time>
      </trkpt>
      <trkpt lat="49.03862" lon="1.11598">
        <ele>107.5</ele>
        <time>2014-07-12T17:28:06Z</time>
      </trkpt>
      <trkpt lat="49.03864" lon="1.11607">
        <ele>107.5</ele>
        <time>2014-07-12T17:28:07Z</time>
      </trkpt>
      <trkpt lat="49.03866" lon="1.11615">
        <ele>107.5</ele>
        <time>2014-07-12T17:28:08Z</time>
      </trkpt>
      <trkpt lat="49.03868" lon="1.11623">
        <ele>108.5</ele>
        <time>2014-07-12T17:28:09Z</time>
      </trkpt>
      <trkpt lat="49.0387" lon="1.11631">
        <ele>108.5</ele>
        <time>2014-07-12T17:28:10Z</time>
      </trkpt>
      <trkpt lat="49.03871" lon="1.11639">
        <ele>108.5</ele>
        <time>2014-07-12T17:28:11Z</time>
      </trkpt>
      <trkpt lat="49.03873" lon="1.11647">
        <ele>107.5</ele>
        <time>2014-07-12T17:28:12Z</time>
      </trkpt>
      <trkpt lat="49.03874" lon="1.11655">
        <ele>106.5</ele>
        <time>2014-07-12T17:28:13Z</time>
      </trkpt>
      <trkpt lat="49.03877" lon="1.11668">
        <ele>107.5</ele>
        <time>2014-07-12T17:28:15Z</time>
      </trkpt>
      <trkpt lat="49.03878" lon="1.1168">
        <ele>107.5</ele>
        <time>2014-07-12T17:28:17Z</time>
      </trkpt>
      <trkpt lat="49.03879" lon="1.11692">
        <ele>108.5</ele>
        <time>2014-07-12T17:28:19Z</time>
      </trkpt>
      <trkpt lat="49.0388" lon="1.11702">
        <ele>107.5</ele>
        <time>2014-07-12T17:28:21Z</time>
      </trkpt>
      <trkpt lat="49.03882" lon="1.11712">
        <ele>107.5</ele>
        <time>2014-07-12T17:28:23Z</time>
      </trkpt>
      <trkpt lat="49.03884" lon="1.11724">
        <ele>107.5</ele>
        <time>2014-07-12T17:28:25Z</time>
      </trkpt>
      <trkpt lat="49.03882" lon="1.11733">
        <ele>107.5</ele>
        <time>2014-07-12T17:28:27Z</time>
      </trkpt>
      <trkpt lat="49.03881" lon="1.11735">
        <ele>107.5</ele>
        <time>2014-07-12T17:28:28Z</time>
      </trkpt>
      <trkpt lat="49.03879" lon="1.11743">
        <ele>106.5</ele>
        <time>2014-07-12T17:28:31Z</time>
      </trkpt>
      <trkpt lat="49.03876" lon="1.11753">
        <ele>106.5</ele>
        <time>2014-07-12T17:28:34Z</time>
      </trkpt>
      <trkpt lat="49.0387" lon="1.11759">
        <ele>106.5</ele>
        <time>2014-07-12T17:28:36Z</time>
      </trkpt>
      <trkpt lat="49.03866" lon="1.11761">
        <ele>106.5</ele>
        <time>2014-07-12T17:28:37Z</time>
      </trkpt>
      <trkpt lat="49.03861" lon="1.11764">
        <ele>107.5</ele>
        <time>2014-07-12T17:28:38Z</time>
      </trkpt>
      <trkpt lat="49.03856" lon="1.11767">
        <ele>106.5</ele>
        <time>2014-07-12T17:28:39Z</time>
      </trkpt>
      <trkpt lat="49.03852" lon="1.11769">
        <ele>105.5</ele>
        <time>2014-07-12T17:28:40Z</time>
      </trkpt>
      <trkpt lat="49.03846" lon="1.11771">
        <ele>105.5</ele>
        <time>2014-07-12T17:28:41Z</time>
      </trkpt>
      <trkpt lat="49.03841" lon="1.11773">
        <ele>105.5</ele>
        <time>2014-07-12T17:28:42Z</time>
      </trkpt>
      <trkpt lat="49.03837" lon="1.11773">
        <ele>105.5</ele>
        <time>2014-07-12T17:28:43Z</time>
      </trkpt>
      <trkpt lat="49.03831" lon="1.11773">
        <ele>106.5</ele>
        <time>2014-07-12T17:28:44Z</time>
      </trkpt>
      <trkpt lat="49.03826" lon="1.11773">
        <ele>105.5</ele>
        <time>2014-07-12T17:28:45Z</time>
      </trkpt>
      <trkpt lat="49.0382" lon="1.11772">
        <ele>105.5</ele>
        <time>2014-07-12T17:28:46Z</time>
      </trkpt>
      <trkpt lat="49.03812" lon="1.11771">
        <ele>105.5</ele>
        <time>2014-07-12T17:28:47Z</time>
      </trkpt>
      <trkpt lat="49.03808" lon="1.11771">
        <ele>105.5</ele>
        <time>2014-07-12T17:28:48Z</time>
      </trkpt>
      <trkpt lat="49.03802" lon="1.1177">
        <ele>105.5</ele>
        <time>2014-07-12T17:28:49Z</time>
      </trkpt>
      <trkpt lat="49.03796" lon="1.11769">
        <ele>105.5</ele>
        <time>2014-07-12T17:28:50Z</time>
      </trkpt>
      <trkpt lat="49.03772" lon="1.11771">
        <ele>105.5</ele>
        <time>2014-07-12T17:28:51Z</time>
      </trkpt>
      <trkpt lat="49.03761" lon="1.11768">
        <ele>104.5</ele>
        <time>2014-07-12T17:28:52Z</time>
      </trkpt>
      <trkpt lat="49.03753" lon="1.11765">
        <ele>104.5</ele>
        <time>2014-07-12T17:28:53Z</time>
      </trkpt>
      <trkpt lat="49.03744" lon="1.11764">
        <ele>104.5</ele>
        <time>2014-07-12T17:28:54Z</time>
      </trkpt>
      <trkpt lat="49.03738" lon="1.11759">
        <ele>104.5</ele>
        <time>2014-07-12T17:28:55Z</time>
      </trkpt>
      <trkpt lat="49.03731" lon="1.11758">
        <ele>105.5</ele>
        <time>2014-07-12T17:28:56Z</time>
      </trkpt>
      <trkpt lat="49.03727" lon="1.11762">
        <ele>105.5</ele>
        <time>2014-07-12T17:28:57Z</time>
      </trkpt>
      <trkpt lat="49.03723" lon="1.11763">
        <ele>104.5</ele>
        <time>2014-07-12T17:28:58Z</time>
      </trkpt>
      <trkpt lat="49.03717" lon="1.11762">
        <ele>104.5</ele>
        <time>2014-07-12T17:29:00Z</time>
      </trkpt>
      <trkpt lat="49.03712" lon="1.11765">
        <ele>105.5</ele>
        <time>2014-07-12T17:29:01Z</time>
      </trkpt>
      <trkpt lat="49.03708" lon="1.11771">
        <ele>105.5</ele>
        <time>2014-07-12T17:29:03Z</time>
      </trkpt>
      <trkpt lat="49.03706" lon="1.11773">
        <ele>104.5</ele>
        <time>2014-07-12T17:29:04Z</time>
      </trkpt>
      <trkpt lat="49.03706" lon="1.11774">
        <ele>105.5</ele>
        <time>2014-07-12T17:29:05Z</time>
      </trkpt>
      <trkpt lat="49.03705" lon="1.11778">
        <ele>104.5</ele>
        <time>2014-07-12T17:29:09Z</time>
      </trkpt>
      <trkpt lat="49.037" lon="1.11782">
        <ele>104.5</ele>
        <time>2014-07-12T17:29:12Z</time>
      </trkpt>
      <trkpt lat="49.03699" lon="1.11783">
        <ele>103.5</ele>
        <time>2014-07-12T17:29:13Z</time>
      </trkpt>
      <trkpt lat="49.03696" lon="1.11791">
        <ele>104.5</ele>
        <time>2014-07-12T17:29:16Z</time>
      </trkpt>
      <trkpt lat="49.03694" lon="1.11795">
        <ele>103.5</ele>
        <time>2014-07-12T17:29:19Z</time>
      </trkpt>
      <trkpt lat="49.03688" lon="1.11791">
        <ele>103.5</ele>
        <time>2014-07-12T17:29:26Z</time>
      </trkpt>
      <trkpt lat="49.03683" lon="1.11784">
        <ele>104.5</ele>
        <time>2014-07-12T17:29:29Z</time>
      </trkpt>
      <trkpt lat="49.03682" lon="1.11782">
        <ele>103.5</ele>
        <time>2014-07-12T17:29:30Z</time>
      </trkpt>
      <trkpt lat="49.03687" lon="1.11779">
        <ele>102.5</ele>
        <time>2014-07-12T17:30:10Z</time>
      </trkpt>
      <trkpt lat="49.03691" lon="1.11783">
        <ele>101.5</ele>
        <time>2014-07-12T17:30:14Z</time>
      </trkpt>
      <trkpt lat="49.0369" lon="1.11792">
        <ele>100.5</ele>
        <time>2014-07-12T17:30:18Z</time>
      </trkpt>
      <trkpt lat="49.0369" lon="1.118">
        <ele>102.5</ele>
        <time>2014-07-12T17:30:21Z</time>
      </trkpt>
      <trkpt lat="49.03684" lon="1.118">
        <ele>101.5</ele>
        <time>2014-07-12T17:30:25Z</time>
      </trkpt>
      <trkpt lat="49.03678" lon="1.11798">
        <ele>101.5</ele>
        <time>2014-07-12T17:30:27Z</time>
      </trkpt>
      <trkpt lat="49.03673" lon="1.11797">
        <ele>101.5</ele>
        <time>2014-07-12T17:30:28Z</time>
      </trkpt>
      <trkpt lat="49.03668" lon="1.11796">
        <ele>102.5</ele>
        <time>2014-07-12T17:30:29Z</time>
      </trkpt>
      <trkpt lat="49.03663" lon="1.11796">
        <ele>101.5</ele>
        <time>2014-07-12T17:30:30Z</time>
      </trkpt>
      <trkpt lat="49.03657" lon="1.11796">
        <ele>102.5</ele>
        <time>2014-07-12T17:30:31Z</time>
      </trkpt>
      <trkpt lat="49.03645" lon="1.118">
        <ele>101.5</ele>
        <time>2014-07-12T17:30:32Z</time>
      </trkpt>
      <trkpt lat="49.03638" lon="1.118">
        <ele>102.5</ele>
        <time>2014-07-12T17:30:33Z</time>
      </trkpt>
      <trkpt lat="49.0363" lon="1.11802">
        <ele>103.5</ele>
        <time>2014-07-12T17:30:34Z</time>
      </trkpt>
      <trkpt lat="49.03625" lon="1.11806">
        <ele>103.5</ele>
        <time>2014-07-12T17:30:35Z</time>
      </trkpt>
      <trkpt lat="49.03621" lon="1.11813">
        <ele>104.5</ele>
        <time>2014-07-12T17:30:36Z</time>
      </trkpt>
      <trkpt lat="49.03616" lon="1.1182">
        <ele>104.5</ele>
        <time>2014-07-12T17:30:37Z</time>
      </trkpt>
      <trkpt lat="49.03609" lon="1.11822">
        <ele>103.5</ele>
        <time>2014-07-12T17:30:38Z</time>
      </trkpt>
      <trkpt lat="49.03608" lon="1.11832">
        <ele>103.5</ele>
        <time>2014-07-12T17:30:39Z</time>
      </trkpt>
      <trkpt lat="49.03608" lon="1.11842">
        <ele>103.5</ele>
        <time>2014-07-12T17:30:41Z</time>
      </trkpt>
      <trkpt lat="49.03603" lon="1.11855">
        <ele>102.5</ele>
        <time>2014-07-12T17:30:43Z</time>
      </trkpt>
      <trkpt lat="49.03598" lon="1.11866">
        <ele>102.5</ele>
        <time>2014-07-12T17:30:44Z</time>
      </trkpt>
      <trkpt lat="49.03592" lon="1.11875">
        <ele>100.5</ele>
        <time>2014-07-12T17:30:45Z</time>
      </trkpt>
      <trkpt lat="49.03587" lon="1.11884">
        <ele>99.5</ele>
        <time>2014-07-12T17:30:46Z</time>
      </trkpt>
      <trkpt lat="49.03582" lon="1.11895">
        <ele>97.5</ele>
        <time>2014-07-12T17:30:47Z</time>
      </trkpt>
      <trkpt lat="49.0358" lon="1.11908">
        <ele>98.5</ele>
        <time>2014-07-12T17:30:48Z</time>
      </trkpt>
      <trkpt lat="49.03579" lon="1.11922">
        <ele>98.5</ele>
        <time>2014-07-12T17:30:49Z</time>
      </trkpt>
      <trkpt lat="49.03577" lon="1.11937">
        <ele>98.5</ele>
        <time>2014-07-12T17:30:50Z</time>
      </trkpt>
      <trkpt lat="49.03575" lon="1.11948">
        <ele>97.5</ele>
        <time>2014-07-12T17:30:51Z</time>
      </trkpt>
      <trkpt lat="49.03574" lon="1.1196">
        <ele>97.5</ele>
        <time>2014-07-12T17:30:52Z</time>
      </trkpt>
      <trkpt lat="49.03575" lon="1.11974">
        <ele>97.5</ele>
        <time>2014-07-12T17:30:53Z</time>
      </trkpt>
      <trkpt lat="49.03575" lon="1.11988">
        <ele>99.5</ele>
        <time>2014-07-12T17:30:54Z</time>
      </trkpt>
      <trkpt lat="49.03578" lon="1.11995">
        <ele>98.5</ele>
        <time>2014-07-12T17:30:55Z</time>
      </trkpt>
      <trkpt lat="49.03579" lon="1.12003">
        <ele>98.5</ele>
        <time>2014-07-12T17:30:56Z</time>
      </trkpt>
      <trkpt lat="49.0358" lon="1.12012">
        <ele>97.5</ele>
        <time>2014-07-12T17:30:57Z</time>
      </trkpt>
      <trkpt lat="49.03578" lon="1.12025">
        <ele>98.5</ele>
        <time>2014-07-12T17:30:58Z</time>
      </trkpt>
      <trkpt lat="49.03579" lon="1.12037">
        <ele>97.5</ele>
        <time>2014-07-12T17:30:59Z</time>
      </trkpt>
      <trkpt lat="49.0358" lon="1.12053">
        <ele>97.5</ele>
        <time>2014-07-12T17:31:00Z</time>
      </trkpt>
      <trkpt lat="49.03582" lon="1.12063">
        <ele>97.5</ele>
        <time>2014-07-12T17:31:01Z</time>
      </trkpt>
      <trkpt lat="49.03583" lon="1.12071">
        <ele>97.5</ele>
        <time>2014-07-12T17:31:02Z</time>
      </trkpt>
      <trkpt lat="49.03585" lon="1.1208">
        <ele>96.5</ele>
        <time>2014-07-12T17:31:03Z</time>
      </trkpt>
      <trkpt lat="49.03586" lon="1.1209">
        <ele>98.5</ele>
        <time>2014-07-12T17:31:04Z</time>
      </trkpt>
      <trkpt lat="49.03587" lon="1.12098">
        <ele>97.5</ele>
        <time>2014-07-12T17:31:05Z</time>
      </trkpt>
      <trkpt lat="49.03588" lon="1.12108">
        <ele>98.5</ele>
        <time>2014-07-12T17:31:06Z</time>
      </trkpt>
      <trkpt lat="49.0359" lon="1.12114">
        <ele>97.5</ele>
        <time>2014-07-12T17:31:07Z</time>
      </trkpt>
      <trkpt lat="49.03591" lon="1.12123">
        <ele>97.5</ele>
        <time>2014-07-12T17:31:08Z</time>
      </trkpt>
      <trkpt lat="49.03591" lon="1.12131">
        <ele>97.5</ele>
        <time>2014-07-12T17:31:09Z</time>
      </trkpt>
      <trkpt lat="49.03592" lon="1.12139">
        <ele>97.5</ele>
        <time>2014-07-12T17:31:10Z</time>
      </trkpt>
      <trkpt lat="49.03592" lon="1.12148">
        <ele>98.5</ele>
        <time>2014-07-12T17:31:11Z</time>
      </trkpt>
      <trkpt lat="49.03591" lon="1.12157">
        <ele>98.5</ele>
        <time>2014-07-12T17:31:12Z</time>
      </trkpt>
      <trkpt lat="49.03591" lon="1.12166">
        <ele>97.5</ele>
        <time>2014-07-12T17:31:13Z</time>
      </trkpt>
      <trkpt lat="49.03592" lon="1.12175">
        <ele>99.5</ele>
        <time>2014-07-12T17:31:14Z</time>
      </trkpt>
      <trkpt lat="49.03594" lon="1.12186">
        <ele>99.5</ele>
        <time>2014-07-12T17:31:15Z</time>
      </trkpt>
      <trkpt lat="49.03594" lon="1.12196">
        <ele>99.5</ele>
        <time>2014-07-12T17:31:16Z</time>
      </trkpt>
      <trkpt lat="49.03594" lon="1.12205">
        <ele>99.5</ele>
        <time>2014-07-12T17:31:17Z</time>
      </trkpt>
      <trkpt lat="49.03594" lon="1.12214">
        <ele>99.5</ele>
        <time>2014-07-12T17:31:18Z</time>
      </trkpt>
      <trkpt lat="49.03596" lon="1.12226">
        <ele>99.5</ele>
        <time>2014-07-12T17:31:19Z</time>
      </trkpt>
      <trkpt lat="49.03595" lon="1.12238">
        <ele>99.5</ele>
        <time>2014-07-12T17:31:20Z</time>
      </trkpt>
      <trkpt lat="49.0359" lon="1.1225">
        <ele>98.5</ele>
        <time>2014-07-12T17:31:21Z</time>
      </trkpt>
      <trkpt lat="49.03586" lon="1.12262">
        <ele>98.5</ele>
        <time>2014-07-12T17:31:22Z</time>
      </trkpt>
      <trkpt lat="49.03581" lon="1.12274">
        <ele>98.5</ele>
        <time>2014-07-12T17:31:23Z</time>
      </trkpt>
      <trkpt lat="49.03578" lon="1.12288">
        <ele>98.5</ele>
        <time>2014-07-12T17:31:24Z</time>
      </trkpt>
      <trkpt lat="49.03575" lon="1.123">
        <ele>98.5</ele>
        <time>2014-07-12T17:31:25Z</time>
      </trkpt>
      <trkpt lat="49.03573" lon="1.12311">
        <ele>98.5</ele>
        <time>2014-07-12T17:31:26Z</time>
      </trkpt>
      <trkpt lat="49.03571" lon="1.12322">
        <ele>98.5</ele>
        <time>2014-07-12T17:31:27Z</time>
      </trkpt>
      <trkpt lat="49.03568" lon="1.12326">
        <ele>98.5</ele>
        <time>2014-07-12T17:31:28Z</time>
      </trkpt>
      <trkpt lat="49.03567" lon="1.12337">
        <ele>97.5</ele>
        <time>2014-07-12T17:31:30Z</time>
      </trkpt>
      <trkpt lat="49.03568" lon="1.1234">
        <ele>96.5</ele>
        <time>2014-07-12T17:31:31Z</time>
      </trkpt>
      <trkpt lat="49.03562" lon="1.12351">
        <ele>97.5</ele>
        <time>2014-07-12T17:31:33Z</time>
      </trkpt>
      <trkpt lat="49.03562" lon="1.1236">
        <ele>97.5</ele>
        <time>2014-07-12T17:31:35Z</time>
      </trkpt>
      <trkpt lat="49.0356" lon="1.12367">
        <ele>98.5</ele>
        <time>2014-07-12T17:31:37Z</time>
      </trkpt>
      <trkpt lat="49.03553" lon="1.12369">
        <ele>98.5</ele>
        <time>2014-07-12T17:31:40Z</time>
      </trkpt>
      <trkpt lat="49.03545" lon="1.12368">
        <ele>97.5</ele>
        <time>2014-07-12T17:31:42Z</time>
      </trkpt>
      <trkpt lat="49.0354" lon="1.12367">
        <ele>97.5</ele>
        <time>2014-07-12T17:31:43Z</time>
      </trkpt>
      <trkpt lat="49.03535" lon="1.12366">
        <ele>97.5</ele>
        <time>2014-07-12T17:31:44Z</time>
      </trkpt>
      <trkpt lat="49.0352" lon="1.12368">
        <ele>97.5</ele>
        <time>2014-07-12T17:31:45Z</time>
      </trkpt>
      <trkpt lat="49.03512" lon="1.12366">
        <ele>97.5</ele>
        <time>2014-07-12T17:31:46Z</time>
      </trkpt>
      <trkpt lat="49.03505" lon="1.12363">
        <ele>98.5</ele>
        <time>2014-07-12T17:31:48Z</time>
      </trkpt>
      <trkpt lat="49.03499" lon="1.12361">
        <ele>97.5</ele>
        <time>2014-07-12T17:31:50Z</time>
      </trkpt>
      <trkpt lat="49.03494" lon="1.1236">
        <ele>96.5</ele>
        <time>2014-07-12T17:31:51Z</time>
      </trkpt>
      <trkpt lat="49.0349" lon="1.1236">
        <ele>97.5</ele>
        <time>2014-07-12T17:31:52Z</time>
      </trkpt>
      <trkpt lat="49.03482" lon="1.12356">
        <ele>96.5</ele>
        <time>2014-07-12T17:31:54Z</time>
      </trkpt>
      <trkpt lat="49.0348" lon="1.12354">
        <ele>97.5</ele>
        <time>2014-07-12T17:31:55Z</time>
      </trkpt>
      <trkpt lat="49.03475" lon="1.12351">
        <ele>97.5</ele>
        <time>2014-07-12T17:31:58Z</time>
      </trkpt>
      <trkpt lat="49.0347" lon="1.12349">
        <ele>96.5</ele>
        <time>2014-07-12T17:32:01Z</time>
      </trkpt>
      <trkpt lat="49.03464" lon="1.12345">
        <ele>96.5</ele>
        <time>2014-07-12T17:32:04Z</time>
      </trkpt>
      <trkpt lat="49.03459" lon="1.12338">
        <ele>96.5</ele>
        <time>2014-07-12T17:32:06Z</time>
      </trkpt>
      <trkpt lat="49.03453" lon="1.1233">
        <ele>96.5</ele>
        <time>2014-07-12T17:32:08Z</time>
      </trkpt>
      <trkpt lat="49.03451" lon="1.12326">
        <ele>96.5</ele>
        <time>2014-07-12T17:32:09Z</time>
      </trkpt>
      <trkpt lat="49.03445" lon="1.1232">
        <ele>95.5</ele>
        <time>2014-07-12T17:32:11Z</time>
      </trkpt>
      <trkpt lat="49.03439" lon="1.12312">
        <ele>96.5</ele>
        <time>2014-07-12T17:32:13Z</time>
      </trkpt>
      <trkpt lat="49.03435" lon="1.12306">
        <ele>95.5</ele>
        <time>2014-07-12T17:32:14Z</time>
      </trkpt>
      <trkpt lat="49.03431" lon="1.12299">
        <ele>95.5</ele>
        <time>2014-07-12T17:32:15Z</time>
      </trkpt>
      <trkpt lat="49.03428" lon="1.12293">
        <ele>94.5</ele>
        <time>2014-07-12T17:32:16Z</time>
      </trkpt>
      <trkpt lat="49.03424" lon="1.12287">
        <ele>93.5</ele>
        <time>2014-07-12T17:32:17Z</time>
      </trkpt>
      <trkpt lat="49.03421" lon="1.12282">
        <ele>93.5</ele>
        <time>2014-07-12T17:32:18Z</time>
      </trkpt>
      <trkpt lat="49.03416" lon="1.12273">
        <ele>92.5</ele>
        <time>2014-07-12T17:32:20Z</time>
      </trkpt>
      <trkpt lat="49.0341" lon="1.12266">
        <ele>91.5</ele>
        <time>2014-07-12T17:32:22Z</time>
      </trkpt>
      <trkpt lat="49.03404" lon="1.12256">
        <ele>91.5</ele>
        <time>2014-07-12T17:32:24Z</time>
      </trkpt>
      <trkpt lat="49.03397" lon="1.12249">
        <ele>91.5</ele>
        <time>2014-07-12T17:32:26Z</time>
      </trkpt>
      <trkpt lat="49.03388" lon="1.12246">
        <ele>92.5</ele>
        <time>2014-07-12T17:32:28Z</time>
      </trkpt>
      <trkpt lat="49.03382" lon="1.12249">
        <ele>91.5</ele>
        <time>2014-07-12T17:32:29Z</time>
      </trkpt>
      <trkpt lat="49.0338" lon="1.12252">
        <ele>91.5</ele>
        <time>2014-07-12T17:32:30Z</time>
      </trkpt>
      <trkpt lat="49.03379" lon="1.12257">
        <ele>90.5</ele>
        <time>2014-07-12T17:32:31Z</time>
      </trkpt>
      <trkpt lat="49.03375" lon="1.12263">
        <ele>89.5</ele>
        <time>2014-07-12T17:32:32Z</time>
      </trkpt>
      <trkpt lat="49.03369" lon="1.12272">
        <ele>88.5</ele>
        <time>2014-07-12T17:32:34Z</time>
      </trkpt>
      <trkpt lat="49.03365" lon="1.12276">
        <ele>87.5</ele>
        <time>2014-07-12T17:32:35Z</time>
      </trkpt>
      <trkpt lat="49.03363" lon="1.12281">
        <ele>86.5</ele>
        <time>2014-07-12T17:32:36Z</time>
      </trkpt>
      <trkpt lat="49.03356" lon="1.12283">
        <ele>87.5</ele>
        <time>2014-07-12T17:32:37Z</time>
      </trkpt>
      <trkpt lat="49.03354" lon="1.12291">
        <ele>87.5</ele>
        <time>2014-07-12T17:32:38Z</time>
      </trkpt>
      <trkpt lat="49.0335" lon="1.12298">
        <ele>87.5</ele>
        <time>2014-07-12T17:32:39Z</time>
      </trkpt>
      <trkpt lat="49.03347" lon="1.123">
        <ele>89.5</ele>
        <time>2014-07-12T17:32:40Z</time>
      </trkpt>
      <trkpt lat="49.03347" lon="1.12309">
        <ele>88.5</ele>
        <time>2014-07-12T17:32:41Z</time>
      </trkpt>
      <trkpt lat="49.03344" lon="1.12315">
        <ele>88.5</ele>
        <time>2014-07-12T17:32:42Z</time>
      </trkpt>
      <trkpt lat="49.03343" lon="1.12318">
        <ele>89.5</ele>
        <time>2014-07-12T17:32:43Z</time>
      </trkpt>
      <trkpt lat="49.03338" lon="1.12321">
        <ele>89.5</ele>
        <time>2014-07-12T17:32:45Z</time>
      </trkpt>
      <trkpt lat="49.03332" lon="1.12327">
        <ele>89.5</ele>
        <time>2014-07-12T17:32:47Z</time>
      </trkpt>
      <trkpt lat="49.0333" lon="1.12332">
        <ele>89.5</ele>
        <time>2014-07-12T17:32:48Z</time>
      </trkpt>
      <trkpt lat="49.03327" lon="1.12338">
        <ele>90.5</ele>
        <time>2014-07-12T17:32:49Z</time>
      </trkpt>
      <trkpt lat="49.03323" lon="1.12346">
        <ele>90.5</ele>
        <time>2014-07-12T17:32:51Z</time>
      </trkpt>
      <trkpt lat="49.03321" lon="1.12357">
        <ele>89.5</ele>
        <time>2014-07-12T17:32:53Z</time>
      </trkpt>
      <trkpt lat="49.03321" lon="1.12363">
        <ele>90.5</ele>
        <time>2014-07-12T17:32:54Z</time>
      </trkpt>
      <trkpt lat="49.03321" lon="1.12371">
        <ele>88.5</ele>
        <time>2014-07-12T17:32:55Z</time>
      </trkpt>
      <trkpt lat="49.03322" lon="1.12378">
        <ele>88.5</ele>
        <time>2014-07-12T17:32:56Z</time>
      </trkpt>
      <trkpt lat="49.03321" lon="1.12391">
        <ele>86.5</ele>
        <time>2014-07-12T17:32:58Z</time>
      </trkpt>
      <trkpt lat="49.03321" lon="1.12404">
        <ele>86.5</ele>
        <time>2014-07-12T17:33:00Z</time>
      </trkpt>
      <trkpt lat="49.0332" lon="1.12418">
        <ele>85.5</ele>
        <time>2014-07-12T17:33:02Z</time>
      </trkpt>
      <trkpt lat="49.0332" lon="1.12425">
        <ele>85.5</ele>
        <time>2014-07-12T17:33:03Z</time>
      </trkpt>
      <trkpt lat="49.03318" lon="1.12438">
        <ele>85.5</ele>
        <time>2014-07-12T17:33:05Z</time>
      </trkpt>
      <trkpt lat="49.03315" lon="1.12445">
        <ele>86.5</ele>
        <time>2014-07-12T17:33:06Z</time>
      </trkpt>
      <trkpt lat="49.03312" lon="1.1245">
        <ele>87.5</ele>
        <time>2014-07-12T17:33:07Z</time>
      </trkpt>
      <trkpt lat="49.03309" lon="1.12456">
        <ele>87.5</ele>
        <time>2014-07-12T17:33:08Z</time>
      </trkpt>
      <trkpt lat="49.03305" lon="1.1246">
        <ele>87.5</ele>
        <time>2014-07-12T17:33:09Z</time>
      </trkpt>
      <trkpt lat="49.03298" lon="1.12464">
        <ele>89.5</ele>
        <time>2014-07-12T17:33:11Z</time>
      </trkpt>
      <trkpt lat="49.03293" lon="1.12466">
        <ele>89.5</ele>
        <time>2014-07-12T17:33:12Z</time>
      </trkpt>
      <trkpt lat="49.03283" lon="1.12471">
        <ele>90.5</ele>
        <time>2014-07-12T17:33:14Z</time>
      </trkpt>
      <trkpt lat="49.03274" lon="1.12472">
        <ele>89.5</ele>
        <time>2014-07-12T17:33:16Z</time>
      </trkpt>
      <trkpt lat="49.0327" lon="1.12473">
        <ele>88.5</ele>
        <time>2014-07-12T17:33:17Z</time>
      </trkpt>
      <trkpt lat="49.0326" lon="1.12473">
        <ele>87.5</ele>
        <time>2014-07-12T17:33:19Z</time>
      </trkpt>
      <trkpt lat="49.03252" lon="1.12475">
        <ele>87.5</ele>
        <time>2014-07-12T17:33:20Z</time>
      </trkpt>
      <trkpt lat="49.03247" lon="1.12476">
        <ele>89.5</ele>
        <time>2014-07-12T17:33:22Z</time>
      </trkpt>
      <trkpt lat="49.03241" lon="1.12477">
        <ele>89.5</ele>
        <time>2014-07-12T17:33:22Z</time>
      </trkpt>
      <trkpt lat="49.03232" lon="1.12481">
        <ele>88.5</ele>
        <time>2014-07-12T17:33:24Z</time>
      </trkpt>
      <trkpt lat="49.03222" lon="1.12483">
        <ele>88.5</ele>
        <time>2014-07-12T17:33:26Z</time>
      </trkpt>
      <trkpt lat="49.03216" lon="1.12484">
        <ele>88.5</ele>
        <time>2014-07-12T17:33:27Z</time>
      </trkpt>
      <trkpt lat="49.03211" lon="1.12486">
        <ele>87.5</ele>
        <time>2014-07-12T17:33:28Z</time>
      </trkpt>
      <trkpt lat="49.03206" lon="1.12488">
        <ele>87.5</ele>
        <time>2014-07-12T17:33:29Z</time>
      </trkpt>
      <trkpt lat="49.032" lon="1.12489">
        <ele>87.5</ele>
        <time>2014-07-12T17:33:30Z</time>
      </trkpt>
      <trkpt lat="49.03195" lon="1.12491">
        <ele>87.5</ele>
        <time>2014-07-12T17:33:31Z</time>
      </trkpt>
      <trkpt lat="49.0319" lon="1.12492">
        <ele>86.5</ele>
        <time>2014-07-12T17:33:32Z</time>
      </trkpt>
      <trkpt lat="49.03184" lon="1.12495">
        <ele>86.5</ele>
        <time>2014-07-12T17:33:33Z</time>
      </trkpt>
      <trkpt lat="49.03179" lon="1.12497">
        <ele>87.5</ele>
        <time>2014-07-12T17:33:34Z</time>
      </trkpt>
      <trkpt lat="49.03174" lon="1.125">
        <ele>87.5</ele>
        <time>2014-07-12T17:33:35Z</time>
      </trkpt>
      <trkpt lat="49.03168" lon="1.12503">
        <ele>87.5</ele>
        <time>2014-07-12T17:33:36Z</time>
      </trkpt>
      <trkpt lat="49.03162" lon="1.12506">
        <ele>88.5</ele>
        <time>2014-07-12T17:33:37Z</time>
      </trkpt>
      <trkpt lat="49.03156" lon="1.12508">
        <ele>88.5</ele>
        <time>2014-07-12T17:33:38Z</time>
      </trkpt>
      <trkpt lat="49.03151" lon="1.1251">
        <ele>88.5</ele>
        <time>2014-07-12T17:33:39Z</time>
      </trkpt>
      <trkpt lat="49.03146" lon="1.12512">
        <ele>87.5</ele>
        <time>2014-07-12T17:33:40Z</time>
      </trkpt>
      <trkpt lat="49.0314" lon="1.12515">
        <ele>87.5</ele>
        <time>2014-07-12T17:33:41Z</time>
      </trkpt>
      <trkpt lat="49.03134" lon="1.12518">
        <ele>86.5</ele>
        <time>2014-07-12T17:33:42Z</time>
      </trkpt>
      <trkpt lat="49.03129" lon="1.12521">
        <ele>86.5</ele>
        <time>2014-07-12T17:33:43Z</time>
      </trkpt>
      <trkpt lat="49.03125" lon="1.12527">
        <ele>85.5</ele>
        <time>2014-07-12T17:33:44Z</time>
      </trkpt>
      <trkpt lat="49.03121" lon="1.12533">
        <ele>85.5</ele>
        <time>2014-07-12T17:33:45Z</time>
      </trkpt>
      <trkpt lat="49.03119" lon="1.12539">
        <ele>85.5</ele>
        <time>2014-07-12T17:33:46Z</time>
      </trkpt>
      <trkpt lat="49.03113" lon="1.12545">
        <ele>84.5</ele>
        <time>2014-07-12T17:33:48Z</time>
      </trkpt>
      <trkpt lat="49.03108" lon="1.12549">
        <ele>84.5</ele>
        <time>2014-07-12T17:33:49Z</time>
      </trkpt>
      <trkpt lat="49.03101" lon="1.12552">
        <ele>84.5</ele>
        <time>2014-07-12T17:33:51Z</time>
      </trkpt>
      <trkpt lat="49.03097" lon="1.12556">
        <ele>84.5</ele>
        <time>2014-07-12T17:33:52Z</time>
      </trkpt>
      <trkpt lat="49.03093" lon="1.12559">
        <ele>85.5</ele>
        <time>2014-07-12T17:33:53Z</time>
      </trkpt>
      <trkpt lat="49.03087" lon="1.12563">
        <ele>85.5</ele>
        <time>2014-07-12T17:33:54Z</time>
      </trkpt>
      <trkpt lat="49.03079" lon="1.1257">
        <ele>87.5</ele>
        <time>2014-07-12T17:33:56Z</time>
      </trkpt>
      <trkpt lat="49.03075" lon="1.12573">
        <ele>88.5</ele>
        <time>2014-07-12T17:33:57Z</time>
      </trkpt>
      <trkpt lat="49.0307" lon="1.12575">
        <ele>87.5</ele>
        <time>2014-07-12T17:33:58Z</time>
      </trkpt>
      <trkpt lat="49.03065" lon="1.12577">
        <ele>87.5</ele>
        <time>2014-07-12T17:33:59Z</time>
      </trkpt>
      <trkpt lat="49.03058" lon="1.12584">
        <ele>88.5</ele>
        <time>2014-07-12T17:34:01Z</time>
      </trkpt>
      <trkpt lat="49.03054" lon="1.12588">
        <ele>87.5</ele>
        <time>2014-07-12T17:34:02Z</time>
      </trkpt>
      <trkpt lat="49.03051" lon="1.12596">
        <ele>87.5</ele>
        <time>2014-07-12T17:34:03Z</time>
      </trkpt>
      <trkpt lat="49.03043" lon="1.12596">
        <ele>86.5</ele>
        <time>2014-07-12T17:34:05Z</time>
      </trkpt>
      <trkpt lat="49.03039" lon="1.12598">
        <ele>86.5</ele>
        <time>2014-07-12T17:34:06Z</time>
      </trkpt>
      <trkpt lat="49.03033" lon="1.126">
        <ele>85.5</ele>
        <time>2014-07-12T17:34:07Z</time>
      </trkpt>
      <trkpt lat="49.03028" lon="1.12598">
        <ele>86.5</ele>
        <time>2014-07-12T17:34:08Z</time>
      </trkpt>
      <trkpt lat="49.03023" lon="1.126">
        <ele>86.5</ele>
        <time>2014-07-12T17:34:09Z</time>
      </trkpt>
      <trkpt lat="49.03015" lon="1.12595">
        <ele>86.5</ele>
        <time>2014-07-12T17:34:10Z</time>
      </trkpt>
      <trkpt lat="49.03005" lon="1.12594">
        <ele>85.5</ele>
        <time>2014-07-12T17:34:12Z</time>
      </trkpt>
      <trkpt lat="49.02996" lon="1.12592">
        <ele>85.5</ele>
        <time>2014-07-12T17:34:14Z</time>
      </trkpt>
      <trkpt lat="49.0299" lon="1.12592">
        <ele>85.5</ele>
        <time>2014-07-12T17:34:15Z</time>
      </trkpt>
      <trkpt lat="49.02985" lon="1.12588">
        <ele>84.5</ele>
        <time>2014-07-12T17:34:16Z</time>
      </trkpt>
      <trkpt lat="49.02981" lon="1.12587">
        <ele>83.5</ele>
        <time>2014-07-12T17:34:17Z</time>
      </trkpt>
      <trkpt lat="49.02975" lon="1.12587">
        <ele>83.5</ele>
        <time>2014-07-12T17:34:18Z</time>
      </trkpt>
      <trkpt lat="49.0297" lon="1.12585">
        <ele>83.5</ele>
        <time>2014-07-12T17:34:19Z</time>
      </trkpt>
      <trkpt lat="49.02965" lon="1.12584">
        <ele>82.5</ele>
        <time>2014-07-12T17:34:20Z</time>
      </trkpt>
      <trkpt lat="49.0296" lon="1.12582">
        <ele>82.5</ele>
        <time>2014-07-12T17:34:21Z</time>
      </trkpt>
      <trkpt lat="49.02955" lon="1.12582">
        <ele>82.5</ele>
        <time>2014-07-12T17:34:22Z</time>
      </trkpt>
      <trkpt lat="49.02951" lon="1.12583">
        <ele>80.5</ele>
        <time>2014-07-12T17:34:23Z</time>
      </trkpt>
      <trkpt lat="49.02944" lon="1.12583">
        <ele>79.5</ele>
        <time>2014-07-12T17:34:25Z</time>
      </trkpt>
      <trkpt lat="49.02938" lon="1.12581">
        <ele>78.5</ele>
        <time>2014-07-12T17:34:26Z</time>
      </trkpt>
      <trkpt lat="49.02929" lon="1.12585">
        <ele>78.5</ele>
        <time>2014-07-12T17:34:28Z</time>
      </trkpt>
      <trkpt lat="49.02924" lon="1.12585">
        <ele>76.5</ele>
        <time>2014-07-12T17:34:29Z</time>
      </trkpt>
      <trkpt lat="49.02916" lon="1.12586">
        <ele>75.5</ele>
        <time>2014-07-12T17:34:31Z</time>
      </trkpt>
      <trkpt lat="49.02908" lon="1.1259">
        <ele>75.5</ele>
        <time>2014-07-12T17:34:33Z</time>
      </trkpt>
      <trkpt lat="49.02903" lon="1.12591">
        <ele>75.5</ele>
        <time>2014-07-12T17:34:34Z</time>
      </trkpt>
      <trkpt lat="49.02896" lon="1.12592">
        <ele>75.5</ele>
        <time>2014-07-12T17:34:36Z</time>
      </trkpt>
      <trkpt lat="49.02891" lon="1.12595">
        <ele>77.5</ele>
        <time>2014-07-12T17:34:37Z</time>
      </trkpt>
      <trkpt lat="49.02886" lon="1.12597">
        <ele>77.5</ele>
        <time>2014-07-12T17:34:38Z</time>
      </trkpt>
      <trkpt lat="49.02881" lon="1.12599">
        <ele>77.5</ele>
        <time>2014-07-12T17:34:39Z</time>
      </trkpt>
      <trkpt lat="49.02874" lon="1.126">
        <ele>79.5</ele>
        <time>2014-07-12T17:34:40Z</time>
      </trkpt>
      <trkpt lat="49.02869" lon="1.126">
        <ele>78.5</ele>
        <time>2014-07-12T17:34:41Z</time>
      </trkpt>
      <trkpt lat="49.02863" lon="1.126">
        <ele>79.5</ele>
        <time>2014-07-12T17:34:42Z</time>
      </trkpt>
      <trkpt lat="49.02857" lon="1.12601">
        <ele>80.5</ele>
        <time>2014-07-12T17:34:43Z</time>
      </trkpt>
      <trkpt lat="49.0285" lon="1.12599">
        <ele>78.5</ele>
        <time>2014-07-12T17:34:44Z</time>
      </trkpt>
      <trkpt lat="49.02843" lon="1.12598">
        <ele>79.5</ele>
        <time>2014-07-12T17:34:45Z</time>
      </trkpt>
      <trkpt lat="49.02836" lon="1.12597">
        <ele>80.5</ele>
        <time>2014-07-12T17:34:46Z</time>
      </trkpt>
      <trkpt lat="49.0283" lon="1.12596">
        <ele>80.5</ele>
        <time>2014-07-12T17:34:47Z</time>
      </trkpt>
      <trkpt lat="49.02823" lon="1.12595">
        <ele>81.5</ele>
        <time>2014-07-12T17:34:48Z</time>
      </trkpt>
      <trkpt lat="49.02818" lon="1.12593">
        <ele>82.5</ele>
        <time>2014-07-12T17:34:49Z</time>
      </trkpt>
      <trkpt lat="49.02811" lon="1.12591">
        <ele>83.5</ele>
        <time>2014-07-12T17:34:50Z</time>
      </trkpt>
      <trkpt lat="49.02807" lon="1.12588">
        <ele>83.5</ele>
        <time>2014-07-12T17:34:51Z</time>
      </trkpt>
      <trkpt lat="49.02802" lon="1.12586">
        <ele>84.5</ele>
        <time>2014-07-12T17:34:52Z</time>
      </trkpt>
      <trkpt lat="49.02795" lon="1.12583">
        <ele>84.5</ele>
        <time>2014-07-12T17:34:53Z</time>
      </trkpt>
      <trkpt lat="49.0279" lon="1.1258">
        <ele>84.5</ele>
        <time>2014-07-12T17:34:54Z</time>
      </trkpt>
      <trkpt lat="49.02784" lon="1.12575">
        <ele>82.5</ele>
        <time>2014-07-12T17:34:55Z</time>
      </trkpt>
      <trkpt lat="49.02779" lon="1.12572">
        <ele>82.5</ele>
        <time>2014-07-12T17:34:56Z</time>
      </trkpt>
      <trkpt lat="49.02775" lon="1.12565">
        <ele>83.5</ele>
        <time>2014-07-12T17:34:57Z</time>
      </trkpt>
      <trkpt lat="49.02769" lon="1.12554">
        <ele>82.5</ele>
        <time>2014-07-12T17:34:59Z</time>
      </trkpt>
      <trkpt lat="49.02766" lon="1.12548">
        <ele>81.5</ele>
        <time>2014-07-12T17:35:00Z</time>
      </trkpt>
      <trkpt lat="49.0276" lon="1.12542">
        <ele>80.5</ele>
        <time>2014-07-12T17:35:01Z</time>
      </trkpt>
      <trkpt lat="49.02754" lon="1.12531">
        <ele>78.5</ele>
        <time>2014-07-12T17:35:03Z</time>
      </trkpt>
      <trkpt lat="49.02749" lon="1.12525">
        <ele>78.5</ele>
        <time>2014-07-12T17:35:04Z</time>
      </trkpt>
      <trkpt lat="49.02747" lon="1.1252">
        <ele>78.5</ele>
        <time>2014-07-12T17:35:06Z</time>
      </trkpt>
      <trkpt lat="49.02743" lon="1.12506">
        <ele>79.5</ele>
        <time>2014-07-12T17:35:07Z</time>
      </trkpt>
      <trkpt lat="49.0274" lon="1.12498">
        <ele>78.5</ele>
        <time>2014-07-12T17:35:08Z</time>
      </trkpt>
      <trkpt lat="49.02738" lon="1.12491">
        <ele>77.5</ele>
        <time>2014-07-12T17:35:09Z</time>
      </trkpt>
      <trkpt lat="49.02732" lon="1.1248">
        <ele>76.5</ele>
        <time>2014-07-12T17:35:11Z</time>
      </trkpt>
      <trkpt lat="49.02726" lon="1.12471">
        <ele>75.5</ele>
        <time>2014-07-12T17:35:13Z</time>
      </trkpt>
      <trkpt lat="49.02721" lon="1.12466">
        <ele>74.5</ele>
        <time>2014-07-12T17:35:14Z</time>
      </trkpt>
      <trkpt lat="49.02714" lon="1.12458">
        <ele>74.5</ele>
        <time>2014-07-12T17:35:16Z</time>
      </trkpt>
      <trkpt lat="49.0271" lon="1.12454">
        <ele>75.5</ele>
        <time>2014-07-12T17:35:17Z</time>
      </trkpt>
      <trkpt lat="49.02706" lon="1.12451">
        <ele>75.5</ele>
        <time>2014-07-12T17:35:18Z</time>
      </trkpt>
      <trkpt lat="49.02702" lon="1.12447">
        <ele>74.5</ele>
        <time>2014-07-12T17:35:19Z</time>
      </trkpt>
      <trkpt lat="49.02697" lon="1.12444">
        <ele>75.5</ele>
        <time>2014-07-12T17:35:20Z</time>
      </trkpt>
      <trkpt lat="49.02692" lon="1.12441">
        <ele>74.5</ele>
        <time>2014-07-12T17:35:21Z</time>
      </trkpt>
      <trkpt lat="49.02687" lon="1.12437">
        <ele>74.5</ele>
        <time>2014-07-12T17:35:22Z</time>
      </trkpt>
      <trkpt lat="49.02682" lon="1.12435">
        <ele>73.5</ele>
        <time>2014-07-12T17:35:23Z</time>
      </trkpt>
      <trkpt lat="49.02676" lon="1.12433">
        <ele>73.5</ele>
        <time>2014-07-12T17:35:24Z</time>
      </trkpt>
      <trkpt lat="49.0267" lon="1.1243">
        <ele>72.5</ele>
        <time>2014-07-12T17:35:25Z</time>
      </trkpt>
      <trkpt lat="49.02665" lon="1.12428">
        <ele>72.5</ele>
        <time>2014-07-12T17:35:26Z</time>
      </trkpt>
      <trkpt lat="49.02657" lon="1.12426">
        <ele>71.5</ele>
        <time>2014-07-12T17:35:27Z</time>
      </trkpt>
      <trkpt lat="49.0265" lon="1.12425">
        <ele>71.5</ele>
        <time>2014-07-12T17:35:28Z</time>
      </trkpt>
      <trkpt lat="49.02643" lon="1.12424">
        <ele>70.5</ele>
        <time>2014-07-12T17:35:29Z</time>
      </trkpt>
      <trkpt lat="49.02634" lon="1.12425">
        <ele>70.5</ele>
        <time>2014-07-12T17:35:30Z</time>
      </trkpt>
      <trkpt lat="49.02627" lon="1.12426">
        <ele>69.5</ele>
        <time>2014-07-12T17:35:31Z</time>
      </trkpt>
      <trkpt lat="49.02619" lon="1.12424">
        <ele>70.5</ele>
        <time>2014-07-12T17:35:33Z</time>
      </trkpt>
      <trkpt lat="49.02605" lon="1.1242">
        <ele>70.5</ele>
        <time>2014-07-12T17:35:34Z</time>
      </trkpt>
      <trkpt lat="49.02597" lon="1.12419">
        <ele>70.5</ele>
        <time>2014-07-12T17:35:35Z</time>
      </trkpt>
      <trkpt lat="49.02591" lon="1.12419">
        <ele>69.5</ele>
        <time>2014-07-12T17:35:36Z</time>
      </trkpt>
      <trkpt lat="49.02585" lon="1.12419">
        <ele>69.5</ele>
        <time>2014-07-12T17:35:37Z</time>
      </trkpt>
      <trkpt lat="49.02578" lon="1.12419">
        <ele>68.5</ele>
        <time>2014-07-12T17:35:38Z</time>
      </trkpt>
      <trkpt lat="49.02572" lon="1.12417">
        <ele>68.5</ele>
        <time>2014-07-12T17:35:39Z</time>
      </trkpt>
      <trkpt lat="49.02564" lon="1.12414">
        <ele>69.5</ele>
        <time>2014-07-12T17:35:40Z</time>
      </trkpt>
      <trkpt lat="49.02558" lon="1.12412">
        <ele>69.5</ele>
        <time>2014-07-12T17:35:41Z</time>
      </trkpt>
      <trkpt lat="49.02552" lon="1.12409">
        <ele>68.5</ele>
        <time>2014-07-12T17:35:42Z</time>
      </trkpt>
      <trkpt lat="49.02546" lon="1.12409">
        <ele>69.5</ele>
        <time>2014-07-12T17:35:43Z</time>
      </trkpt>
      <trkpt lat="49.02541" lon="1.12412">
        <ele>68.5</ele>
        <time>2014-07-12T17:35:44Z</time>
      </trkpt>
      <trkpt lat="49.02536" lon="1.12417">
        <ele>69.5</ele>
        <time>2014-07-12T17:35:45Z</time>
      </trkpt>
      <trkpt lat="49.02531" lon="1.12421">
        <ele>70.5</ele>
        <time>2014-07-12T17:35:46Z</time>
      </trkpt>
      <trkpt lat="49.02527" lon="1.12426">
        <ele>69.5</ele>
        <time>2014-07-12T17:35:47Z</time>
      </trkpt>
      <trkpt lat="49.02522" lon="1.12433">
        <ele>70.5</ele>
        <time>2014-07-12T17:35:48Z</time>
      </trkpt>
      <trkpt lat="49.02519" lon="1.12438">
        <ele>71.5</ele>
        <time>2014-07-12T17:35:49Z</time>
      </trkpt>
      <trkpt lat="49.0251" lon="1.12447">
        <ele>72.5</ele>
        <time>2014-07-12T17:35:51Z</time>
      </trkpt>
      <trkpt lat="49.02507" lon="1.12452">
        <ele>74.5</ele>
        <time>2014-07-12T17:35:52Z</time>
      </trkpt>
      <trkpt lat="49.02502" lon="1.12456">
        <ele>75.5</ele>
        <time>2014-07-12T17:35:53Z</time>
      </trkpt>
      <trkpt lat="49.02497" lon="1.12461">
        <ele>76.5</ele>
        <time>2014-07-12T17:35:54Z</time>
      </trkpt>
      <trkpt lat="49.02493" lon="1.12467">
        <ele>78.5</ele>
        <time>2014-07-12T17:35:55Z</time>
      </trkpt>
      <trkpt lat="49.0249" lon="1.12473">
        <ele>78.5</ele>
        <time>2014-07-12T17:35:56Z</time>
      </trkpt>
      <trkpt lat="49.02485" lon="1.12476">
        <ele>78.5</ele>
        <time>2014-07-12T17:35:57Z</time>
      </trkpt>
      <trkpt lat="49.02481" lon="1.12482">
        <ele>78.5</ele>
        <time>2014-07-12T17:35:58Z</time>
      </trkpt>
      <trkpt lat="49.02477" lon="1.12487">
        <ele>76.5</ele>
        <time>2014-07-12T17:35:59Z</time>
      </trkpt>
      <trkpt lat="49.02473" lon="1.125">
        <ele>76.5</ele>
        <time>2014-07-12T17:36:01Z</time>
      </trkpt>
      <trkpt lat="49.02472" lon="1.12513">
        <ele>76.5</ele>
        <time>2014-07-12T17:36:03Z</time>
      </trkpt>
      <trkpt lat="49.02472" lon="1.12523">
        <ele>76.5</ele>
        <time>2014-07-12T17:36:04Z</time>
      </trkpt>
      <trkpt lat="49.02471" lon="1.12531">
        <ele>77.5</ele>
        <time>2014-07-12T17:36:05Z</time>
      </trkpt>
      <trkpt lat="49.02471" lon="1.12543">
        <ele>77.5</ele>
        <time>2014-07-12T17:36:07Z</time>
      </trkpt>
      <trkpt lat="49.02469" lon="1.1255">
        <ele>77.5</ele>
        <time>2014-07-12T17:36:08Z</time>
      </trkpt>
      <trkpt lat="49.0247" lon="1.12557">
        <ele>77.5</ele>
        <time>2014-07-12T17:36:09Z</time>
      </trkpt>
      <trkpt lat="49.02468" lon="1.12572">
        <ele>76.5</ele>
        <time>2014-07-12T17:36:11Z</time>
      </trkpt>
      <trkpt lat="49.02469" lon="1.12585">
        <ele>76.5</ele>
        <time>2014-07-12T17:36:14Z</time>
      </trkpt>
      <trkpt lat="49.02468" lon="1.12598">
        <ele>76.5</ele>
        <time>2014-07-12T17:36:15Z</time>
      </trkpt>
      <trkpt lat="49.02469" lon="1.12611">
        <ele>77.5</ele>
        <time>2014-07-12T17:36:17Z</time>
      </trkpt>
      <trkpt lat="49.02469" lon="1.12619">
        <ele>76.5</ele>
        <time>2014-07-12T17:36:19Z</time>
      </trkpt>
      <trkpt lat="49.02466" lon="1.12626">
        <ele>74.5</ele>
        <time>2014-07-12T17:36:21Z</time>
      </trkpt>
      <trkpt lat="49.02465" lon="1.12633">
        <ele>74.5</ele>
        <time>2014-07-12T17:36:23Z</time>
      </trkpt>
      <trkpt lat="49.02464" lon="1.12642">
        <ele>76.5</ele>
        <time>2014-07-12T17:36:25Z</time>
      </trkpt>
      <trkpt lat="49.02463" lon="1.12654">
        <ele>75.5</ele>
        <time>2014-07-12T17:36:27Z</time>
      </trkpt>
      <trkpt lat="49.02462" lon="1.12661">
        <ele>75.5</ele>
        <time>2014-07-12T17:36:28Z</time>
      </trkpt>
      <trkpt lat="49.02461" lon="1.12673">
        <ele>75.5</ele>
        <time>2014-07-12T17:36:30Z</time>
      </trkpt>
      <trkpt lat="49.0246" lon="1.12686">
        <ele>73.5</ele>
        <time>2014-07-12T17:36:32Z</time>
      </trkpt>
      <trkpt lat="49.0246" lon="1.12699">
        <ele>73.5</ele>
        <time>2014-07-12T17:36:34Z</time>
      </trkpt>
      <trkpt lat="49.0246" lon="1.12711">
        <ele>73.5</ele>
        <time>2014-07-12T17:36:36Z</time>
      </trkpt>
      <trkpt lat="49.02459" lon="1.12724">
        <ele>74.5</ele>
        <time>2014-07-12T17:36:38Z</time>
      </trkpt>
      <trkpt lat="49.0246" lon="1.12736">
        <ele>73.5</ele>
        <time>2014-07-12T17:36:40Z</time>
      </trkpt>
      <trkpt lat="49.02461" lon="1.12748">
        <ele>75.5</ele>
        <time>2014-07-12T17:36:42Z</time>
      </trkpt>
      <trkpt lat="49.02464" lon="1.12756">
        <ele>74.5</ele>
        <time>2014-07-12T17:36:43Z</time>
      </trkpt>
      <trkpt lat="49.02465" lon="1.12763">
        <ele>71.5</ele>
        <time>2014-07-12T17:36:44Z</time>
      </trkpt>
      <trkpt lat="49.02466" lon="1.12771">
        <ele>70.5</ele>
        <time>2014-07-12T17:36:45Z</time>
      </trkpt>
      <trkpt lat="49.02467" lon="1.12778">
        <ele>69.5</ele>
        <time>2014-07-12T17:36:46Z</time>
      </trkpt>
      <trkpt lat="49.02469" lon="1.12786">
        <ele>69.5</ele>
        <time>2014-07-12T17:36:47Z</time>
      </trkpt>
      <trkpt lat="49.02471" lon="1.12792">
        <ele>69.5</ele>
        <time>2014-07-12T17:36:48Z</time>
      </trkpt>
      <trkpt lat="49.02474" lon="1.12805">
        <ele>67.5</ele>
        <time>2014-07-12T17:36:50Z</time>
      </trkpt>
      <trkpt lat="49.02475" lon="1.12812">
        <ele>68.5</ele>
        <time>2014-07-12T17:36:51Z</time>
      </trkpt>
      <trkpt lat="49.02478" lon="1.12819">
        <ele>67.5</ele>
        <time>2014-07-12T17:36:52Z</time>
      </trkpt>
      <trkpt lat="49.02479" lon="1.12832">
        <ele>71.5</ele>
        <time>2014-07-12T17:36:54Z</time>
      </trkpt>
      <trkpt lat="49.0248" lon="1.1284">
        <ele>70.5</ele>
        <time>2014-07-12T17:36:55Z</time>
      </trkpt>
      <trkpt lat="49.02483" lon="1.12853">
        <ele>70.5</ele>
        <time>2014-07-12T17:36:57Z</time>
      </trkpt>
      <trkpt lat="49.02485" lon="1.12861">
        <ele>70.5</ele>
        <time>2014-07-12T17:36:58Z</time>
      </trkpt>
      <trkpt lat="49.02485" lon="1.12868">
        <ele>72.5</ele>
        <time>2014-07-12T17:36:59Z</time>
      </trkpt>
      <trkpt lat="49.02488" lon="1.12874">
        <ele>71.5</ele>
        <time>2014-07-12T17:37:00Z</time>
      </trkpt>
      <trkpt lat="49.02492" lon="1.12886">
        <ele>71.5</ele>
        <time>2014-07-12T17:37:02Z</time>
      </trkpt>
      <trkpt lat="49.02494" lon="1.12898">
        <ele>71.5</ele>
        <time>2014-07-12T17:37:04Z</time>
      </trkpt>
      <trkpt lat="49.02494" lon="1.12905">
        <ele>70.5</ele>
        <time>2014-07-12T17:37:05Z</time>
      </trkpt>
      <trkpt lat="49.02496" lon="1.12912">
        <ele>70.5</ele>
        <time>2014-07-12T17:37:06Z</time>
      </trkpt>
      <trkpt lat="49.02499" lon="1.12923">
        <ele>69.5</ele>
        <time>2014-07-12T17:37:08Z</time>
      </trkpt>
      <trkpt lat="49.02501" lon="1.12929">
        <ele>72.5</ele>
        <time>2014-07-12T17:37:09Z</time>
      </trkpt>
      <trkpt lat="49.02504" lon="1.12943">
        <ele>70.5</ele>
        <time>2014-07-12T17:37:11Z</time>
      </trkpt>
      <trkpt lat="49.02504" lon="1.12957">
        <ele>70.5</ele>
        <time>2014-07-12T17:37:13Z</time>
      </trkpt>
      <trkpt lat="49.02505" lon="1.12964">
        <ele>69.5</ele>
        <time>2014-07-12T17:37:14Z</time>
      </trkpt>
      <trkpt lat="49.02506" lon="1.12976">
        <ele>69.5</ele>
        <time>2014-07-12T17:37:16Z</time>
      </trkpt>
      <trkpt lat="49.02507" lon="1.12984">
        <ele>71.5</ele>
        <time>2014-07-12T17:37:17Z</time>
      </trkpt>
      <trkpt lat="49.02507" lon="1.12991">
        <ele>71.5</ele>
        <time>2014-07-12T17:37:18Z</time>
      </trkpt>
      <trkpt lat="49.02509" lon="1.12999">
        <ele>69.5</ele>
        <time>2014-07-12T17:37:19Z</time>
      </trkpt>
      <trkpt lat="49.02509" lon="1.13006">
        <ele>70.5</ele>
        <time>2014-07-12T17:37:20Z</time>
      </trkpt>
      <trkpt lat="49.02511" lon="1.13013">
        <ele>71.5</ele>
        <time>2014-07-12T17:37:21Z</time>
      </trkpt>
      <trkpt lat="49.02512" lon="1.13021">
        <ele>72.5</ele>
        <time>2014-07-12T17:37:22Z</time>
      </trkpt>
      <trkpt lat="49.02517" lon="1.13034">
        <ele>73.5</ele>
        <time>2014-07-12T17:37:24Z</time>
      </trkpt>
      <trkpt lat="49.02518" lon="1.13041">
        <ele>74.5</ele>
        <time>2014-07-12T17:37:25Z</time>
      </trkpt>
      <trkpt lat="49.0252" lon="1.13056">
        <ele>73.5</ele>
        <time>2014-07-12T17:37:27Z</time>
      </trkpt>
      <trkpt lat="49.02521" lon="1.13064">
        <ele>73.5</ele>
        <time>2014-07-12T17:37:28Z</time>
      </trkpt>
      <trkpt lat="49.02522" lon="1.13072">
        <ele>73.5</ele>
        <time>2014-07-12T17:37:29Z</time>
      </trkpt>
      <trkpt lat="49.02523" lon="1.13079">
        <ele>72.5</ele>
        <time>2014-07-12T17:37:30Z</time>
      </trkpt>
      <trkpt lat="49.02525" lon="1.13086">
        <ele>72.5</ele>
        <time>2014-07-12T17:37:31Z</time>
      </trkpt>
      <trkpt lat="49.02527" lon="1.13093">
        <ele>72.5</ele>
        <time>2014-07-12T17:37:32Z</time>
      </trkpt>
      <trkpt lat="49.02529" lon="1.13101">
        <ele>72.5</ele>
        <time>2014-07-12T17:37:33Z</time>
      </trkpt>
      <trkpt lat="49.0253" lon="1.13108">
        <ele>73.5</ele>
        <time>2014-07-12T17:37:34Z</time>
      </trkpt>
      <trkpt lat="49.02531" lon="1.13116">
        <ele>72.5</ele>
        <time>2014-07-12T17:37:35Z</time>
      </trkpt>
      <trkpt lat="49.02535" lon="1.13128">
        <ele>72.5</ele>
        <time>2014-07-12T17:37:37Z</time>
      </trkpt>
      <trkpt lat="49.02537" lon="1.13136">
        <ele>71.5</ele>
        <time>2014-07-12T17:37:38Z</time>
      </trkpt>
      <trkpt lat="49.0254" lon="1.13149">
        <ele>70.5</ele>
        <time>2014-07-12T17:37:40Z</time>
      </trkpt>
      <trkpt lat="49.02541" lon="1.13156">
        <ele>70.5</ele>
        <time>2014-07-12T17:37:41Z</time>
      </trkpt>
      <trkpt lat="49.02543" lon="1.13169">
        <ele>71.5</ele>
        <time>2014-07-12T17:37:43Z</time>
      </trkpt>
      <trkpt lat="49.02546" lon="1.13182">
        <ele>71.5</ele>
        <time>2014-07-12T17:37:45Z</time>
      </trkpt>
      <trkpt lat="49.02547" lon="1.1319">
        <ele>71.5</ele>
        <time>2014-07-12T17:37:46Z</time>
      </trkpt>
      <trkpt lat="49.02548" lon="1.13197">
        <ele>72.5</ele>
        <time>2014-07-12T17:37:48Z</time>
      </trkpt>
      <trkpt lat="49.02551" lon="1.1321">
        <ele>72.5</ele>
        <time>2014-07-12T17:37:49Z</time>
      </trkpt>
      <trkpt lat="49.02552" lon="1.13223">
        <ele>72.5</ele>
        <time>2014-07-12T17:37:51Z</time>
      </trkpt>
      <trkpt lat="49.02555" lon="1.13235">
        <ele>71.5</ele>
        <time>2014-07-12T17:37:53Z</time>
      </trkpt>
      <trkpt lat="49.02556" lon="1.13242">
        <ele>71.5</ele>
        <time>2014-07-12T17:37:54Z</time>
      </trkpt>
      <trkpt lat="49.02557" lon="1.13255">
        <ele>71.5</ele>
        <time>2014-07-12T17:37:56Z</time>
      </trkpt>
      <trkpt lat="49.02558" lon="1.13262">
        <ele>72.5</ele>
        <time>2014-07-12T17:37:57Z</time>
      </trkpt>
      <trkpt lat="49.02559" lon="1.13275">
        <ele>72.5</ele>
        <time>2014-07-12T17:37:59Z</time>
      </trkpt>
      <trkpt lat="49.02561" lon="1.13288">
        <ele>72.5</ele>
        <time>2014-07-12T17:38:01Z</time>
      </trkpt>
      <trkpt lat="49.02562" lon="1.13295">
        <ele>72.5</ele>
        <time>2014-07-12T17:38:02Z</time>
      </trkpt>
      <trkpt lat="49.02563" lon="1.13307">
        <ele>70.5</ele>
        <time>2014-07-12T17:38:04Z</time>
      </trkpt>
      <trkpt lat="49.02566" lon="1.13319">
        <ele>69.5</ele>
        <time>2014-07-12T17:38:06Z</time>
      </trkpt>
      <trkpt lat="49.02567" lon="1.13326">
        <ele>67.5</ele>
        <time>2014-07-12T17:38:07Z</time>
      </trkpt>
      <trkpt lat="49.02568" lon="1.13334">
        <ele>69.5</ele>
        <time>2014-07-12T17:38:08Z</time>
      </trkpt>
      <trkpt lat="49.02569" lon="1.13341">
        <ele>70.5</ele>
        <time>2014-07-12T17:38:09Z</time>
      </trkpt>
      <trkpt lat="49.0257" lon="1.13348">
        <ele>70.5</ele>
        <time>2014-07-12T17:38:10Z</time>
      </trkpt>
      <trkpt lat="49.02571" lon="1.1336">
        <ele>69.5</ele>
        <time>2014-07-12T17:38:12Z</time>
      </trkpt>
      <trkpt lat="49.02574" lon="1.13367">
        <ele>71.5</ele>
        <time>2014-07-12T17:38:13Z</time>
      </trkpt>
      <trkpt lat="49.02576" lon="1.13374">
        <ele>71.5</ele>
        <time>2014-07-12T17:38:14Z</time>
      </trkpt>
      <trkpt lat="49.02577" lon="1.13381">
        <ele>70.5</ele>
        <time>2014-07-12T17:38:15Z</time>
      </trkpt>
      <trkpt lat="49.0258" lon="1.13394">
        <ele>67.5</ele>
        <time>2014-07-12T17:38:17Z</time>
      </trkpt>
      <trkpt lat="49.02582" lon="1.13402">
        <ele>66.5</ele>
        <time>2014-07-12T17:38:18Z</time>
      </trkpt>
      <trkpt lat="49.02582" lon="1.13409">
        <ele>65.5</ele>
        <time>2014-07-12T17:38:19Z</time>
      </trkpt>
      <trkpt lat="49.02582" lon="1.13418">
        <ele>66.5</ele>
        <time>2014-07-12T17:38:20Z</time>
      </trkpt>
      <trkpt lat="49.02583" lon="1.13425">
        <ele>65.5</ele>
        <time>2014-07-12T17:38:21Z</time>
      </trkpt>
      <trkpt lat="49.02584" lon="1.13432">
        <ele>67.5</ele>
        <time>2014-07-12T17:38:22Z</time>
      </trkpt>
      <trkpt lat="49.02583" lon="1.1344">
        <ele>67.5</ele>
        <time>2014-07-12T17:38:23Z</time>
      </trkpt>
      <trkpt lat="49.02583" lon="1.13448">
        <ele>68.5</ele>
        <time>2014-07-12T17:38:24Z</time>
      </trkpt>
      <trkpt lat="49.02584" lon="1.13455">
        <ele>69.5</ele>
        <time>2014-07-12T17:38:25Z</time>
      </trkpt>
      <trkpt lat="49.02586" lon="1.13463">
        <ele>67.5</ele>
        <time>2014-07-12T17:38:26Z</time>
      </trkpt>
      <trkpt lat="49.02586" lon="1.1347">
        <ele>65.5</ele>
        <time>2014-07-12T17:38:27Z</time>
      </trkpt>
      <trkpt lat="49.02587" lon="1.13478">
        <ele>65.5</ele>
        <time>2014-07-12T17:38:28Z</time>
      </trkpt>
      <trkpt lat="49.02589" lon="1.13486">
        <ele>64.5</ele>
        <time>2014-07-12T17:38:29Z</time>
      </trkpt>
      <trkpt lat="49.02592" lon="1.13492">
        <ele>65.5</ele>
        <time>2014-07-12T17:38:30Z</time>
      </trkpt>
      <trkpt lat="49.02594" lon="1.135">
        <ele>66.5</ele>
        <time>2014-07-12T17:38:31Z</time>
      </trkpt>
      <trkpt lat="49.02594" lon="1.13508">
        <ele>68.5</ele>
        <time>2014-07-12T17:38:32Z</time>
      </trkpt>
      <trkpt lat="49.02594" lon="1.13515">
        <ele>68.5</ele>
        <time>2014-07-12T17:38:33Z</time>
      </trkpt>
      <trkpt lat="49.02595" lon="1.13523">
        <ele>69.5</ele>
        <time>2014-07-12T17:38:34Z</time>
      </trkpt>
      <trkpt lat="49.02596" lon="1.13537">
        <ele>70.5</ele>
        <time>2014-07-12T17:38:36Z</time>
      </trkpt>
      <trkpt lat="49.02599" lon="1.13548">
        <ele>69.5</ele>
        <time>2014-07-12T17:38:38Z</time>
      </trkpt>
      <trkpt lat="49.02601" lon="1.13559">
        <ele>70.5</ele>
        <time>2014-07-12T17:38:40Z</time>
      </trkpt>
      <trkpt lat="49.02604" lon="1.13567">
        <ele>70.5</ele>
        <time>2014-07-12T17:38:41Z</time>
      </trkpt>
      <trkpt lat="49.02606" lon="1.13574">
        <ele>70.5</ele>
        <time>2014-07-12T17:38:42Z</time>
      </trkpt>
      <trkpt lat="49.02612" lon="1.13586">
        <ele>70.5</ele>
        <time>2014-07-12T17:38:44Z</time>
      </trkpt>
      <trkpt lat="49.02613" lon="1.13592">
        <ele>70.5</ele>
        <time>2014-07-12T17:38:45Z</time>
      </trkpt>
      <trkpt lat="49.02608" lon="1.13599">
        <ele>71.5</ele>
        <time>2014-07-12T17:38:47Z</time>
      </trkpt>
      <trkpt lat="49.026" lon="1.13601">
        <ele>72.5</ele>
        <time>2014-07-12T17:38:48Z</time>
      </trkpt>
      <trkpt lat="49.02595" lon="1.13603">
        <ele>72.5</ele>
        <time>2014-07-12T17:38:49Z</time>
      </trkpt>
      <trkpt lat="49.0259" lon="1.13607">
        <ele>72.5</ele>
        <time>2014-07-12T17:38:50Z</time>
      </trkpt>
      <trkpt lat="49.02585" lon="1.13609">
        <ele>73.5</ele>
        <time>2014-07-12T17:38:51Z</time>
      </trkpt>
      <trkpt lat="49.02579" lon="1.13612">
        <ele>73.5</ele>
        <time>2014-07-12T17:38:52Z</time>
      </trkpt>
      <trkpt lat="49.02574" lon="1.13615">
        <ele>74.5</ele>
        <time>2014-07-12T17:38:53Z</time>
      </trkpt>
      <trkpt lat="49.02569" lon="1.13617">
        <ele>76.5</ele>
        <time>2014-07-12T17:38:54Z</time>
      </trkpt>
      <trkpt lat="49.02564" lon="1.13621">
        <ele>75.5</ele>
        <time>2014-07-12T17:38:55Z</time>
      </trkpt>
      <trkpt lat="49.02558" lon="1.13626">
        <ele>77.5</ele>
        <time>2014-07-12T17:38:56Z</time>
      </trkpt>
      <trkpt lat="49.02553" lon="1.13628">
        <ele>75.5</ele>
        <time>2014-07-12T17:38:57Z</time>
      </trkpt>
      <trkpt lat="49.02547" lon="1.13631">
        <ele>75.5</ele>
        <time>2014-07-12T17:38:58Z</time>
      </trkpt>
      <trkpt lat="49.02543" lon="1.13633">
        <ele>75.5</ele>
        <time>2014-07-12T17:38:59Z</time>
      </trkpt>
      <trkpt lat="49.02539" lon="1.13636">
        <ele>75.5</ele>
        <time>2014-07-12T17:39:00Z</time>
      </trkpt>
      <trkpt lat="49.02535" lon="1.13642">
        <ele>74.5</ele>
        <time>2014-07-12T17:39:01Z</time>
      </trkpt>
      <trkpt lat="49.02528" lon="1.13648">
        <ele>72.5</ele>
        <time>2014-07-12T17:39:03Z</time>
      </trkpt>
      <trkpt lat="49.02523" lon="1.13657">
        <ele>68.5</ele>
        <time>2014-07-12T17:39:05Z</time>
      </trkpt>
      <trkpt lat="49.02516" lon="1.13665">
        <ele>66.5</ele>
        <time>2014-07-12T17:39:07Z</time>
      </trkpt>
      <trkpt lat="49.0251" lon="1.13672">
        <ele>68.5</ele>
        <time>2014-07-12T17:39:09Z</time>
      </trkpt>
      <trkpt lat="49.02504" lon="1.1368">
        <ele>68.5</ele>
        <time>2014-07-12T17:39:11Z</time>
      </trkpt>
      <trkpt lat="49.02498" lon="1.13687">
        <ele>69.5</ele>
        <time>2014-07-12T17:39:13Z</time>
      </trkpt>
      <trkpt lat="49.02493" lon="1.1369">
        <ele>69.5</ele>
        <time>2014-07-12T17:39:15Z</time>
      </trkpt>
      <trkpt lat="49.02489" lon="1.13693">
        <ele>66.5</ele>
        <time>2014-07-12T17:39:17Z</time>
      </trkpt>
      <trkpt lat="49.02484" lon="1.13695">
        <ele>70.5</ele>
        <time>2014-07-12T17:39:19Z</time>
      </trkpt>
      <trkpt lat="49.02483" lon="1.13686">
        <ele>78.5</ele>
        <time>2014-07-12T17:41:11Z</time>
      </trkpt>
      <trkpt lat="49.02483" lon="1.13679">
        <ele>78.5</ele>
        <time>2014-07-12T17:41:24Z</time>
      </trkpt>
    </trkseg>
  </trk>
</gpx>